     2              OBSERVATION DATA    G (GPS)             RINEX VERSION / TYPE
ASRINEXO V2.9.7 UX USGS/MENLO_PARK 26-AUG-99 12:27          PGM / RUN BY / DATE
                                                            COMMENT
National Earthquake Hazard Reduction Program                COMMENT
Crustal Strain Project                                      COMMENT
345 Middlefield Road, MS/977                                COMMENT
U.S. Geological Survey, Menlo Park, California 94025        COMMENT
Contact: kwendt@isdmnl.wr.usgs.gov (Ph: 650-329-4866)       COMMENT
HI's are vertical to base of antenna                        COMMENT
BIT 2 OF LLI (+4) FLAGS DATA COLLECTED UNDER "AS" CONDITION COMMENT
cam4 Camas_2_rm4_1987_USFS                                  MARKER NAME
GDH                                                         OBSERVER / AGENCY
O4579 ASHTECH Z-XII3 CC00                                   REC # / TYPE / VERS
CR619992801 ASH701945.02B NONE                              ANT # / TYPE
 -2597838.0000 -3883781.0000  4328322.0000                  APPROX POSITION XYZ
        1.3277        0.0000        0.0000                  ANTENNA: DELTA H/E/N
     1     1                                                WAVELENGTH FACT L1/2
     5    C1    L1    L2    P1    P2                        # / TYPES OF OBSERV
    30                                                      INTERVAL
  1999     8    18     0     1    0.000000                  TIME OF FIRST OBS
                                                            END OF HEADER
 99  8 18  0  1  0.0000000  0  6 01 15 25 16 22 14
  20667265.583      797487.800 9    619564.20348  20667265.260    20667270.5794
  22488857.256    10410534.185 8   8104609.17446  22488856.749    22488863.9064
  21556506.913     3168658.285 9   2467011.78347  21556506.981    21556511.8484
  22147191.060   -11952916.000 8  -9300927.53546  22147190.599    22147197.2274
  23008623.753    -7123237.893 8  -5297504.14046  23008623.012    23008630.6154
  20375225.329    -8196881.734 9  -6377042.10248  20375225.205    20375230.5934
 99  8 18  0  1 30.0000000  0  6 01 15 25 16 22 14
  20672499.949      824994.438 9    640997.93548  20672499.656    20672504.9544
  22508458.618    10513539.650 8   8184873.10946  22508458.029    22508465.2474
  21567319.877     3225480.363 9   2511288.68947  21567319.935    21567324.7064
  22131565.448   -12035028.352 8  -9364911.14946  22131564.987    22131571.8604
  22992493.113    -7208005.488 8  -5363556.75546  22992492.378    22992499.6674
  20369188.650    -8228604.346 9  -6401761.02148  20369188.544    20369193.9324
 99  8 18  0  2  0.0000000  0  6 01 15 25 16 22 14
  20677781.675      852750.293 9    662625.86248  20677781.390    20677786.6604
  22528106.192    10616788.361 8   8265326.58646  22528105.617    22528112.9374
  21578202.557     3282668.553 9   2555850.88147  21578202.531    21578207.2074
  22115980.223   -12116929.400 8  -9428730.11447  22115979.825    22115986.8044
  22976414.830    -7292497.893 8  -5429394.92746  22976413.930    22976420.9434
  20363231.880    -8259907.264 9  -6426152.90448  20363231.798    20363237.1484
 99  8 18  0  2 30.0000000  0  7 01 18 15 25 16 22 14
  20683116.462      880784.651 9    684470.80148  20683116.176    20683121.4534
  24675194.658    -4218651.117 7  -3268796.88545  24675194.786    24675204.8344
  22547803.297    10720296.728 8   8345982.38346  22547802.711    22547810.0184
  21589156.404     3340230.766 9   2600704.52247  21589156.358    21589160.9904
  22100439.147   -12198599.962 9  -9492369.46747  22100438.704    22100445.5434
  22960393.236    -7376690.083 8  -5494999.13145  22960392.332    22960399.3744
  20357363.003    -8290748.418 9  -6450184.96348  20357362.921    20357368.3004
 99  8 18  0  3  0.0000000  0  7 01 18 15 25 16 22 14
  20688524.070      909201.350 9    706613.67448  20688523.753    20688529.0474
  24657578.308    -4311228.658 7  -3340935.12145  24657578.314    24657587.5134
  22567570.848    10824175.147 8   8426926.52546  22567570.266    22567577.6324
  21600201.246     3398271.058 9   2645930.69747  21600201.152    21600205.7164
  22084964.366   -12279922.870 8  -9555737.92847  22084963.837    22084970.3874
  22944451.433    -7460463.670 8  -5560277.15945  22944450.438    22944457.7474
  20351604.000    -8321012.531 9  -6473767.38848  20351603.888    20351609.2194
 99  8 18  0  3 30.0000000  0  7 01 18 15 25 16 22 14
  20693980.589      937875.659 9    728957.28348  20693980.246    20693985.6074
  24639971.799    -4403752.847 7  -3413031.71545  24639971.702    24639980.4494
  22587381.753    10928281.243 8   8508048.08246  22587381.131    22587388.3684
  21611310.517     3456650.404 9   2691421.06747  21611310.391    21611314.9214
  22069529.746   -12361033.039 8  -9618940.61547  22069529.133    22069535.5314
  22928564.299    -7543949.805 8  -5625331.21246  22928563.476    22928570.9174
  20345931.805    -8350820.365 9  -6496994.26848  20345931.694    20345937.0254
 99  8 18  0  4  0.0000000  0  7 01 18 15 25 16 22 14
  20699492.602      966841.141 9    751527.76548  20699492.249    20699497.5564
  24622380.082    -4496196.719 8  -3485065.79145  24622379.931    24622389.1304
  22607242.076    11032648.217 8   8589372.91046  22607241.572    22607248.7644
  21622492.124     3515409.438 9   2737207.29347  21622491.960    21622496.4824
  22054140.081   -12441905.122 8  -9681957.79447  22054139.468    22054145.8664
  22912737.959    -7627115.924 8  -5690135.85646  22912737.252    22912744.8784
  20340351.973    -8380143.082 9  -6519843.13048  20340351.817    20340357.1354
 99  8 18  0  4 30.0000000  0  7 01 18 15 25 16 22 14
  20705061.221      996103.915 9    774329.91748  20705060.815    20705066.1744
  24604806.087    -4588548.651 7  -3557028.18345  24604805.998    24604814.9434
  22627153.680    11137284.466 8   8670907.56046  22627153.197    22627160.3874
  21633750.904     3574574.555 9   2783309.94347  21633750.786    21633755.2994
  22038799.000   -12522521.063 8  -9744775.38947  22038798.438    22038804.9794
  22896975.874    -7709945.146 8  -5754678.00946  22896975.364    22896982.9294
  20334864.968    -8408977.667 9  -6542311.63748  20334864.816    20334870.0844
 99  8 18  0  5  0.0000000  0  7 01 18 15 25 16 22 14
  20710680.305     1025632.740 9    797339.38148  20710679.895    20710685.3564
  24587245.216    -4680831.401 7  -3628936.61845  24587245.205    24587253.8734
  22647113.442    11242172.485 8   8752638.39046  22647112.800    22647120.0644
  21645087.355     3634147.797 9   2829730.61647  21645087.268    21645091.7754
  22023507.115   -12602880.118 8  -9807392.81947  22023506.584    22023513.0954
  22881279.738    -7792430.874 8  -5818952.51246  22881278.880    22881286.1714
  20329465.925    -8437349.755 9  -6564419.74948  20329465.774    20329471.0684
 99  8 18  0  5 30.0000000  0  7 01 18 15 25 16 22 14
  20716347.005     1055410.829 9    820543.06448  20716346.591    20716351.9234
  24569691.611    -4773073.462 8  -3700813.38445  24569691.576    24569700.7144
  22667117.104    11347291.830 8   8834549.45346  22667116.412    22667123.6294
  21656500.071     3694122.191 9   2876463.87147  21656500.017    21656504.6164
  22008261.485   -12682997.113 8  -9869821.61147  22008260.948    22008267.2814
  22865647.507    -7874579.487 8  -5882964.29845  22865646.522    22865653.6364
  20324152.988    -8465269.503 9  -6586175.39948  20324152.842    20324158.1294
 99  8 18  0  6  0.0000000  0  7 01 18 15 25 16 22 14
  20722056.658     1085414.995 9    843922.92648  20722056.209    20722061.5564
  24552148.526    -4865263.910 8  -3772649.87445  24552148.361    24552157.3284
  22687161.517    11452627.317 8   8916628.97246  22687161.075    22687168.3254
  21667988.287     3754493.379 9   2923506.32247  21667988.254    21667992.8794
  21993060.182   -12762881.501 8  -9932069.13947  21993059.591    21993065.8284
  22850077.597    -7956398.014 8  -5946718.85846  22850076.822    22850084.0924
  20318920.439    -8492766.925 9  -6607601.95648  20318920.294    20318925.5244
 99  8 18  0  6 30.0000000  0  7 01 18 15 25 16 22 14
  20727804.739     1115621.821 9    867460.70648  20727804.330    20727809.7414
  24534612.150    -4957417.168 8  -3844457.43345  24534611.922    24534621.1104
  22707241.945    11558149.458 8   8998853.93046  22707241.403    22707248.5294
  21679545.568     3815227.402 9   2970831.49847  21679545.573    21679550.2574
  21977902.094   -12842538.193 8  -9994139.23947  21977901.436    21977907.6724
  22834566.172    -8037909.041 8  -6010233.81046  22834565.569    22834573.0904
  20313762.522    -8519872.159 9  -6628722.91348  20313762.355    20313767.5284
 99  8 18  0  7  0.0000000  0  7 01 18 15 25 16 22 14
  20733588.741     1146016.559 9    891144.89748  20733588.355    20733593.6694
  24517082.143    -5049539.000 8  -3916240.48245  24517081.857    24517090.5294
  22727355.219    11663845.332 8   9081214.26546  22727354.650    22727361.8194
  21691166.136     3876293.905 9   3018415.74947  21691166.108    21691170.9514
  21962784.637   -12921979.091 8 -10056041.20247  21962783.972    21962790.5474
  22819111.727    -8119124.406 8  -6073518.39746  22819110.808    22819118.2544
  20308678.802    -8546586.949 9  -6649539.63148  20308678.664    20308683.8634
 99  8 18  0  7 30.0000000  0  7 01 18 15 25 16 22 14
  20739412.379     1176619.609 9    914991.41648  20739411.974    20739417.2494
  24499559.411    -5141619.474 7  -3987991.24645  24499559.129    24499568.1084
  22747503.078    11769721.751 8   9163715.29046  22747502.353    22747509.4944
  21702850.307     3937694.377 9   3066260.22547  21702850.230    21702855.0904
  21947708.096   -13001203.827 8 -10117774.73847  21947707.589    21947714.6664
  22803709.869    -8200062.516 8  -6136586.93446  22803708.960    22803716.2264
  20303671.962    -8572897.928 9  -6670041.69248  20303671.791    20303677.0184
 99  8 18  0  8  0.0000000  0  7 01 18 15 25 16 22 14
  20745278.011     1207444.257 9    939010.62048  20745277.643    20745282.9944
  24482045.934    -5233652.361 8  -4059705.03245  24482045.733    24482054.6414
  22767686.644    11875787.387 8   9246363.73446  22767685.959    22767693.1854
  21714598.298     3999430.370 8   3114366.15247  21714598.206    21714603.1424
  21932676.216   -13080195.446 8 -10179326.64647  21932675.854    21932683.2274
  22788361.201    -8280720.550 8  -6199437.27046  22788360.546    22788367.4294
  20298743.513    -8598797.229 9  -6690222.96948  20298743.332    20298748.5664
 99  8 18  0  8 30.0000000  0  7 01 18 15 25 16 22 14
  20751188.287     1238502.310 9    963211.67548  20751187.891    20751193.1204
  24464539.272    -5325649.714 8  -4131391.08445  24464538.963    24464547.7124
  22787909.339    11982057.834 8   9329171.75546  22787908.649    22787915.9494
  21726408.181     4061492.401 8   3162726.13647  21726408.200    21726413.1764
  21917691.744   -13158939.425 8 -10240685.55547  21917691.387    21917698.9104
  22773071.174    -8361069.646 8  -6262046.84946  22773070.452    22773077.2714
  20293898.514    -8624257.784 9  -6710062.35548  20293898.366    20293903.6134
 99  8 18  0  9  0.0000000  0  7 01 18 15 25 16 22 14
  20757147.694     1269818.441 9    987613.84848  20757147.226    20757152.4644
  24447040.668    -5417605.757 8  -4203044.97845  24447040.365    24447048.5454
  22808173.483    12088546.803 8   9412150.08246  22808172.860    22808180.2724
  21738283.508     4123897.528 8   3211353.47447  21738283.510    21738288.4954
  21902755.281   -13237433.383 8 -10301849.65547  21902754.858    21902762.0884
  22757844.566    -8441084.416 8  -6324395.93546  22757843.864    22757850.6534
  20289140.958    -8649258.947 9  -6729543.77648  20289140.820    20289146.0654
 99  8 18  0  9 30.0000000  0  7 01 18 15 25 16 22 14
  20763160.318     1301415.812 9   1012235.16848  20763159.943    20763165.2264
  24429549.777    -5509520.238 7  -4274666.46345  24429549.514    24429557.4594
  22828480.793    12195261.913 8   9495304.63246  22828480.171    22828487.6354
  21750226.963     4186660.825 8   3260259.89147  21750227.001    21750232.0044
  21887868.905   -13315662.284 8 -10362807.19547  21887868.404    21887875.4094
  22742685.599    -8520744.267 8  -6386468.44046  22742684.897    22742691.7024
  20284472.939    -8673789.745 9  -6748658.68148  20284472.792    20284478.0284
 99  8 18  0 10  0.0000000  0  7 01 18 15 25 16 22 14
  20769227.665     1333299.308 9   1037079.43248  20769227.243    20769232.4314
  24412066.600    -5601394.469 7  -4346256.57645  24412066.339    24412074.4264
  22848831.827    12302206.615 8   9578638.07146  22848831.273    22848838.7504
  21762238.195     4249779.560 8   3309443.29047  21762238.156    21762243.1274
  21873034.641   -13393616.400 8 -10423550.65847  21873034.144    21873040.8834
  22727600.236    -8600017.612 8  -6448239.80646  22727599.610    22727606.4084
  20279895.972    -8697841.944 9  -6767400.65548  20279895.810    20279901.0694
 99  8 18  0 10 30.0000000  0  7 01 18 15 25 16 22 14
  20775348.714     1365465.805 9   1062144.22848  20775348.306    20775353.5514
  24394594.477    -5693210.383 7  -4417801.26045  24394594.225    24394602.0254
  22869226.019    12409377.989 8   9662148.14846  22869225.415    22869232.9304
  21774319.197     4313264.906 9   3358912.34547  21774319.082    21774324.0144
  21858251.364   -13471302.797 8 -10484085.49447  21858250.888    21858257.4504
  22712589.165    -8678902.021 8  -6509708.09846  22712588.253    22712595.1284
  20275409.290    -8721419.328 9  -6785772.64248  20275409.146    20275414.4494
 99  8 18  0 11  0.0000000  0  7 01 18 15 25 16 22 14
  20781522.816     1397910.707 9   1087425.95048  20781522.401    20781527.6264
  24377134.005    -5784966.473 7  -4489299.39944  24377133.653    24377141.1834
  22889659.105    12516754.317 8   9745817.91646  22889658.440    22889666.1724
  21786470.960     4377122.570 8   3408671.52547  21786470.840    21786475.7344
  21843519.107   -13548720.913 8 -10544411.25947  21843518.717    21843525.1254
  22697645.789    -8757428.945 8  -6570897.83746  22697645.027    22697651.9384
  20271009.955    -8744538.039 9  -6803787.22548  20271009.812    20271015.1254
 99  8 18  0 11 30.0000000  0  7 01 18 15 25 16 22 14
  20787744.872     1430607.984 9   1112904.32748  20787744.474    20787749.7094
  24359684.250    -5876661.082 7  -4560749.55244  24359683.873    24359692.0814
  22910129.334    12624326.468 8   9829640.27946  22910128.708    22910136.5384
  21798692.339     4441346.685 8   3458716.25247  21798692.289    21798697.2734
  21828838.445   -13625869.136 9 -10604526.71947  21828838.039    21828844.2954
  22682769.044    -8835605.723 8  -6631814.75246  22682768.446    22682775.4094
  20266695.651    -8767210.152 9  -6821453.81148  20266695.509    20266700.7414
 99  8 18  0 12  0.0000000  0  7 01 18 15 25 16 22 14
  20794009.837     1463530.951 9   1138558.57648  20794009.467    20794014.8044
  24342248.106    -5968290.522 7  -4632148.87844  24342247.673    24342255.2314
  22930633.654    12732077.328 8   9913601.91246  22930632.973    22930640.8484
  21810980.155     4505919.565 8   3509032.74347  21810980.123    21810985.1964
  21814207.533   -13702756.235 8 -10664438.71647  21814207.019    21814213.2794
  22667955.263    -8913453.683 8  -6692475.42646  22667954.342    22667961.4734
  20262462.385    -8789456.029 9  -6838788.25948  20262462.259    20262467.4934
 99  8 18  0 12 30.0000000  0  7 01 18 15 25 16 22 14
  20800313.453     1496656.280 9   1164370.49948  20800313.043    20800318.3364
  24324821.970    -6059862.943 7  -4703503.87644  24324821.569    24324829.9194
  22951167.733    12839984.549 8   9997685.36145  22951167.077    22951174.8684
  21823330.448     4570820.292 8   3559604.69847  21823330.393    21823335.5174
  21799625.054   -13779386.692 8 -10724150.73947  21799624.565    21799631.1274
  22653201.681    -8990982.990 8  -6752887.81546  22653200.886    22653208.1384
  20258307.880    -8811288.338 9  -6855800.44848  20258307.745    20258312.9214
 99  8 18  0 13  0.0000000  0  7 01 18 15 25 16 22 14
  20806654.548     1529978.698 9   1190335.99848  20806654.103    20806659.4074
  24307403.249    -6151396.064 7  -4774828.24144  24307403.133    24307411.3364
  22971730.359    12948041.307 8  10081885.34845  22971729.712    22971737.4384
  21835739.836     4636031.826 8   3610418.84247  21835739.802    21835744.9204
  21785090.360   -13855765.342 8 -10783666.56847  21785089.907    21785096.8234
  22638512.664    -9068173.695 8  -6813036.35146  22638511.795    22638519.1914
  20254234.764    -8832692.939 9  -6872479.35848  20254234.615    20254239.7724
 99  8 18  0 13 30.0000000  0  7 01 18 15 25 16 22 14
  20813032.617     1563495.813 9   1216453.21548  20813032.197    20813037.5804
  24289994.891    -6242881.470 7  -4846115.37444  24289994.237    24290002.4034
  22992323.538    13056257.869 8  10166209.82245  22992322.745    22992330.5134
  21848207.869     4701551.320 8   3661472.96747  21848207.830    21848212.8724
  21770601.749   -13931902.846 8 -10842994.46947  21770601.326    21770608.1934
  22623895.039    -9144990.112 8  -6872893.25946  22623894.114    22623901.2914
  20250247.492    -8853646.148 9  -6888806.53048  20250247.355    20250252.5554
 99  8 18  0 14  0.0000000  0  7 01 18 15 25 16 22 14
  20819452.454     1597232.171 9   1242741.25848  20819452.063    20819457.3904
  24272595.426    -6334314.021 7  -4917361.43344  24272594.873    24272603.3064
  23012948.527    13164642.629 8  10250665.37545  23012947.767    23012955.5014
  21860735.766     4767385.971 8   3712772.67047  21860735.688    21860740.7904
  21756160.624   -14007792.976 8 -10902129.59747  21756160.113    21756166.4884
  22609350.791    -9221420.270 8  -6932449.15446  22609349.863    22609356.9324
  20246351.532    -8874119.393 9  -6904759.70648  20246351.422    20246356.6074
 99  8 18  0 14 30.0000000  0  7 01 18 15 25 16 22 14
  20825918.807     1631213.353 9   1269220.08348  20825918.437    20825923.8284
  24255208.756    -6425679.748 7  -4988555.36744  24255208.169    24255216.8134
  23033609.755    13273217.707 8  10335269.20145  23033609.044    23033616.6924
  21873327.517     4833556.134 8   3764333.79747  21873327.441    21873332.5004
  21741769.116   -14083421.763 8 -10961061.07647  21741768.577    21741774.5174
  22594886.691    -9297429.073 8  -6991676.71746  22594885.777    22594892.8114
  20242552.851    -8894081.667 9  -6920314.72248  20242552.703    20242557.9154
 99  8 18  0 15  0.0000000  0  7 01 18 15 25 16 22 14
  20832436.150     1665462.249 9   1295907.51048  20832435.795    20832441.1784
  24237838.165    -6516963.485 7  -5059685.42344  24237837.603    24237846.1094
  23054310.038    13381997.228 8  10420032.32845  23054309.313    23054316.9214
  21885986.565     4900079.918 8   3816170.47547  21885986.467    21885991.6034
  21727429.201   -14158778.817 8 -11019780.83547  21727428.564    21727434.4534
  22580503.236    -9373015.364 8  -7050575.08246  22580502.233    22580509.0264
  20238854.119    -8913518.724 9  -6935460.48648  20238853.983    20238859.1384
 99  8 18  0 15 30.0000000  0  7 01 18 15 25 16 22 14
  20839008.010     1699997.289 9   1322817.90748  20839007.635    20839013.0004
  24220485.135    -6608153.191 7  -5130742.26444  24220484.319    24220492.8684
  23075049.566    13490984.183 8  10504957.12345  23075048.906    23075056.5844
  21898713.327     4966959.266 8   3868284.21347  21898713.206    21898718.2774
  21713147.201   -14233830.413 8 -11078262.58447  21713146.532    21713152.7464
  22566196.964    -9448195.691 8  -7109157.09046  22566195.948    22566202.6554
  20235253.780    -8932438.475 9  -6950203.14248  20235253.646    20235258.8494
 99  8 18  0 16  0.0000000  0  7 01 18 15 25 16 22 14
  20845634.346     1734818.985 9   1349951.67848  20845633.958    20845639.4354
  24203147.888    -6699260.102 7  -5201734.53845  24203147.339    24203155.7404
  23095826.949    13600169.235 8  10590036.26945  23095826.232    23095833.9394
  21911507.522     5034193.134 8   3920674.20047  21911507.379    21911512.4534
  21698925.886   -14308562.353 8 -11136495.26347  21698925.377    21698931.9604
  22551963.393    -9522994.169 8  -7167441.57446  22551962.292    22551969.0494
  20231748.544    -8950858.719 9  -6964556.58648  20231748.412    20231753.5964
 99  8 18  0 16 30.0000000  0  7 01 18 15 25 16 22 14
  20852312.067     1769910.809 9   1377295.92748  20852311.725    20852317.1404
  24185825.304    -6790291.676 7  -5272668.05145  24185824.691    24185832.7724
  23116638.802    13709536.754 8  10675257.62446  23116638.214    23116645.9064
  21924367.185     5101770.690 8   3973331.99647  21924366.997    21924372.0734
  21684766.059   -14382973.558 9 -11194478.01647  21684765.548    21684772.1894
  22537802.717    -9597408.147 8  -7225426.43546  22537801.754    22537808.4484
  20228335.811    -8968792.670 9  -6978531.09648  20228335.695    20228340.8654
 99  8 18  0 17  0.0000000  0  7 01 18 15 25 16 22 14
  20859040.297     1805267.346 9   1404846.45448  20859039.897    20859045.3114
  24168512.687    -6881270.228 7  -5343560.30545  24168512.256    24168520.5784
  23137481.331    13819064.793 8  10760604.06646  23137480.805    23137488.5574
  21937290.494     5169684.163 8   4026251.54747  21937290.450    21937295.5264
  21670668.088   -14457060.203 9 -11252207.84047  21670667.539    21670673.9724
  22523712.461    -9671452.201 8  -7283123.02646  22523711.749    22523718.3934
  20225013.266    -8986252.810 9  -6992136.40148  20225013.125    20225018.3434
 99  8 18  0 17 30.0000000  0  7 01 18 15 25 16 22 14
  20865815.676     1840871.960 9   1432590.28848  20865815.287    20865820.6734
  24151210.764    -6972193.456 7  -5414409.45745  24151210.256    24151218.2544
  23158352.596    13928743.705 8  10846068.04646  23158352.086    23158359.9064
  21950277.185     5237929.674 8   4079429.82647  21950277.149    21950282.1964
  21656629.579   -14530832.829 8 -11309692.94347  21656629.048    21656635.2764
  22509694.329    -9745119.340 8  -7340525.92946  22509693.473    22509700.1524
  20221778.709    -9003250.088 9  -7005381.03748  20221778.634    20221783.8804
 99  8 18  0 18  0.0000000  0  7 01 18 15 25 16 22 14
  20872633.539     1876700.340 9   1460508.48548  20872633.167    20872638.5524
  24133919.431    -7063059.962 7  -5485214.39345  24133918.956    24133926.8104
  23179250.668    14038563.296 8  10931641.64445  23179250.139    23179258.0174
  21963326.120     5306503.000 8   4132863.54147  21963326.165    21963331.2514
  21642645.171   -14604320.800 8 -11366956.27247  21642644.620    21642650.7224
  22495750.784    -9818392.912 8  -7397622.17346  22495749.867    22495756.5864
  20218634.002    -9019776.165 9  -7018258.50548  20218633.861    20218639.1164
 99  8 18  0 18 30.0000000  0  7 01 18 15 25 16 22 14
  20879493.185     1912747.674 9   1488597.30248  20879492.818    20879498.2474
  24116640.095    -7153861.774 7  -5555968.97444  24116639.818    24116647.3204
  23200174.132    14148516.350 8  11017319.24145  23200173.504    23200181.4254
  21976435.865     5375394.592 8   4186545.25247  21976435.830    21976440.8544
  21628715.062   -14677521.840 8 -11423996.01947  21628714.563    21628720.9544
  22481885.602    -9891252.603 8  -7454395.90646  22481884.816    22481891.7244
  20215578.939    -9035830.733 9  -7030768.55948  20215578.776    20215584.0324
 99  8 18  0 19  0.0000000  0  7 01 18 15 25 16 22 14
  20886392.977     1949005.740 9   1516850.31148  20886392.541    20886397.8724
  24099374.448    -7244591.850 7  -5626667.67344  24099374.401    24099381.3494
  23221121.916    14258597.337 8  11103096.52546  23221121.332    23221129.3084
  21989605.611     5444602.108 8   4240473.15047  21989605.573    21989610.7124
  21614839.142   -14750439.749 9 -11480815.15847  21614838.738    21614845.2064
  22468097.844    -9963709.023 8  -7510855.40146  22468096.730    22468103.6154
  20212611.964    -9051422.079 9  -7042917.66448  20212611.810    20212617.1054
 99  8 18  0 19 30.0000000  0  7 01 18 15 25 16 22 14
  20893329.665     1985458.089 9   1545254.72348  20893329.199    20893334.5444
  24082124.990    -7335235.207 7  -5697298.82944  24082124.924    24082132.4324
  23242093.267    14368802.615 8  11188970.65846  23242092.704    23242100.9404
  22002833.416     5514113.937 8   4294638.16847  22002833.345    22002838.4184
  21601014.247   -14823091.370 9 -11537426.77647  21601013.789    21601020.1294
  22454385.619   -10035767.275 8  -7567004.63446  22454384.613    22454391.3334
  20209733.174    -9066550.213 9  -7054705.83048  20209733.053    20209738.3114
 99  8 18  0 20  0.0000000  0  7 01 18 15 25 16 22 14
  20900304.322     2022110.373 9   1573814.92448  20900303.901    20900309.2664
  24064890.857    -7425800.566 7  -5767869.11744  24064890.863    24064898.4034
  23263088.076    14479129.782 8  11274939.75146  23263087.480    23263095.6814
  22016117.406     5583921.543 8   4349033.67347  22016117.339    22016122.5364
  21587242.519   -14895463.606 9 -11593820.68647  21587242.013    21587248.1554
  22440748.567   -10107428.729 8  -7622844.70246  22440747.744    22440754.5574
  20206943.717    -9081208.781 9  -7066128.09748  20206943.594    20206948.8774
 99  8 18  0 20 30.0000000  0  8 01 18 15 25 04 16 22 14
  20907319.150     2058973.435 9   1602539.36048  20907318.764    20907324.0764
  24047669.304    -7516301.191 7  -5838389.01544  24047669.085    24047676.9974
  23284105.977    14589577.590 8  11361002.84446  23284105.259    23284113.3394
  22029456.982     5654021.475 8   4403656.95147  22029456.954    22029462.3084
  24764165.663    -3270335.239 7  -2534696.28345  24764166.154    24764173.3224
  21573526.673   -14967540.325 8 -11649984.34247  21573526.120    21573532.3874
  22427186.284   -10178697.672 8  -7678378.88446  22427185.543    22427192.6974
  20204242.121    -9095405.746 9  -7077190.67948  20204242.004    20204247.3114
 99  8 18  0 21  0.0000000  0  8 01 18 15 25 04 16 22 14
  20914376.307     2096058.646 9   1631436.91348  20914375.889    20914381.2354
  24030460.726    -7606732.849 7  -5908855.20245  24030460.438    24030468.3674
  23305146.784    14700147.515 8  11447161.10646  23305146.073    23305154.1704
  22042851.587     5724410.027 8   4458505.13747  22042851.541    22042856.9084
  24750404.998    -3342651.668 7  -2591046.73245  24750405.171    24750412.3864
  21559862.936   -15039341.377 8 -11705933.20247  21559862.488    21559869.2084
  22413699.551   -10249570.791 8  -7733604.65146  22413698.809    22413706.0284
  20201628.827    -9109138.628 9  -7087891.62948  20201628.723    20201633.9994
 99  8 18  0 21 30.0000000  0  8 01 18 15 25 04 16 22 14
  20921481.214     2133394.870 9   1660530.04948  20921480.770    20921486.0584
  24013265.958    -7697092.452 7  -5979265.27145  24013265.752    24013273.2514
  23326212.941    14810851.049 8  11533423.50046  23326212.369    23326220.4244
  22056299.940     5795081.020 8   4513573.40347  22056299.921    22056305.3244
  24736723.231    -3414548.081 7  -2647069.93145  24736723.542    24736730.9354
  21546254.690   -15110852.977 9 -11761656.51947  21546254.328    21546261.0044
  22400292.766   -10320023.436 8  -7788502.76146  22400291.991    22400299.2954
  20199107.893    -9122386.510 9  -7098214.65448  20199107.769    20199113.0454
 99  8 18  0 22  0.0000000  0  8 01 18 15 25 04 16 22 14
  20928635.594     2170992.227 9   1689826.66848  20928635.237    20928640.6544
  23996081.944    -7787393.488 7  -6049629.62145  23996081.430    23996089.0874
  23347304.435    14921686.838 8  11619788.93545  23347303.768    23347311.8504
  22069802.296     5866036.093 8   4568863.02747  22069802.323    22069807.6644
  24723121.038    -3486030.476 7  -2702770.44845  24723121.171    24723128.1814
  21532704.224   -15182063.658 9 -11817145.34147  21532703.709    21532710.0314
  22386968.777   -10390040.995 8  -7843061.87146  22386968.144    22386975.2334
  20196678.613    -9135152.573 9  -7108162.25148  20196678.470    20196683.7374
 99  8 18  0 22 30.0000000  0  8 01 18 15 25 04 16 22 14
  20935840.191     2208852.501 9   1719328.15547  20935839.869    20935845.2764
  23978910.243    -7877628.644 7  -6119942.68145  23978910.085    23978918.2184
  23368420.274    15032652.329 8  11706255.43545  23368419.770    23368428.0264
  22083359.018     5937275.949 8   4624374.55647  22083358.929    22083364.1504
  24709593.933    -3557111.681 7  -2758158.34445  24709594.276    24709601.5114
  21519208.051   -15252986.940 9 -11872410.19247  21519207.463    21519213.6754
  22373729.955   -10459612.352 8  -7897273.28746  22373729.279    22373736.0314
  20194340.287    -9147440.366 9  -7117737.15548  20194340.179    20194345.4444
 99  8 18  0 23  0.0000000  0  8 01 18 15 25 04 16 22 14
  20943094.585     2246974.114 9   1749033.27847  20943094.188    20943099.5694
  23961753.988    -7967787.489 7  -6190196.22945  23961753.693    23961761.3374
  23389559.917    15143741.221 8  11792818.07245  23389559.355    23389567.6924
  22096970.057     6008803.059 8   4680109.92747  22096969.996    22096975.4114
  24696140.080    -3627813.656 7  -2813250.73845  24696140.635    24696147.4964
  21505766.274   -15323622.773 8 -11927451.07847  21505765.709    21505772.0564
  22360575.367   -10528741.521 8  -7951140.14546  22360574.526    22360581.0154
  20192092.761    -9159251.395 9  -7126940.56248  20192092.615    20192097.8714
 99  8 18  0 23 30.0000000  0  8 01 18 15 25 04 16 22 14
  20950394.750     2285337.349 9   1778926.69047  20950394.444    20950399.9274
  23944609.415    -8057882.157 7  -6260399.82845  23944609.133    23944616.9244
  23410721.329    15254944.707 8  11879470.02945  23410720.834    23410729.1394
  22110637.840     6080627.615 8   4736077.06747  22110637.714    22110643.2304
  24682759.166    -3698134.678 7  -2868046.29745  24682759.163    24682766.2114
  21492384.126   -15393945.329 9 -11982247.86847  21492383.672    21492390.2384
  22347501.049   -10597446.742 8  -8004676.64646  22347500.338    22347506.7844
  20189936.614    -9170582.324 9  -7135769.86748  20189936.428    20189941.7094
 99  8 18  0 24  0.0000000  0  8 01 18 15 25 04 16 22 14
  20957737.504     2323923.911 9   1808994.11247  20957737.200    20957742.7024
  23927477.684    -8147906.733 7  -6330548.80045  23927477.552    23927485.8804
  23431904.523    15366261.682 8  11966210.40845  23431903.861    23431912.2584
  22124367.251     6152777.046 8   4792297.35847  22124367.170    22124372.8594
  24669453.878    -3768048.988 7  -2922525.03145  24669454.502    24669462.5034
  21479062.714   -15463951.092 9 -12036797.81047  21479062.174    21479068.7104
  22334507.516   -10665729.143 8  -8057883.67146  22334506.703    22334513.1214
  20187871.843    -9181432.623 9  -7144224.65548  20187871.717    20187876.9824
 99  8 18  0 24 30.0000000  0  8 01 18 15 25 04 16 22 14
  20965120.005     2362719.112 9   1839224.11447  20965119.699    20965125.2264
  23910360.068    -8237862.489 7  -6400644.07345  23910359.901    23910368.0584
  23453106.617    15477679.199 7  12053029.14945  23453105.973    23453114.3334
  22138156.213     6225238.516 8   4848760.79847  22138156.203    22138161.9714
  24656227.506    -3837558.675 7  -2976688.36345  24656227.729    24656234.9034
  21465800.552   -15533644.380 9 -12091104.24547  21465800.006    21465806.5734
  22321593.303   -10733593.516 8  -8110764.97346  22321592.523    22321598.9334
  20185898.979    -9191800.388 9  -7152303.43648  20185898.823    20185904.0514
 99  8 18  0 25  0.0000000  0  8 01 18 15 25 04 16 22 14
  20972539.222     2401706.831 9   1869604.12747  20972538.893    20972544.3644
  23893253.336    -8327757.549 7  -6470692.12944  23893253.205    23893261.7724
  23474326.512    15589190.535 7  12139920.97045  23474325.933    23474334.5164
  22152004.124     6298008.571 8   4905464.68547  22152004.056    22152009.5844
  24643078.148    -3906657.254 7  -3030531.38645  24643078.124    24643085.5174
  21452602.187   -15603001.152 9 -12145148.45747  21452601.703    21452608.2844
  22308757.790   -10801044.755 8  -8163324.35546  22308756.850    22308763.3734
  20184020.272    -9201673.323 9  -7159996.64048  20184020.084    20184025.2944
 99  8 18  0 25 30.0000000  0  8 01 18 15 25 04 16 22 14
  20979996.018     2440892.672 9   1900138.52947  20979995.692    20980001.2474
  23876158.891    -8417587.462 7  -6540689.45044  23876158.879    23876167.5084
  23495565.754    15700804.133 8  12226892.47345  23495565.368    23495574.0754
  22165909.476     6371081.030 8   4962404.21647  22165909.450    22165914.7314
  24630011.846    -3975319.596 7  -3084034.51145  24630012.077    24630019.3694
  21439470.040   -15672010.783 9 -12198922.18847  21439469.514    21439475.9364
  22296003.875   -10868065.032 8  -8215547.89746  22296003.039    22296009.9724
  20182238.816    -9211034.713 9  -7167291.22948  20182238.687    20182243.8914
 99  8 18  0 26  0.0000000  0  8 01 18 15 25 04 16 22 14
  20987493.034     2480290.083 9   1930837.79047  20987492.741    20987498.3364
  23859077.365    -8507352.628 7  -6610636.19044  23859077.523    23859085.7644
  23516824.856    15812520.940 8  12313944.38545  23516824.481    23516833.3244
  22179866.867     6444426.414 8   5019556.41447  22179866.778    22179871.9404
  24617029.978    -4043539.640 8  -3137192.96145  24617030.214    24617037.6104
  21426403.878   -15740674.005 9 -12252425.98147  21426403.380    21426409.5974
  22283337.551   -10934626.975 8  -8267414.31746  22283336.736    22283343.4634
  20180554.872    -9219884.016 9  -7174186.78648  20180554.743    20180559.9164
 99  8 18  0 26 30.0000000  0  8 01 18 15 25 04 16 22 14
  20995034.190     2519918.661 9   1961717.17747  20995033.860    20995039.4114
  23842008.522    -8597051.983 7  -6680531.71145  23842008.411    23842016.7244
  23538103.814    15924341.920 8  12401077.45345  23538103.460    23538112.4554
  22193873.602     6518031.884 8   5076911.28347  22193873.461    22193878.5954
  24604130.782    -4111326.133 8  -3190013.57245  24604130.934    24604137.9004
  21413406.594   -15808976.216 9 -12305648.46147  21413406.037    21413412.2014
  22270760.074   -11000721.252 8  -8318916.33246  22270759.394    22270765.9664
  20178969.463    -9228215.424 9  -7180678.79448  20178969.321    20178974.4684
 99  8 18  0 27  0.0000000  0  8 01 18 15 25 04 16 22 14
  21002623.772     2559800.604 9   1992793.98947  21002623.276    21002628.7784
  23824952.947    -8686680.393 7  -6750372.00245  23824952.808    23824961.1164
  23559404.174    16036274.174 8  12488297.23745  23559403.643    23559412.5984
  22207931.063     6591903.454 8   5134473.50347  22207930.859    22207935.9554
  24591315.231    -4178672.564 8  -3242491.29545  24591315.347    24591322.5854
  21400478.460   -15876914.352 9 -12358587.25147  21400477.848    21400484.0874
  22258271.424   -11066349.285 8  -8370055.02646  22258270.670    22258277.2754
  20177482.575    -9236028.684 9  -7186767.05448  20177482.480    20177487.6734
 99  8 18  0 27 30.0000000  0  8 01 18 15 25 04 16 22 14
  21010265.328     2599957.555 9   2024085.09747  21010264.886    21010270.3974
  23807912.114    -8776230.454 7  -6820151.23745  23807911.996    23807920.0734
  23580725.972    16148320.891 7  12575606.23245  23580725.464    23580734.4834
  22222040.200     6666047.332 8   5192247.90647  22222040.022    22222045.1824
  24578584.109    -4245573.311 8  -3294621.77145  24578584.340    24578592.2334
  21387615.725   -15944507.621 8 -12411257.32347  21387615.152    21387621.4784
  22245873.458   -11131501.908 8  -8420823.27446  22245872.642    22245879.2624
  20176093.218    -9243329.936 9  -7192456.34848  20176093.091    20176098.3564
 99  8 18  0 28  0.0000000  0  8 01 18 15 25 04 16 22 14
  21017955.976     2640372.592 9   2055577.31847  21017955.572    21017961.1544
  23790885.955    -8865701.210 7  -6889868.61145  23790885.793    23790894.3174
  23602067.032    16260468.638 7  12662993.95745  23602066.540    23602075.5694
  22236204.577     6740481.135 8   5250248.21947  22236204.396    22236209.4084
  24565937.410    -4312033.553 7  -3346408.94145  24565937.437    24565945.6034
  21374814.477   -16011777.657 8 -12463675.50947  21374813.965    21374820.3694
  22233566.108   -11196178.473 8  -8471220.57746  22233565.302    22233571.9004
  20174800.680    -9250122.437 9  -7197749.21348  20174800.566    20174805.8194
 99  8 18  0 28 30.0000000  0  8 01 18 15 25 04 16 22 14
  21025694.197     2681037.346 9   2087264.11547  21025693.845    21025699.3864
  23773875.682    -8955091.339 7  -6959523.18845  23773875.529    23773883.9724
  23623425.184    16372707.307 7  12750452.49245  23623424.703    23623433.9154
  22250427.071     6815221.674 8   5308487.55047  22250426.960    22250432.0894
  24553371.649    -4378063.612 7  -3397860.93345  24553371.915    24553380.0254
  21362070.933   -16078745.206 9 -12515857.98547  21362070.466    21362076.8194
  22221346.311   -11260392.985 8  -8521257.82246  22221345.583    22221352.3344
  20173604.930    -9256406.242 9  -7202645.69648  20173604.824    20173610.0484
 99  8 18  0 29  0.0000000  0  8 01 18 15 25 04 16 22 14
  21033478.352     2721942.833 9   2119138.49947  21033477.976    21033483.4454
  23756881.910    -9044394.427 8  -7029109.98445  23756881.802    23756890.0114
  23644800.429    16485033.553 7  12837979.29445  23644799.875    23644808.9434
  22264706.856     6890262.625 8   5366960.96847  22264706.754    22264711.9964
  24540889.109    -4443659.366 8  -3448974.49945  24540889.644    24540897.5574
  21349384.374   -16145414.459 9 -12567808.03347  21349383.869    21349390.1124
  22209214.668   -11324144.785 8  -8570934.51846  22209213.892    22209220.8304
  20172505.810    -9262182.337 9  -7207146.55948  20172505.715    20172510.9304
 99  8 18  0 29 30.0000000  0  8 01 18 15 25 04 16 22 14
  21041303.401     2763063.527 9   2151180.57947  21041303.019    21041308.4824
  23739905.329    -9133607.847 8  -7098626.85745  23739905.246    23739912.9254
  23666190.063    16597435.219 7  12925564.86245  23666189.388    23666198.3124
  22279041.007     6965589.920 8   5425657.52947  22279041.041    22279046.3974
  24528490.560    -4508818.999 7  -3499748.13945  24528490.599    24528498.1524
  21336755.129   -16211781.038 9 -12619522.22147  21336754.623    21336761.0154
  22197171.848   -11387430.365 8  -8620247.93846  22197171.128    22197177.7814
  20171503.222    -9267451.155 9  -7211252.13848  20171503.079    20171508.3244
 99  8 18  0 30  0.0000000  0  8 01 18 15 25 04 16 22 14
  21049168.334     2804394.691 9   2183386.65847  21049168.044    21049173.5424
  23722945.082    -9222731.610 8  -7168073.92445  23722945.018    23722953.2074
  23687593.466    16709911.632 7  13013208.67045  23687592.890    23687602.0644
  22293426.504     7041184.651 8   5484562.45847  22293426.432    22293431.7664
  24516174.961    -4573535.788 7  -3550176.78045  24516175.225    24516182.7064
  21324187.366   -16277823.947 8 -12670984.21547  21324186.913    21324193.4184
  22185217.297   -11450252.458 8  -8669200.18446  22185216.545    22185223.0144
  20170597.979    -9272208.299 9  -7214959.01048  20170597.826    20170603.0324
 99  8 18  0 30 30.0000000  0  8 01 18 15 25 04 16 22 14
  21057076.661     2845952.944 9   2215769.69247  21057076.319    21057081.8934
  23706002.848    -9311765.910 8  -7237451.23545  23706002.635    23706010.1514
  23709012.305    16822469.786 7  13100916.19545  23709011.834    23709021.3294
  22307857.856     7117021.818 8   5543656.31247  22307857.801    22307863.1984
  24503944.030    -4637807.871 7  -3600258.86745  24503944.283    24503951.9724
  21311687.804   -16343509.723 9 -12722167.91647  21311687.356    21311693.6834
  22173350.327   -11512611.712 8  -8717791.78846  22173349.800    22173356.2764
  20169789.242    -9276458.187 9  -7218270.62348  20169789.085    20169794.2524
 99  8 18  0 31  0.0000000  0  8 01 18 15 25 04 16 22 14
  21065026.042     2887726.766 9   2248320.69647  21065025.696    21065031.1824
  23689079.510    -9400698.920 7  -7306749.62745  23689079.172    23689086.7274
  23730446.536    16935106.609 7  13188684.97845  23730445.954    23730455.4264
  22322334.494     7193096.241 8   5602935.01747  22322334.349    22322339.7464
  24491799.282    -4701628.783 7  -3649989.43345  24491799.808    24491807.4914
  21299260.022   -16408819.074 9 -12773058.27547  21299259.539    21299265.6914
  22161573.138   -11574501.885 8  -8766017.88246  22161572.452    22161578.7694
  20169075.621    -9280208.171 9  -7221192.69248  20169075.500    20169080.6764
 99  8 18  0 31 30.0000000  0  8 01 18 15 25 04 16 22 14
  21073015.089     2929709.186 9   2281034.25147  21073014.705    21073020.2134
  23672174.337    -9489535.440 7  -7375972.84945  23672174.065    23672181.6684
  23751894.003    17047813.398 7  13276508.27745  23751893.506    23751903.0744
  22336856.427     7269410.202 8   5662400.39447  22336856.386    22336861.9034
  24479740.293    -4765000.407 7  -3699369.85145  24479740.769    24479748.4104
  21286902.156   -16473760.368 9 -12823661.85647  21286901.625    21286907.7934
  22149885.037   -11635922.910 8  -8813878.37346  22149884.345    22149890.8164
  20168456.877    -9283460.048 9  -7223726.63448  20168456.718    20168461.8854
 99  8 18  0 32  0.0000000  0  8 01 18 15 25 04 16 22 14
  21081044.589     2971904.050 9   2313913.33147  21081044.217    21081049.6054
  23655284.505    -9578292.374 8  -7445134.03745  23655284.287    23655291.8534
  23773353.512    17160583.338 7  13364380.81845  23773353.039    23773362.6904
  22351427.202     7345979.480 8   5722064.69747  22351427.099    22351432.6234
  24467765.605    -4827925.611 8  -3748402.45345  24467766.168    24467774.0664
  21274613.870   -16538334.864 9 -12873979.63047  21274613.422    21274619.6854
  22138286.582   -11696873.084 8  -8861371.99046  22138285.844    22138292.4534
  20167931.521    -9286220.731 9  -7225877.82948  20167931.382    20167936.5284
 99  8 18  0 32 30.0000000  0  8 01 18 15 25 04 16 22 14
  21089112.742     3014302.851 9   2346951.33347  21089112.401    21089117.8824
  23638407.727    -9666980.869 8  -7514241.88945  23638407.292    23638414.7054
  23794821.867    17273398.528 7  13452288.58245  23794821.318    23794830.9594
  22366048.413     7422814.410 8   5781936.02946  22366048.317    22366053.8774
  24455872.949    -4890424.407 7  -3797102.74645  24455873.340    24455880.6364
  21262394.314   -16602549.077 9 -12924016.67847  21262393.901    21262400.0264
  22126778.620   -11757348.841 8  -8908495.94546  22126777.850    22126784.2824
  20167499.883    -9288488.628 9  -7227645.03048  20167499.790    20167504.9554
 99  8 18  0 33  0.0000000  0  8 01 18 15 25 04 16 22 14
  21097220.657     3056909.990 9   2380151.68047  21097220.298    21097225.8724
  23621544.277    -9755597.197 8  -7583293.50145  23621544.005    23621551.6964
  23816297.732    17386254.946 7  13540228.50445  23816297.290    23816306.9944
  22380722.758     7499928.642 8   5842024.97146  22380722.658    22380728.2114
  24444062.492    -4952488.803 7  -3845464.55045  24444062.739    24444070.0454
  21250239.918   -16666421.226 9 -12973787.15847  21250239.495    21250245.6014
  22115363.184   -11817337.636 8  -8955240.43046  22115362.374    22115368.8644
  20167163.450    -9290256.876 9  -7229022.90148  20167163.313    20167168.4844
 99  8 18  0 33 30.0000000  0  8 01 18 15 25 04 16 22 14
  21105371.569     3099742.785 9   2413527.85447  21105371.185    21105376.6624
  23604690.469    -9844164.763 8  -7652307.11845  23604690.193    23604698.0084
  23837781.322    17499151.097 7  13628199.34845  23837780.787    23837790.4124
  22395449.290     7577316.035 8   5902326.78546  22395449.073    22395454.6014
  24432335.356    -5014114.548 7  -3893484.58245  24432335.606    24432343.1274
  21238150.436   -16729952.213 9 -13023291.81247  21238150.015    21238156.1344
  22104040.684   -11876836.629 8  -9001603.26546  22104040.081    22104046.5834
  20166922.117    -9291525.091 9  -7230011.13248  20166922.010    20166927.1994
 99  8 18  0 34  0.0000000  0  8 01 18 15 25 04 16 22 14
  21113564.971     3142799.282 9   2447078.34847  21113564.593    21113570.1524
  23587845.924    -9932682.914 8  -7721282.23645  23587845.714    23587853.3464
  23859272.221    17612085.841 7  13716200.28045  23859271.699    23859281.3424
  22410225.261     7654964.764 8   5962832.25546  22410225.064    22410230.7244
  24420694.171    -5075288.748 7  -3941152.76045  24420694.524    24420702.5764
  21226128.336   -16793128.418 9 -13072520.01047  21226127.888    21226134.1094
  22092814.248   -11935833.181 8  -9047574.56546  22092813.413    22092819.9984
  20166776.086    -9292292.114 9  -7230608.81748  20166776.001    20166781.2274
 99  8 18  0 34 30.0000000  0  8 01 18 15 25 04 16 22 14
  21121801.127     3186080.289 9   2480803.77447  21121800.732    21121806.2104
  23571014.934   -10021131.781 8  -7790203.37845  23571014.666    23571022.0084
  23880771.712    17725065.234 7  13804236.00845  23880771.145    23880780.6714
  22425047.405     7732855.212 8   6023526.06446  22425047.203    22425052.7274
  24409140.212    -5136005.571 8  -3988464.56245  24409140.413    24409148.2254
  21214172.803   -16855954.308 9 -13121475.23547  21214172.414    21214178.7324
  22081683.724   -11994324.162 8  -9093151.90646  22081682.909    22081689.4184
  20166727.199    -9292548.893 9  -7230808.91048  20166727.125    20166732.3544
 99  8 18  0 35  0.0000000  0  8 01 18 15 25 04 16 22 14
  21130079.415     3229582.990 9   2514701.95947  21130079.010    21130084.5364
  23554199.925   -10109494.944 8  -7859057.71746  23554199.607    23554207.1974
  23902280.238    17838092.413 7  13892308.97945  23902279.755    23902289.0534
  22439914.425     7810981.585 8   6084403.70146  22439914.280    22439919.6024
  24397677.098    -5196244.365 7  -4035403.85145  24397677.280    24397684.7864
  21202284.904   -16918426.315 9 -13170154.70347  21202284.504    21202290.6794
  22070647.614   -12052318.521 8  -9138342.30546  22070646.989    22070653.3784
  20166773.620    -9292305.242 9  -7230619.05448  20166773.513    20166778.7424
 99  8 18  0 35 30.0000000  0  8 01 18 15 25 04 16 22 14
  21138398.510     3273299.540 9   2548766.77247  21138398.051    21138403.5464
  23537400.396   -10197774.935 8  -7927847.24045  23537400.197    23537407.7564
  23923796.347    17951158.392 7  13980412.17445  23923795.880    23923804.9004
  22454825.107     7889336.866 8   6145459.70246  22454824.918    22454830.1084
  24386303.712    -5256012.152 7  -4081976.14345  24386303.922    24386311.5314
  21190466.919   -16980530.861 9 -13218547.84347  21190466.445    21190472.5504
  22059703.105   -12109832.391 8  -9183158.29146  22059702.385    22059708.6774
  20166915.407    -9291560.297 9  -7230038.58248  20166915.275    20166920.4944
 99  8 18  0 36  0.0000000  0  8 01 18 15 25 04 16 22 14
  21146757.335     3317225.145 9   2582994.48847  21146756.875    21146762.3004
  23520620.378   -10285955.558 8  -7996559.36246  23520620.223    23520627.4104
  23945320.136    18064265.864 7  14068547.72645  23945319.610    23945328.7664
  22469779.676     7967924.105 8   6206696.46146  22469779.446    22469784.8574
  24375020.383    -5315306.463 7  -4128179.48745  24375020.695    24375028.2174
  21178718.844   -17042267.515 9 -13266654.31847  21178718.358    21178724.5094
  22048848.928   -12166871.943 8  -9227604.65546  22048848.080    22048854.3414
  20167156.795    -9290291.831 9  -7229050.17148  20167156.658    20167161.9064
 99  8 18  0 36 30.0000000  0  8 01 18 15 25 04 16 22 14
  21155159.833     3361380.555 9   2617401.28247  21155159.378    21155164.8984
  23503861.283   -10374026.220 8  -8065185.82146  23503860.956    23503868.2174
  23966851.912    18177415.486 8  14156716.10145  23966851.483    23966860.4834
  22484780.754     8046756.104 8   6268123.94346  22484780.600    22484786.4014
  24363825.106    -5374135.500 7  -4174020.30345  24363825.555    24363833.4364
  21167041.089   -17103634.558 9 -13314472.77547  21167040.653    21167046.7934
  22038083.964   -12223441.244 8  -9271684.59146  22038083.292    22038089.7364
  20167499.311    -9288491.860 9  -7227647.60548  20167499.191    20167504.4784
 99  8 18  0 37  0.0000000  0  8 01 18 15 25 04 16 22 14
  21163608.645     3405779.663 9   2651997.96147  21163608.239    21163613.7794
  23487123.113   -10461985.500 8  -8133725.45945  23487122.803    23487130.0524
  23988391.333    18290604.926 7  14244915.50545  23988390.843    23988399.9604
  22499830.090     8125839.624 8   6329747.41246  22499829.891    22499835.7374
  24352720.785    -5432490.736 7  -4219491.91145  24352721.041    24352728.8474
  21155436.855   -17164615.507 9 -13361990.38347  21155436.386    21155442.4644
  22027409.771   -12279534.366 8  -9315393.49446  22027409.102    22027415.6224
  20167944.144    -9286154.557 9  -7225826.34448  20167943.983    20167949.2794
 99  8 18  0 37 30.0000000  0  8 01 18 15 25 04 16 22 14
  21172104.460     3450425.808 9   2686787.14347  21172104.107    21172109.7024
  23470405.123   -10549839.684 8  -8202183.19545  23470404.846    23470411.8804
  24009938.746    18403837.841 8  14333148.80545  24009938.275    24009947.7574
  22514927.293     8205175.138 8   6391567.23046  22514927.140    22514932.6984
  24341707.082    -5490368.867 7  -4264591.72645  24341707.057    24341714.9644
  21143906.187   -17225208.329 9 -13409205.54647  21143905.779    21143912.0104
  22016830.166   -12335130.581 8  -9358715.18746  22016829.486    22016835.9434
  20168493.988    -9283265.167 9  -7223574.87548  20168493.842    20168499.1384
 99  8 18  0 38  0.0000000  0  8 01 18 15 25 04 16 22 14
  21180646.598     3495315.073 9   2721765.76647  21180646.254    21180651.8784
  23453707.984   -10637582.633 8  -8270554.30645  23453707.796    23453714.9274
  24031495.170    18517115.540 8  14421416.96945  24031494.612    24031503.8444
  22530072.760     8284764.479 8   6453584.84046  22530072.595    22530077.8964
  24330784.939    -5547762.851 7  -4309314.29745  24330785.178    24330793.3234
  21132449.507   -17285413.345 9 -13456118.54547  21132449.140    21132455.3334
  22006349.420   -12390206.392 8  -9401631.39046  22006348.871    22006355.2714
  20169148.890    -9279823.787 9  -7220893.29348  20169148.719    20169153.9874
 99  8 18  0 38 30.0000000  0  8 01 18 15 25 04 16 22 14
  21189234.495     3540444.521 9   2756931.54347  21189234.138    21189239.7224
  23437031.390   -10725218.443 8  -8338841.90545  23437031.181    23437038.3114
  24053057.540    18630426.916 8  14509711.38445  24053057.045    24053066.5124
  22545266.239     8364607.588 8   6515800.19846  22545266.078    22545271.4744
  24319953.965    -5604680.673 7  -4353665.81845  24319954.176    24319961.8794
  21121066.633   -17345231.972 9 -13502730.44047  21121066.180    21121072.2034
  21995970.978   -12444746.980 8  -9444130.51846  21995970.186    21995976.4194
  20169903.093    -9275860.177 9  -7217804.78348  20169902.967    20169908.2574
 99  8 18  0 39  0.0000000  0  8 01 18 15 25 04 16 22 14
  21197863.613     3585790.736 9   2792266.23447  21197863.205    21197868.8434
  23420371.165   -10812769.939 8  -8407063.76145  23420370.874    23420377.7924
  24074625.312    18743764.060 8  14598025.84945  24074624.693    24074634.0144
  22560505.891     8444693.273 8   6578204.57946  22560505.747    22560511.3064
  24309213.061    -5661123.846 7  -4397647.49745  24309213.311    24309221.1454
  21109755.874   -17404671.077 9 -13549046.59647  21109755.381    21109761.4214
  21985693.539   -12498755.490 8  -9486215.03946  21985692.662    21985698.9854
  20170754.072    -9271388.341 9  -7214320.24748  20170753.948    20170759.1934
 99  8 18  0 39 30.0000000  0  8 01 18 15 25 04 16 22 14
  21206529.884     3631332.867 9   2827753.59347  21206529.595    21206535.2174
  23403722.737   -10900257.012 8  -8475235.46045  23403722.420    23403729.5634
  24096196.129    18857118.760 8  14686354.02645  24096195.571    24096204.8384
  22575792.114     8525022.953 8   6640799.08646  22575792.044    22575797.6454
  24298560.024    -5717107.207 7  -4441270.84445  24298560.117    24298567.8374
  21098514.998   -17463741.040 9 -13595075.14447  21098514.563    21098520.7274
  21975517.773   -12552228.105 8  -9527881.98946  21975517.026    21975523.3634
  20171700.194    -9266416.482 9  -7210446.08248  20171700.053    20171705.3454
 99  8 18  0 40  0.0000000  0  8 01 18 15 25 04 16 22 14
  21215233.177     3677069.005 9   2863392.11947  21215232.870    21215238.5804
  23387086.108   -10987683.394 8  -8543359.84546  23387085.768    23387093.1754
  24117768.973    18970483.709 8  14774690.18145  24117768.446    24117777.7544
  22591123.667     8605590.482 8   6703578.92346  22591123.690    22591129.2184
  24287993.221    -5772636.291 7  -4484540.24345  24287993.152    24288001.3404
  21087344.766   -17522440.274 9 -13640814.80147  21087344.405    21087350.5994
  21965442.835   -12605171.959 8  -9569136.90146  21965441.962    21965448.5594
  20172741.142    -9260946.488 9  -7206183.76048  20172741.032    20172746.2924
 99  8 18  0 40 30.0000000  0  8 01 18 15 25 04 16 22 14
  21223974.983     3723007.320 9   2899188.18147  21223974.668    21223980.3764
  23370458.843   -11075058.934 8  -8611444.62446  23370458.459    23370466.2384
  24139343.605    19083858.227 8  14863033.76945  24139343.011    24139352.4374
  22606498.468     8686386.161 8   6766536.55046  22606498.527    22606504.2544
  24277513.131    -5827708.793 7  -4527453.87145  24277513.207    24277521.1334
  21076246.176   -17580764.657 9 -13686262.34447  21076245.778    21076251.8644
  21955466.830   -12657594.636 8  -9609985.71946  21955466.167    21955472.7554
  20173876.967    -9254977.864 9  -7201532.88948  20173876.856    20173882.1124
 99  8 18  0 41  0.0000000  0  8 01 18 15 25 04 16 22 14
  21232755.389     3769148.967 9   2935142.69547  21232755.119    21232760.8604
  23353842.874   -11162375.125 8  -8679483.17346  23353842.631    23353850.0504
  24160920.707    19197245.868 7  14951387.56845  24160920.143    24160929.5044
  22621914.690     8767399.941 8   6829664.12246  22621914.835    22621920.7524
  24267122.669    -5882310.746 8  -4570000.84645  24267122.870    24267130.7764
  21065220.971   -17638702.894 9 -13731409.00847  21065220.511    21065226.5514
  21945591.441   -12709490.625 8  -9650424.11446  21945590.763    21945597.3214
  20175113.170    -9248481.283 9  -7196470.62848  20175113.110    20175118.4114
 99  8 18  0 41 30.0000000  0  8 01 18 15 25 04 16 22 14
  21241575.819     3815500.276 9   2971260.57047  21241575.543    21241581.2564
  23337242.877   -11249608.447 8  -8747457.14246  23337242.683    23337249.8444
  24182499.837    19310644.289 7  15039749.78945  24182499.175    24182508.6334
  22637371.750     8848626.126 8   6892957.19746  22637371.843    22637377.6654
  24256824.332    -5936430.478 7  -4612172.06845  24256824.250    24256832.2714
  21054269.823   -17696250.790 9 -13776251.52147  21054269.313    21054275.5134
  21935818.209   -12760850.126 8  -9690444.47646  21935817.469    21935823.9624
  20176452.462    -9241443.566 9  -7190986.70248  20176452.363    20176457.6844
 99  8 18  0 42  0.0000000  0  8 01 18 15 25 04 16 22 14
  21250440.426     3862083.953 9   3007559.51347  21250440.166    21250445.8564
  23320663.997   -11336731.360 8  -8815345.06146  23320663.721    23320670.9334
  24204080.871    19424055.023 7  15128121.62045  24204080.484    24204090.0174
  22652866.221     8930049.259 8   6956403.74846  22652866.317    22652871.9814
  24246621.293    -5990048.863 7  -4653952.64945  24246621.164    24246629.0764
  21043393.829   -17753404.209 9 -13820786.63847  21043393.381    21043399.5094
  21926147.604   -12811669.219 8  -9730043.73746  21926146.985    21926153.3784
  20177895.459    -9233860.807 9  -7185078.06948  20177895.344    20177900.6574
 99  8 18  0 42 30.0000000  0  8 01 18 15 25 04 16 22 14
  21259349.015     3908899.135 9   3044038.85547  21259348.769    21259354.4844
  23304108.384   -11423731.536 8  -8883137.33746  23304108.182    23304115.3414
  24225664.463    19537473.488 7  15216499.39845  24225663.512    24225673.1004
  22668396.766     9011661.999 8   7019998.01646  22668396.825    22668402.2594
  24236515.217    -6043155.025 7  -4695334.08645  24236515.190    24236522.7084
  21032592.518   -17810167.583 9 -13865017.80747  21032591.939    21032597.7824
  21916580.563   -12861944.948 8  -9769219.61146  21916579.868    21916586.0464
  20179440.713    -9225740.640 9  -7178750.67548  20179440.564    20179445.8814
 99  8 18  0 43  0.0000000  0  8 01 18 15 25 04 16 22 14
  21268299.698     3955934.845 9   3080690.03547  21268299.403    21268305.0614
  23287577.100   -11510604.097 8  -8950830.13246  23287576.916    23287584.0964
  24247246.518    19650890.214 7  15304875.86445  24247246.190    24247255.8644
  22683964.671     9093471.716 8   7083745.78746  22683964.599    22683970.0634
  24226506.914    -6095747.673 7  -4736315.39145  24226507.167    24226514.8914
  21021864.207   -17866545.137 9 -13908948.34747  21021863.607    21021869.4704
  21907115.750   -12911682.462 8  -9807976.09846  21907115.110    21907121.2074
  20181087.396    -9217087.201 9  -7172007.74648  20181087.264    20181092.5934
 99  8 18  0 43 30.0000000  0  8 01 18 15 25 04 16 22 14
  21277291.866     4003189.025 9   3117511.45247  21277291.617    21277297.2814
  23271068.402   -11597359.589 8  -9018431.75246  23271068.055    23271075.1654
  24268826.688    19764294.166 7  15393242.32645  24268826.410    24268836.1144
  22699571.133     9175485.546 8   7147652.62746  22699571.124    22699576.9804
  24216595.396    -6147835.849 8  -4776903.51345  24216595.320    24216603.0644
  21011209.504   -17922534.373 9 -13952576.32747  21011208.983    21011215.1054
  21897750.682   -12960896.224 8  -9846324.46646  21897750.013    21897756.1344
  20182831.171    -9207923.873 9  -7164867.49748  20182831.037    20182836.3414
 99  8 18  0 44  0.0000000  0  8 01 18 15 25 04 16 22 14
  21286326.239     4050664.161 9   3154505.04647  21286325.903    21286331.5554
  23254577.142   -11684021.187 8  -9085960.17346  23254576.752    23254583.6754
  24290403.300    19877679.047 7  15481593.94245  24290402.864    24290412.5104
  22715217.364     9257707.208 8   7211721.41846  22715217.382    22715223.5794
  24206776.753    -6199430.661 7  -4817107.26645  24206776.737    24206784.7654
  21000630.629   -17978126.864 9 -13995895.13747  21000630.166    21000636.1744
  21888483.810   -13009593.614 8  -9884270.43646  21888483.089    21888489.4764
  20184669.151    -9198265.018 9  -7157341.12848  20184669.024    20184674.3294
 99  8 18  0 44 30.0000000  0  8 01 18 15 25 04 16 22 14
  21295399.163     4098342.040 9   3191656.61847  21295398.782    21295404.4084
  23238099.468   -11770611.643 8  -9153433.19046  23238099.208    23238105.9804
  24311975.428    19991040.499 7  15569927.33045  24311975.090    24311984.5394
  22730907.743     9340158.773 8   7275969.33146  22730907.679    22730913.7974
  24197048.342    -6250553.350 8  -4856943.08645  24197048.661    24197056.1654
  20990130.528   -18033306.267 9 -14038892.04747  20990129.985    20990135.7234
  21879316.176   -13057770.428 8  -9921810.79546  21879315.425    21879321.8234
  20186602.174    -9188107.137 9  -7149425.90648  20186602.036    20186607.2974
 99  8 18  0 45  0.0000000  0  8 01 18 15 25 04 16 22 14
  21304512.687     4146233.834 9   3228974.87947  21304512.323    21304517.8764
  23221634.554   -11857133.445 8  -9220852.73045  23221634.308    23221641.1244
  24333543.105    20104377.778 7  15658241.90245  24333542.548    24333552.1694
  22746641.858     9422842.085 8   7340397.82946  22746641.888    22746647.8514
  24187407.497    -6301219.785 7  -4896423.35745  24187407.337    24187415.0434
  20979711.534   -18088057.817 9 -14081555.57347  20979710.999    20979716.7584
  21870249.048   -13105419.625 8  -9958940.02546  21870248.202    21870254.4564
  20188632.253    -9177438.833 9  -7141112.95248  20188632.111    20188637.3714
 99  8 18  0 45 30.0000000  0  8 01 18 15 25 04 16 22 14
  21313669.745     4194354.835 9   3266471.74647  21313669.414    21313674.9774
  23205186.836   -11943567.219 8  -9288203.66446  23205186.564    23205193.3604
  24355108.608    20217704.793 8  15746548.50545  24355107.950    24355117.6484
  22762418.725     9505750.849 8   7405002.01046  22762418.855    22762424.6884
  24177855.244    -6351412.079 7  -4935534.26445  24177855.568    24177863.7134
  20969377.133   -18142364.810 9 -14123872.71247  20969376.702    20969382.5574
  21861287.528   -13152511.073 8  -9995634.62746  21861286.916    21861293.1454
  20190763.710    -9166237.792 9  -7132384.88048  20190763.605    20190768.8614
 99  8 18  0 46  0.0000000  0  8 01 18 15 25 04 16 22 14
  21322868.195     4242692.398 9   3304137.34947  21322867.776    21322873.2734
  23188756.760   -12029907.202 8  -9355481.55946  23188756.379    23188763.3214
  24376671.903    20331018.016 7  15834844.36945  24376671.001    24376680.5094
  22778234.603     9588863.191 8   7469764.81046  22778234.586    22778240.3874
  24168395.412    -6401126.048 8  -4974272.38345  24168395.338    24168403.3124
  20959123.875   -18196246.378 9 -14165858.33848  20959123.431    20959129.3784
  21852435.287   -13199029.699 8 -10031882.89046  21852434.654    21852440.9384
  20192999.116    -9154490.629 9  -7123231.25248  20192998.988    20193004.2434
 99  8 18  0 46 30.0000000  0  8 01 18 15 25 04 16 22 14
  21332106.379     4291239.746 9   3341966.42947  21332106.030    21332111.5394
  23172348.444   -12116132.550 8  -9422670.07646  23172348.177    23172355.1584
  24398231.936    20444318.007 8  15923129.94045  24398231.365    24398240.8754
  22794087.459     9672171.480 8   7534680.31546  22794087.591    22794093.4544
  24159030.258    -6450340.827 7  -5012621.50045  24159030.053    24159038.0904
  20948950.851   -18249705.850 9 -14207515.05547  20948950.374    20948956.3614
  21843694.410   -13244963.567 8 -10067675.50246  21843693.755    21843699.8874
  20195339.807    -9142190.357 9  -7113646.62748  20195339.667    20195344.9304
 99  8 18  0 47  0.0000000  0  8 01 18 15 25 04 16 22 14
  21341384.717     4339997.560 9   3379959.51347  21341384.307    21341389.8754
  23155964.372   -12202231.419 8  -9489760.04746  23155964.090    23155971.2774
  24419789.334    20557600.130 8  16011401.51445  24419788.483    24419797.9854
  22809974.678     9755657.993 8   7599734.67846  22809974.853    22809980.5904
  24149763.654    -6499032.579 7  -5050563.17345  24149763.976    24149772.6604
  20938855.144   -18302758.192 9 -14248854.53847  20938854.663    20938860.8264
  21835062.873   -13290322.073 8 -10103019.77546  21835062.271    21835068.4534
  20197784.912    -9129340.971 9  -7103634.12848  20197784.804    20197790.1064
 99  8 18  0 47 30.0000000  0  8 01 18 15 25 04 16 22 14
  21350699.796     4388948.429 9   3418103.03047  21350699.389    21350704.9564
  23139602.403   -12288211.374 8  -9556757.32045  23139602.207    23139609.6944
  24441341.019    20670855.166 8  16099652.05845  24441340.213    24441349.9654
  22825897.014     9839328.641 8   7664932.52646  22825897.060    22825902.6794
  24140599.816    -6547190.703 7  -5088088.94045  24140600.130    24140608.0024
  20928835.202   -18355413.115 9 -14289884.34047  20928834.769    20928840.9534
  21826539.914   -13335110.738 8 -10137920.01446  21826539.281    21826545.3844
  20200331.732    -9115957.555 9  -7093205.49948  20200331.611    20200336.8804
 99  8 18  0 48  0.0000000  0  8 01 18 15 25 04 16 22 14
  21360052.204     4438095.611 9   3456399.50847  21360051.804    21360057.4314
  23123260.814   -12374087.107 8  -9623673.39246  23123260.639    23123268.1354
  24462885.750    20784072.918 7  16187873.52345  24462884.857    24462894.9114
  22841855.471     9923191.886 8   7730280.44846  22841855.533    22841861.1534
  24131534.234    -6594830.702 7  -5125211.00245  24131534.478    24131542.5254
  20918891.427   -18407668.956 9 -14330603.16647  20918890.913    20918897.0314
  21818122.235   -13379346.282 8 -10172389.25046  21818121.539    21818127.7694
  20202976.000    -9102062.238 9  -7082377.98248  20202975.831    20202981.0794
 99  8 18  0 48 30.0000000  0  8 01 18 15 25 04 16 22 14
  21369443.452     4487447.086 9   3494855.17847  21369443.023    21369448.6924
  23106936.217   -12459873.780 8  -9690520.08745  23106936.011    23106943.2654
  24484421.818    20897245.179 8  16276059.49545  24484421.048    24484431.1204
  22857852.824    10007258.235 8   7795786.62046  22857852.867    22857858.4844
  24122564.083    -6641968.425 7  -5161941.69645  24122564.286    24122572.6044
  20909024.914   -18459517.808 9 -14371004.87047  20909024.354    20909030.5314
  21809806.022   -13423047.907 8 -10206442.44646  21809805.346    21809811.5644
  20205714.911    -9087669.128 9  -7071162.58348  20205714.765    20205720.0164
 99  8 18  0 49  0.0000000  0  8 01 18 15 25 04 16 22 14
  21378874.387     4537006.883 9   3533473.17847  21378873.973    21378879.6694
  23090627.532   -12545576.766 8  -9757301.56945  23090627.262    23090634.4114
  24505948.466    21010365.556 7  16364204.98545  24505947.674    24505957.3284
  22873888.402    10091524.466 8   7861448.56746  22873888.426    22873894.1694
  24113685.786    -6688623.202 7  -5198296.04545  24113685.933    24113694.3224
  20899235.296   -18510961.810 9 -14411091.10747  20899234.781    20899241.0254
  21801591.748   -13466214.438 8 -10240078.67046  21801590.953    21801597.2634
  20208549.468    -9072773.471 9  -7059555.58448  20208549.322    20208554.5614
 99  8 18  0 49 30.0000000  0  8 01 18 15 25 04 16 22 14
  21388346.176     4586781.663 9   3572258.70047  21388345.796    21388351.4754
  23074334.885   -12631195.002 8  -9824017.04546  23074334.660    23074341.5294
  24527465.551    21123438.405 7  16452313.48745  24527464.740    24527474.7414
  22889960.851    10175986.158 8   7927262.82646  22889960.940    22889966.8904
  24104899.755    -6734793.269 8  -5234272.68445  24104900.025    24104908.1524
  20889525.067   -18561989.495 9 -14450852.92847  20889524.643    20889530.6564
  21793483.502   -13508824.412 8 -10273281.20846  21793482.566    21793488.7554
  20211481.325    -9057366.749 9  -7047550.35948  20211481.153    20211486.4214
 99  8 18  0 50  0.0000000  0  8 01 18 15 25 04 16 22 14
  21397859.902     4636776.208 9   3611215.46547  21397859.510    21397865.1624
  23058059.495   -12716722.491 8  -9890661.73546  23058059.248    23058066.1284
  24548973.828    21236467.102 7  16540387.65245  24548973.021    24548983.8644
  22906068.668    10260632.773 8   7993221.16846  22906068.629    22906074.4704
  24096207.246    -6780474.099 8  -5269868.09345  24096207.352    24096215.4964
  20879894.833   -18612597.362 9 -14490287.61248  20879894.330    20879900.4074
  21785481.981   -13550871.291 8 -10306044.98446  21785481.245    21785487.3524
  20214513.488    -9041432.503 9  -7035134.07748  20214513.324    20214518.5954
 99  8 18  0 50 30.0000000  0  8 01 18 15 25 04 16 22 14
  21407411.891     4686972.028 9   3650329.06947  21407411.488    21407417.1234
  23041803.634   -12802147.562 8  -9957226.66346  23041803.411    23041810.4254
  24570474.778    21349454.429 7  16628429.48045  24570474.084    24570485.0054
  22922209.898    10345455.251 8   8059316.54846  22922209.894    22922215.5794
  24087610.957    -6825647.751 8  -5305068.33745  24087611.034    24087619.2314
  20870345.636   -18662777.947 9 -14529389.36847  20870345.151    20870351.4384
  21777588.745   -13592349.786 8 -10338365.87546  21777588.119    21777594.2594
  20217652.036    -9024939.023 9  -7022282.02948  20217651.951    20217657.2164
 99  8 18  0 51  0.0000000  0  7 01 18 25 04 16 22 14
  21417000.092     4737358.286 9   3689591.05047  21416999.719    21417005.3944
  23025568.449   -12887464.416 8 -10023707.26246  23025568.161    23025575.2124
  22938380.434    10430431.215 8   8125531.50846  22938380.409    22938386.0684
  24079112.902    -6870304.829 8  -5339866.04745  24079113.157    24079121.2024
  20860877.477   -18712533.970 9 -14568160.30347  20860876.995    20860883.0394
  21769804.094   -13633260.158 8 -10370244.05746  21769803.119    21769809.3114
  20220896.525    -9007888.921 9  -7008996.24948  20220896.455    20220901.7594
 99  8 18  0 51 30.0000000  0  7 01 18 25 04 16 22 14
  21426621.353     4787918.947 9   3728988.94847  21426621.009    21426626.8034
  23009351.557   -12972684.397 8 -10090112.36446  23009351.228    23009358.3744
  22954578.130    10515550.300 8   8191858.01246  22954577.986    22954583.8424
  24070714.485    -6914440.140 7  -5374257.16145  24070714.651    24070722.8164
  20851489.626   -18761868.287 9 -14606602.60247  20851489.055    20851494.9724
  21762123.213   -13673621.375 8 -10401694.32746  21762122.536    21762128.9604
  20224243.888    -8990298.345 9  -6995289.31948  20224243.807    20224249.1434
 99  8 18  0 52  0.0000000  0  7 01 18 25 04 16 22 14
  21436283.020     4838691.548 9   3768551.99247  21436282.720    21436288.5544
  22993161.069   -13057764.938 8 -10156408.81646  22993160.826    22993167.9384
  22970809.539    10600847.533 8   8258323.33646  22970809.350    22970815.4404
  24062418.132    -6958036.065 7  -5408228.00945  24062418.284    24062426.6524
  20842189.219   -18810741.411 9 -14644685.54647  20842188.693    20842194.7354
  21754549.433   -13713421.828 8 -10432707.64446  21754548.859    21754555.2084
  20227699.832    -8972137.573 9  -6981138.08848  20227699.735    20227705.1104
 99  8 18  0 52 30.0000000  0  8 01 18 19 25 04 16 22 14
  21445987.696     4889690.043 9   3808291.05347  21445987.392    21445993.3354
  22976998.865   -13142699.079 8 -10222591.20946  22976998.604    22977005.5684
  24763730.026                                    24763734.074    24763749.4704
  22987076.259    10686329.034 8   8324932.23046  22987076.108    22987082.1514
  24054225.301    -7001090.245 7  -5441776.65945  24054225.516    24054233.5394
  20832977.493   -18859148.420 9 -14682405.29447  20832977.040    20832983.2454
  21747083.292   -13752657.772 8 -10463281.07546  21747082.548    21747088.8234
  20231262.658    -8953414.898 9  -6966549.00048  20231262.568    20231267.9184
 99  8 18  0 53  0.0000000  0  7 01 18 25 04 16 22 14
  21455739.329     4940934.041 9   3848221.41047  21455738.931    21455744.7804
  22960863.503   -13227490.370 8 -10288662.31446  22960863.246    22960870.2654
  23003381.823    10772014.533 8   8391700.08746  23003381.660    23003387.5344
  24046133.985    -7043609.417 7  -5474908.45745  24046134.158    24046142.7724
  20823853.983   -18907092.734 9 -14719764.47948  20823853.556    20823859.7524
  21739726.795   -13791315.111 8 -10493403.66246  21739726.251    21739732.4904
  20234928.397    -8934151.161 9  -6951538.30348  20234928.311    20234933.6794
 99  8 18  0 53 30.0000000  0  8 01 18 19 25 04 16 22 14
  21465537.152     4992421.527 9   3888341.50647  21465536.688    21465542.5274
  22944752.954   -13312150.942 8 -10354631.49946  22944752.708    22944759.7844
  24725345.914    -1359185.43644                  24725345.350    24725352.6574
  23019728.335    10857915.611 8   8458635.92046  23019728.114    23019733.8624
  24038143.838    -7085596.859 7  -5507625.93045  24038144.158    24038152.7564
  20814817.690   -18954579.786 9 -14756767.36848  20814817.232    20814823.2394
  21732481.796   -13829388.591 8 -10523071.28946  21732481.066    21732487.2704
  20238695.815    -8914353.454 9  -6936111.53348  20238695.723    20238701.0964
 99  8 18  0 54  0.0000000  0  8 01 18 19 25 04 16 22 14
  21475382.095     5044156.191 9   3928654.19647  21475381.573    21475387.2784
  22928667.324   -13396681.187 8 -10420499.13446  22928666.974    22928674.2614
  24706189.476    -1866314.325 7  -1437622.42545  24706189.241    24706199.2054
  23036118.612    10944047.933 8   8525751.97746  23036118.457    23036124.3154
  24030255.665    -7127051.896 7  -5539928.45345  24030255.701    24030264.0054
  20805868.741   -19001606.356 9 -14793411.42947  20805868.267    20805874.3404
  21725350.865   -13866861.754 8 -10552271.13246  21725350.203    21725356.3434
  20242564.867    -8894021.850 9  -6920268.74048  20242564.754    20242570.0814
 99  8 18  0 54 30.0000000  0  8 01 18 19 25 04 16 22 14
  21485269.912     5096117.752 9   3969143.69547  21485269.487    21485275.2574
  22912603.018   -13481097.938 8 -10486278.37246  22912602.676    22912610.4184
  24687060.098    -1966838.623 7  -1515952.89345  24687060.743    24687069.5924
  23052551.032    11030400.055 8   8593039.28746  23052550.741    23052556.7064
  24022469.828    -7167964.716 7  -5571808.57445  24022470.070    24022478.8294
  20797005.812   -19048181.034 9 -14829703.37247  20797005.363    20797011.4734
  21718338.062   -13903714.733 8 -10580987.72746  21718337.338    21718343.5154
  20246533.676    -8873165.594 9  -6904017.11848  20246533.576    20246538.8714
 99  8 18  0 55  0.0000000  0  8 01 18 19 25 04 16 22 14
  21495190.941     5148253.389 9   4009768.83647  21495190.559    21495196.3154
  22896552.961   -13565440.866 8 -10552000.05746  22896552.666    22896560.3504
  24667948.256    -2067274.067 7  -1594214.11945  24667947.656    24667957.9654
  23069017.155    11116930.602 8   8660465.65546  23069016.962    23069023.0814
  24014781.589    -7208367.093 7  -5603290.91145  24014781.852    24014790.3604
  20788222.958   -19094335.761 9 -14865668.08848  20788222.513    20788228.5824
  21711436.210   -13939983.488 8 -10609249.06946  21711435.526    21711441.8544
  20250594.849    -8851823.855 9  -6887387.19448  20250594.745    20250600.0534
 99  8 18  0 55 30.0000000  0  8 01 18 19 25 04 16 22 14
  21505142.831     5200550.722 9   4050519.97747  21505142.439    21505148.2224
  22880516.710   -13649712.716 8 -10617666.36346  22880516.318    22880523.5924
  24648848.474    -2167641.169 7  -1672422.13145  24648847.768    24648858.3904
  23085510.751    11203604.876 8   8728003.99646  23085510.544    23085516.7644
  24007189.144    -7248265.023 7  -5634380.20245  24007189.408    24007197.9024
  20779519.604   -19140072.324 9 -14901306.96348  20779519.109    20779525.1704
  21704642.481   -13975685.376 8 -10637068.70146  21704641.749    21704648.0064
  20254748.080    -8829998.642 9  -6870380.54148  20254747.960    20254753.2434
 99  8 18  0 56  0.0000000  0  8 01 18 19 25 04 16 22 14
  21515128.111     5253023.501 9   4091407.83147  21515127.677    21515133.5124
  22864497.727   -13733894.359 8 -10683262.41346  22864497.388    22864504.2434
  24629762.953    -2267935.158 7  -1750573.12445  24629761.831    24629772.8504
  23102030.714    11290417.181 8   8795649.87146  23102030.487    23102036.5184
  23999692.648    -7287660.135 7  -5665077.63145  23999692.848    23999701.3224
  20770898.495   -19185375.481 9 -14936608.10147  20770898.067    20770904.2564
  21697957.251   -14010815.857 8 -10664443.09346  21697956.647    21697962.7704
  20258996.789    -8807671.774 9  -6852982.99148  20258996.639    20259001.9154
 99  8 18  0 56 30.0000000  0  8 01 18 19 25 04 16 22 14
  21525150.651     5305692.355 9   4132448.46247  21525150.229    21525156.0914
  22848499.344   -13817965.462 8 -10748772.33246  22848499.093    22848505.9514
  24610694.816    -2368136.669 7  -1828652.12345  24610694.241    24610705.2084
  23118575.092    11377358.018 8   8863395.88846  23118574.933    23118580.7604
  23992292.809    -7326545.619 7  -5695377.99345  23992293.091    23992301.4934
  20762361.805   -19230235.606 9 -14971564.02548  20762361.446    20762367.6244
  21691382.866   -14045362.490 8 -10691362.52546  21691382.429    21691388.7184
  20263345.484    -8784819.187 9  -6835175.78548  20263345.348    20263350.6614
 99  8 18  0 57  0.0000000  0  8 01 18 19 25 04 16 22 14
  21535214.427     5358577.396 9   4173657.55047  21535213.982    21535219.8404
  22832524.512   -13901914.183 8 -10814186.84146  22832524.213    22832531.0874
  24591648.620    -2468225.633 8  -1906643.40845  24591648.106    24591658.7284
  23135145.853    11464439.825 8   8931251.79946  23135145.942    23135151.9934
  23984990.414    -7364921.200 7  -5725280.96145  23984990.616    23984998.6234
  20753912.209   -19274638.809 9 -15006163.92448  20753911.796    20753918.0164
  21684920.845   -14079322.533 8 -10717824.86746  21684920.102    21684926.3034
  20267798.120    -8761420.724 9  -6816943.23448  20267797.946    20267803.2484
 99  8 18  0 57 30.0000000  0  8 01 18 19 25 04 16 22 14
  21545321.774     5411691.579 9   4215045.19547  21545321.344    21545327.1974
  22816572.764   -13985740.662 8 -10879506.12546  22816572.465    22816579.3264
  24572627.032    -2568184.954 7  -1984533.61445  24572626.495    24572636.5264
  23151743.956    11551662.755 8   8999217.66946  23151743.921    23151750.1244
  23977784.849    -7402786.832 8  -5754786.65145  23977784.995    23977793.1984
  20745549.571   -19318584.377 9 -15040407.21948  20745549.185    20745555.4674
  21678571.809   -14112687.526 8 -10743823.55246  21678571.038    21678577.1434
  20272357.733    -8737459.696 9  -6798272.31948  20272357.599    20272362.8364
 99  8 18  0 58  0.0000000  0  8 01 18 19 25 04 16 22 14
  21555471.623     5465029.279 9   4256607.00847  21555471.188    21555477.0544
  22800644.893   -14069442.018 8 -10944727.92246  22800644.612    22800651.2194
  24553632.648    -2668000.829 7  -2062312.05745  24553632.254    24553641.9794
  23168370.620    11639035.736 8   9067300.44246  23168370.541    23168376.8344
  23970678.829    -7440129.331 8  -5783884.69245  23970679.183    23970687.0094
  20737274.256   -19362071.762 9 -15074293.47848  20737273.874    20737280.0374
  21672338.875   -14145440.839 8 -10769345.59346  21672338.162    21672344.4394
  20277025.344    -8712931.252 9  -6779159.25848  20277025.247    20277030.4974
 99  8 18  0 58 30.0000000  0  8 01 18 19 25 04 16 22 14
  21565659.743     5518568.024 9   4298325.47547  21565659.355    21565665.1794
  22784737.640   -14153034.677 8 -11009865.02646  22784737.325    22784744.0694
  24534665.525    -2767673.910 7  -2139979.26245  24534665.116    24534674.8074
  23185025.036    11726553.621 8   9135496.12846  23185024.731    23185030.9704
  23963674.903    -7476936.514 7  -5812565.59445  23963675.094    23963682.6194
  20729085.082   -19405106.519 9 -15107827.04548  20729084.673    20729090.7384
  21666223.456   -14177578.041 8 -10794387.54446  21666222.606    21666228.8644
  20281798.804    -8687846.636 9  -6759612.82148  20281798.693    20281803.9464
 99  8 18  0 59  0.0000000  0  8 01 18 19 25 04 16 22 14
  21575885.241     5572303.388 9   4340197.15447  21575884.895    21575890.6784
  22768851.069   -14236519.218 8 -11074917.87646  22768850.782    22768857.6704
  24515721.332    -2867223.231 7  -2217550.08545  24515721.319    24515730.7954
  23201708.070    11814225.317 8   9203811.68746  23201707.873    23201714.2864
  23956774.966    -7513193.594 7  -5840817.86145  23956775.269    23956783.4394
  20720981.400   -19447691.448 9 -15141010.08748  20720980.993    20720987.1474
  21660223.743   -14209106.276 8 -10818954.97746  21660223.040    21660229.1574
  20286678.189    -8662205.318 9  -6739632.59048  20286678.055    20286683.4004
 99  8 18  0 59 30.0000000  0  8 01 18 19 25 04 16 22 14
  21586146.057     5626223.730 9   4382212.97947  21586145.632    21586151.4264
  22752986.354   -14319889.604 8 -11139881.77346  22752986.065    22752992.7674
  24496799.733    -2966656.765 7  -2295030.66544  24496799.609    24496809.4414
  23218422.101    11902058.911 8   9272253.37846  23218422.140    23218428.4594
  23949982.094    -7548893.367 7  -5868635.82145  23949982.332    23949989.9474
  20712962.250   -19489832.530 9 -15173847.28748  20712961.835    20712967.9684
  21654339.702   -14240027.571 8 -10843049.48046  21654338.923    21654345.0214
  20291660.712    -8636021.803 9  -6719229.86948  20291660.596    20291665.9864
 99  8 18  1  0  0.0000000  0  8 01 18 19 25 04 16 22 14
  21596439.937     5680318.844 9   4424364.98947  21596439.556    21596445.3564
  22737142.877   -14403148.481 8 -11204758.77946  22737142.583    22737149.1774
  24477898.884    -3065979.578 7  -2372425.00144  24477898.754    24477908.8824
  23235165.687    11990044.609 8   9340813.58946  23235165.540    23235171.6304
  23943292.782    -7584045.327 7  -5896026.91445  23943292.934    23943300.4994
  20705028.743   -19531523.740 9 -15206333.94248  20705028.347    20705034.4064
  21648569.112   -14270353.092 8 -10866679.73446  21648568.148    21648574.3324
  20296742.737    -8609315.683 9  -6698419.92448  20296742.627    20296748.0164
 99  8 18  1  0 30.0000000  0  8 01 18 19 25 04 16 22 14
  21606769.856     5734603.211 9   4466664.45847  21606769.525    21606775.3644
  22721321.033   -14486292.366 8 -11269546.17146  22721320.717    22721327.4874
  24459019.211    -3165193.861 7  -2449734.71444  24459018.863    24459028.5784
  23251937.867    12078184.520 8   9409494.00146  23251937.938    23251944.2284
  23936706.485    -7618655.296 8  -5922995.71145  23936706.771    23936714.5674
  20697181.570   -19572761.540 9 -15238467.26448  20697181.080    20697187.0784
  21642909.085   -14300095.834 8 -10889855.87346  21642908.257    21642914.4794
  20301925.639    -8582079.455 9  -6677196.90448  20301925.490    20301930.8664
 99  8 18  1  1  0.0000000  0  8 01 18 19 25 04 16 22 14
  21617139.308     5789094.967 9   4509125.54147  21617138.986    21617144.8014
  22705523.962   -14569306.350 8 -11334232.33646  22705523.634    22705530.2744
  24440159.030    -3264304.198 7  -2526963.39545  24440158.890    24440168.4454
  23268742.467    12166490.978 8   9478304.15046  23268742.434    23268748.4774
  23930221.797    -7652734.988 8  -5949551.28245  23930221.843    23930229.5384
  20689422.750   -19613534.019 9 -15270238.01348  20689422.261    20689428.2844
  21637358.816   -14329262.555 8 -10912583.17846  21637358.009    21637364.1904
  20307210.494    -8554307.047 9  -6655556.09348  20307210.361    20307215.7854
 99  8 18  1  1 30.0000000  0  8 01 18 19 25 04 16 22 14
  21627548.762     5843797.215 9   4551750.64747  21627548.440    21627554.3934
  22689751.506   -14652190.322 8 -11398817.20146  22689751.202    22689757.8544
  24421322.229    -3363292.631 7  -2604097.07545  24421321.981    24421331.6294
  23285577.497    12254959.357 8   9547240.51846  23285577.351    23285583.3394
  23923835.751    -7686291.599 7  -5975699.29445  23923836.043    23923843.6054
  20681756.364   -19653820.900 9 -15301630.37648  20681755.918    20681761.9044
  21631921.223   -14357836.764 8 -10934848.77546  21631920.473    21631926.6284
  20312596.552    -8526003.122 9  -6633501.11148  20312596.462    20312601.9124
 99  8 18  1  2  0.0000000  0  8 01 18 19 25 04 16 22 14
  21638001.433     5898725.655 9   4594551.98447  21638001.054    21638006.8844
  22674004.752   -14734939.996 8 -11463297.43546  22674004.473    22674011.1694
  24402509.075    -3462154.499 7  -2681132.16545  24402509.015    24402518.7824
  23302440.775    12343576.842 8   9616293.05446  23302440.596    23302446.4624
  23917552.451    -7719311.862 8  -6001429.34645  23917552.832    23917559.9394
  20674185.350   -19693607.100 9 -15332632.60348  20674184.870    20674190.8294
  21626599.017   -14385804.710 8 -10956641.95546  21626598.338    21626604.4124
  20318086.734    -8497152.450 9  -6611020.09248  20318086.621    20318092.0344
 99  8 18  1  2 30.0000000  0  8 01 18 19 25 04 16 22 14
  21648497.180     5953881.430 9   4637530.48947  21648496.877    21648502.7574
  22658285.189   -14817547.225 8 -11527666.69746  22658284.906    22658291.5454
  24383719.654    -3560893.134 7  -2758071.22345  24383719.413    24383729.2514
  23319334.316    12432352.821 8   9685469.05946  23319334.091    23319340.1534
  23911371.937    -7751791.044 7  -6026737.80345  23911372.013    23911379.2274
  20666709.679   -19732890.905 9 -15363243.34048  20666709.255    20666715.3164
  21621393.206   -14413160.669 8 -10977958.25746  21621392.681    21621398.7694
  20323682.873    -8467744.795 9  -6588105.06348  20323682.727    20323688.1464
 99  8 18  1  3  0.0000000  0  8 01 18 19 25 04 16 22 14
  21659035.052     6009258.125 9   4680681.13047  21659034.712    21659040.5524
  22642593.787   -14900006.900 8 -11591920.97446  22642593.488    22642599.9554
  24364955.408    -3659498.985 7  -2834906.77345  24364955.004    24364965.2064
  23336260.393    12521300.989 8   9754779.28546  23336260.323    23336266.6064
  23905295.247    -7783722.719 7  -6051619.59845  23905295.608    23905303.1044
  20659332.302   -19771659.453 9 -15393452.58548  20659331.912    20659337.8934
  21616308.277   -14439883.224 8 -10998781.01846  21616307.572    21616313.7214
  20329382.980    -8437790.302 9  -6564763.92748  20329382.861    20329388.2884
 99  8 18  1  3 30.0000000  0  8 01 18 19 25 04 16 22 14
  21669612.003     6064840.384 9   4723991.95247  21669611.710    21669617.5454
  22626928.237   -14982329.707 8 -11656068.58346  22626927.964    22626934.5284
  24346218.709    -3757958.233 7  -2911628.13145  24346218.524    24346228.9104
  23353214.977    12610396.620 8   9824204.36146  23353214.895    23353220.9184
  23899324.680    -7815098.750 8  -6076068.43045  23899324.872    23899332.3944
  20652051.782   -19809918.733 9 -15423264.99548  20652051.332    20652057.3764
  21611344.604   -14465967.467 8 -11019106.36646  21611343.838    21611350.0594
  20335185.125    -8407299.693 9  -6541005.03648  20335184.994    20335190.5034
 99  8 18  1  4  0.0000000  0  8 01 18 19 25 04 16 22 14
  21680227.929     6120626.981 9   4767461.97947  21680227.621    21680233.3474
  22611288.148   -15064519.523 8 -11720112.51946  22611287.821    22611294.2754
  24327510.550    -3856271.550 7  -2988235.76945  24327510.136    24327520.5934
  23370197.819    12699640.472 8   9893744.95246  23370197.659    23370203.4714
  23893460.714    -7845913.797 7  -6100080.11145  23893460.902    23893468.4944
  20644867.391   -19847673.047 9 -15452683.94048  20644866.956    20644872.9674
  21606498.880   -14491431.934 8 -11038948.78946  21606498.123    21606504.2154
  20341090.123    -8376268.964 9  -6516825.26948  20341089.957    20341095.4514
 99  8 18  1  4 30.0000000  0  8 01 18 19 25 04 16 22 14
  21690881.652     6176612.238 9   4811086.82047  21690881.335    21690887.0614
  22595673.563   -15146573.674 8 -11784050.75746  22595673.242    22595679.7554
  24308833.516    -3954419.529 8  -3064714.57645  24308833.225    24308843.4184
  23387209.766    12789039.395 8   9963406.40046  23387209.652    23387215.6874
  23887701.211    -7876180.685 8  -6123664.70745  23887701.379    23887709.2514
  20637779.569   -19884919.870 9 -15481707.42048  20637779.123    20637785.1434
  21601769.313   -14516285.858 8 -11058315.46746  21601768.547    21601774.6314
  20347095.269    -8344711.393 9  -6492234.97448  20347095.139    20347100.6724
 99  8 18  1  5  0.0000000  0  8 01 18 19 25 04 16 22 14
  21701572.256     6232791.350 9   4854862.73047  21701571.845    21701577.6124
  22580083.753   -15228497.394 8 -11847887.40646  22580083.534    22580090.0644
  24290188.455    -4052399.969 8  -3141062.84845  24290188.242    24290198.2764
  23404246.836    12878568.377 8  10033169.17846  23404246.468    23404252.5514
  23882046.601    -7905895.065 7  -6146818.74745  23882046.763    23882054.5594
  20630785.780   -19921672.550 9 -15510345.86548  20630785.305    20630791.3454
  21597156.625   -14540525.502 8 -11077203.48246  21597155.820    21597162.0624
  20353198.062    -8312640.962 9  -6467245.05648  20353197.964    20353203.4834
 99  8 18  1  5 30.0000000  0  8 01 18 19 25 04 16 22 14
  21712301.213     6289171.263 9   4898795.07247  21712300.697    21712306.4654
  22564518.446   -15310293.625 8 -11911624.69446  22564518.189    22564524.6894
  24271573.294    -4150224.077 8  -3217289.30345  24271572.960    24271582.8224
  23421303.650    12968202.393 8  10103013.81846  23421303.279    23421309.5184
  23876497.252    -7935057.510 7  -6169542.70745  23876497.564    23876505.0284
  20623883.410   -19957944.283 9 -15538609.54148  20623882.983    20623889.0054
  21592657.739   -14564168.477 8 -11095626.56447  21592656.765    21592662.9584
  20359398.709    -8280056.605 9  -6441854.67448  20359398.621    20359404.0734
 99  8 18  1  6  0.0000000  0  8 01 18 19 25 04 16 22 14
  21723069.210     6345757.383 9   4942888.12047  21723068.672    21723074.5134
  22548978.270   -15391958.092 8 -11975259.27346  22548977.948    22548984.5544
  24252985.277    -4247902.941 8  -3293402.63745  24252985.097    24252994.9824
  23438382.852    13057954.644 8  10172950.58046  23438382.745    23438388.8784
  23871052.362    -7963670.639 8  -6191838.64245  23871052.514    23871060.3544
  20617071.298   -19993742.664 9 -15566504.38548  20617070.859    20617076.7434
  21588271.618   -14587216.729 8 -11113586.23047  21588270.821    21588277.0204
  20365696.868    -8246959.601 9  -6416064.81648  20365696.801    20365702.2554
 99  8 18  1  6 30.0000000  0  8 01 18 19 25 04 16 22 14
  21733874.461     6402539.361 9   4987133.78047  21733873.932    21733879.8204
  22533462.010   -15473495.525 8 -12038794.92246  22533461.600    22533468.5044
  24234421.029    -4345459.702 8  -3369420.77845  24234420.760    24234430.2724
  23455482.060    13147811.776 8  10242969.05645  23455481.978    23455488.0524
  23865709.377    -7991747.805 8  -6213716.98245  23865709.602    23865717.3104
  20610344.815   -20029090.628 9 -15594048.23148  20610344.356    20610350.2544
  21584001.952   -14609653.299 8 -11131069.27347  21584001.307    21584007.4734
  20372091.441    -8213356.002 9  -6389880.21348  20372091.315    20372096.8554
 99  8 18  1  7  0.0000000  0  8 01 18 19 25 04 16 22 14
  21744716.424     6459514.461 9   5031529.92247  21744715.916    21744721.8454
  22517967.148   -15554920.838 8 -12102243.16246  22517966.876    22517973.6624
  24215874.923    -4442920.117 8  -3445363.87045  24215874.689    24215884.0764
  23472600.710    13237771.024 8  10313067.10245  23472600.726    23472606.6724
  23860470.352    -8019279.424 7  -6235170.15145  23860470.500    23860478.2114
  20603701.548   -20064000.830 9 -15621250.98048  20603701.105    20603707.0354
  21579850.613   -14631469.347 8 -11148068.77147  21579849.861    21579856.0154
  20378587.369    -8179219.767 9  -6363280.56948  20378587.258    20378592.8264
 99  8 18  1  7 30.0000000  0  8 01 18 19 25 04 16 22 14
  21755594.681     6516680.324 8   5076074.71147  21755594.246    21755600.0894
  22502492.928   -15636239.468 8 -12165608.26846  22502492.549    22502499.0854
  24197348.154    -4540278.323 8  -3521227.31945  24197347.815    24197357.0404
  23489742.228    13327849.016 8  10383257.69345  23489742.070    23489748.1234
  23855335.052    -8046263.685 7  -6256196.86045  23855335.315    23855343.2664
  20597143.839   -20098461.626 9 -15648103.55348  20597143.434    20597149.4034
  21575817.023   -14652665.745 8 -11164585.43447  21575816.263    21575822.4714
  20385186.183    -8144543.435 9  -6336260.06648  20385186.009    20385191.5894
 99  8 18  1  8  0.0000000  0  8 01 18 19 25 04 16 22 14
  21766506.461     6574022.535 9   5120756.91447  21766506.111    21766512.0614
  22487037.673   -15717457.051 8 -12228894.71146  22487037.268    22487043.8204
  24178841.943    -4637528.103 8  -3597006.30245  24178841.586    24178850.9074
  23506906.819    13418051.037 8  10453544.95945  23506906.758    23506913.1884
  23850304.007    -8072704.092 8  -6276799.70245  23850304.198    23850311.7414
  20590674.313   -20132459.749 9 -15674595.58748  20590673.843    20590679.8554
  21571904.500   -14673225.912 8 -11180606.35247  21571903.812    21571909.9204
  20391888.587    -8109322.083 9  -6308814.88048  20391888.449    20391893.9674
 99  8 18  1  8 30.0000000  0  8 01 18 19 25 04 16 22 14
  21777453.186     6631547.337 8   5165581.38547  21777452.773    21777458.6604
  22471602.902   -15798566.353 8 -12292096.70046  22471602.613    22471609.1994
  24160360.736    -4734647.496 8  -3672683.68745  24160360.430    24160369.4744
  23524094.115    13508371.257 8  10523924.29445  23524094.148    23524100.6404
  23845374.372    -8098609.024 8  -6296985.40145  23845374.511    23845382.1864
  20584295.753   -20165979.374 9 -15700714.77448  20584295.319    20584301.2584
  21568113.723   -14693145.636 8 -11196128.19647  21568113.136    21568119.3534
  20398695.129    -8073553.196 9  -6280943.04048  20398695.017    20398700.5654
 99  8 18  1  9  0.0000000  0  8 01 18 19 25 04 16 22 14
  21788434.338     6689253.838 8   5210547.44247  21788433.961    21788439.9724
  22456191.107   -15879555.288 8 -12355204.90046  22456190.783    22456197.4374
  24141909.841    -4831606.868 8  -3748236.37445  24141909.684    24141918.4264
  23541304.584    13598811.137 8  10594396.86045  23541304.574    23541310.6714
  23840548.596    -8123967.154 8  -6316745.01545  23840548.961    23840556.4704
  20578012.761   -20198997.258 9 -15726442.99848  20578012.229    20578018.1244
  21564441.747   -14712442.159 8 -11211164.45547  21564441.158    21564447.3564
  20405602.645    -8037254.104 9  -6252658.05748  20405602.555    20405608.1474
 99  8 18  1  9 30.0000000  0  8 01 18 19 25 04 16 22 14
  21799450.029     6747141.967 8   5255655.03747  21799449.685    21799455.7414
  22440804.248   -15960413.537 8 -12418211.27446  22440803.935    22440810.6614
  24123493.314    -4928386.822 7  -3823649.20845  24123493.024    24123501.4374
  23558535.923    13689364.055 8  10664957.54745  23558536.085    23558542.4874
  23835824.965    -8148792.735 8  -6336089.60145  23835825.211    23835832.2874
  20571827.855   -20231498.696 9 -15751768.79348  20571827.390    20571833.3434
  21560888.526   -14731115.823 8 -11225715.36047  21560887.708    21560893.9364
  20412606.632    -8000448.006 9  -6223978.00248  20412606.556    20412612.1254
 99  8 18  1 10  0.0000000  0  8 01 18 19 25 04 16 22 14
  21810501.609     6805218.471 8   5300909.41747  21810501.304    21810507.4194
  22425444.095   -16041131.058 8 -12481108.01146  22425443.778    22425450.6064
  24105110.374    -5024988.770 7  -3898923.38845  24105110.319    24105118.7194
  23575786.953    13780018.361 8  10735597.20745  23575787.062    23575793.4414
  23831199.356    -8173099.213 8  -6355029.74245  23831199.523    23831207.0394
  20565739.747   -20263491.938 9 -15776698.58248  20565739.275    20565745.2774
  21557453.955   -14749163.705 8 -11239778.63647  21557453.266    21557459.4544
  20419707.509    -7963133.408 9  -6194901.70848  20419707.371    20419712.9364
 99  8 18  1 10 30.0000000  0  8 01 18 19 25 04 16 22 14
  21821590.632     6863491.660 8   5346317.06047  21821590.367    21821596.5454
  22410113.415   -16121694.077 8 -12543884.34646  22410113.161    22410119.7874
  24086759.488    -5121422.913 7  -3974066.79945  24086759.324    24086767.8594
  23593056.505    13870770.195 8  10806312.87545  23593056.437    23593062.7844
  23826673.093    -8196884.441 8  -6373563.64345  23826673.258    23826680.8434
  20559744.845   -20294995.613 9 -15801246.91248  20559744.355    20559750.3854
  21554135.447   -14766602.085 8 -11253366.99247  21554134.913    21554141.0494
  20426903.884    -7925316.516 9  -6165434.02148  20426903.729    20426909.2484
 99  8 18  1 11  0.0000000  0  8 01 18 19 25 04 16 22 14
  21832716.287     6921957.219 8   5391874.60347  21832716.035    21832722.2064
  22394809.761   -16202115.590 8 -12606550.41546  22394809.515    22394815.8924
  24068434.638    -5217719.425 7  -4049102.93945  24068434.430    24068443.1574
  23610343.598    13961613.777 8  10877100.05245  23610343.598    23610350.0214
  23822249.260    -8220131.688 8  -6391678.34345  23822249.480    23822257.0274
  20553841.702   -20326016.782 9 -15825419.25048  20553841.182    20553847.3274
  21550932.813   -14783432.495 8 -11266481.59547  21550932.190    21550938.3264
  20434196.607    -7886993.225 9  -6135571.74048  20434196.440    20434201.9244
 99  8 18  1 11 30.0000000  0  8 01 18 19 25 04 16 22 14
  21843881.466     6980630.288 8   5437593.84547  21843881.196    21843887.3824
  22379532.866   -16282396.235 8 -12669106.72646  22379532.592    22379538.8864
  24050133.661    -5313892.002 7  -4124042.54745  24050133.449    24050142.4764
  23627647.286    14052542.746 8  10947953.68345  23627647.060    23627653.4094
  23817927.563    -8242842.796 8  -6409375.32845  23817927.752    23817935.2824
  20548030.236   -20356555.926 9 -15849215.97748  20548029.765    20548035.9524
  21547848.268   -14799642.725 8 -11279112.94447  21547847.536    21547853.6494
  20441589.479    -7848143.054 9  -6105298.90548  20441589.362    20441594.8474
 99  8 18  1 12  0.0000000  0  8 01 18 19 25 04 16 22 14
  21855087.761     7039519.464 8   5483481.47347  21855087.508    21855093.6214
  22364283.632   -16362530.956 8 -12731549.33446  22364283.409    22364289.8014
  24031854.973    -5409946.607 7  -4198890.23845  24031854.803    24031863.9894
  23644968.539    14143566.693 7  11018881.32045  23644968.399    23644974.6254
  23813711.834    -8264996.354 8  -6426637.87345  23813712.160    23813719.7554
  20542312.633   -20386602.060 9 -15872628.54848  20542312.133    20542318.2914
  21544881.322   -14815233.304 8 -11291261.44847  21544880.699    21544886.8274
  20449082.679    -7808766.264 9  -6074615.71948  20449082.505    20449088.0354
 99  8 18  1 12 30.0000000  0  8 01 18 19 25 04 16 22 14
  21866336.519     7098631.478 8   5529542.75147  21866336.200    21866342.3064
  22349060.302   -16442530.235 8 -12793886.37046  22349060.057    22349066.5304
  24013599.970    -5505877.641 7  -4273641.63745  24013599.661    24013608.8564
  23662310.574    14234701.940 8  11089895.73645  23662310.753    23662317.1334
  23809606.201    -8286572.113 8  -6443450.12245  23809606.542    23809613.9804
  20536694.884   -20416123.148 9 -15895632.00548  20536694.383    20536700.5144
  21542033.873   -14830197.577 8 -11302921.92947  21542033.180    21542039.2714
  20456677.538    -7768855.157 9  -6043516.18748  20456677.347    20456682.8734
 99  8 18  1 13  0.0000000  0  8 01 18 19 25 04 16 22 14
  21877625.780     7157957.077 8   5575770.46447  21877625.465    21877631.5474
  22333862.087   -16522397.212 8 -12856120.34546  22333861.770    22333868.3774
  23995372.357    -5601663.798 7  -4348280.14245  23995372.259    23995381.4484
  23679675.664    14325954.559 8  11161001.62845  23679675.721    23679682.0254
  23805612.703    -8307557.526 8  -6459802.37145  23805613.047    23805620.5584
  20531183.821   -20445083.589 9 -15918198.56748  20531183.397    20531189.5794
  21539310.384   -14844509.875 8 -11314074.37247  21539309.636    21539315.6964
  20464375.303    -7728402.964 9  -6011995.02048  20464375.138    20464380.6384
 99  8 18  1 13 30.0000000  0  8 01 18 19 25 04 16 22 14
  21888955.279     7217493.105 8   5622162.13547  21888954.922    21888960.9554
  22318691.676   -16602116.691 8 -12918239.42046  22318691.481    22318698.2494
  23977178.870    -5697272.469 7  -4422780.32745  23977178.645    23977187.6864
  23697067.119    14417345.932 8  11232215.61745  23697067.092    23697073.2644
  23801731.747    -8327952.225 8  -6475694.33745  23801732.054    23801739.6514
  20525783.457   -20473462.609 9 -15940312.09348  20525783.016    20525789.1294
  21536712.574   -14858161.806 8 -11324712.25347  21536711.755    21536717.8434
  20472176.635    -7687406.494 9  -5980049.74248  20472176.477    20472182.0304
 99  8 18  1 14  0.0000000  0  8 01 18 19 25 04 16 22 14
  21900323.059     7277230.664 8   5668710.85047  21900322.712    21900328.6524
  22303551.105   -16681681.305 8 -12980237.75246  22303550.843    22303557.4934
  23959018.607    -5792704.202 7  -4497142.65745  23959018.406    23959027.5404
  23714487.704    14508891.339 8  11303549.65245  23714487.661    23714493.8334
  23797964.232    -8347751.446 7  -6491122.29345  23797964.394    23797972.0164
  20520495.118   -20501253.212 9 -15961967.10748  20520494.647    20520500.7084
  21534242.082   -14871145.198 8 -11334829.18347  21534241.155    21534247.1144
  20480082.500    -7645861.076 9  -5947676.70548  20480082.364    20480087.9514
 99  8 18  1 14 30.0000000  0  8 01 18 19 25 04 16 22 14
  21911730.068     7337175.588 8   5715421.16247  21911729.755    21911735.8634
  22288441.828   -16761079.857 8 -13042106.70646  22288441.584    22288448.2504
  23940893.869    -5887950.958 7  -4571360.83445  23940893.734    23940902.5734
  23731935.611    14600580.349 8  11374995.61445  23731935.443    23731941.7634
  23794307.085    -8366968.141 8  -6506096.32345  23794307.503    23794314.9384
  20515316.020   -20528469.282 9 -15983174.42048  20515315.552    20515321.6894
  21531899.279   -14883455.410 8 -11344421.56347  21531898.507    21531904.5974
  20488095.456    -7603752.973 9  -5914865.22848  20488095.317    20488100.8714
 99  8 18  1 15  0.0000000  0  8 01 18 19 25 04 16 22 14
  21923177.293     7397330.619 8   5762295.17647  21923176.921    21923182.9884
  22273370.631   -16840278.280 8 -13103819.73946  22273370.417    22273377.0824
  23922806.982    -5982996.826 7  -4645422.53045  23922806.935    23922816.0414
  23749411.509    14692416.286 8  11446556.07745  23749411.234    23749417.5804
  23790761.975    -8385600.816 8  -6520615.29445  23790762.078    23790769.3054
  20510243.521   -20555125.783 9 -16003945.72848  20510243.044    20510249.0894
  21529686.252   -14895084.991 8 -11353483.56847  21529685.489    21529691.5054
  20496214.399    -7561087.834 9  -5881619.68948  20496214.246    20496219.7714
 99  8 18  1 15 30.0000000  0  8 01 18 19 25 04 16 22 14
  21934661.563     7457680.810 8   5809321.24947  21934661.280    21934667.2974
  22258331.136   -16919312.266 8 -13165404.63646  22258330.938    22258337.4274
  23904750.255    -6077886.045 7  -4719362.11545  23904750.196    23904759.0834
  23766906.479    14784352.602 8  11518194.72745  23766906.204    23766912.5584
  23787317.289    -8403701.716 8  -6534719.88045  23787317.463    23787324.6964
  20505264.634   -20581290.382 9 -16024333.71648  20505264.121    20505270.1884
  21527592.675   -14906086.504 8 -11362056.17647  21527592.018    21527597.9674
  20504432.978    -7517898.783 9  -5847965.91948  20504432.847    20504438.4634
 99  8 18  1 16  0.0000000  0  8 01 18 19 25 04 16 22 14
  21946185.953     7518243.422 8   5856512.87447  21946185.861    21946191.9984
  22243324.069   -16998176.315 8 -13226857.13046  22243323.857    22243330.0854
  23886724.054    -6172613.611 7  -4793175.74645  23886723.906    23886732.9974
  23784418.376    14876377.989 7  11589902.79945  23784418.070    23784424.5834
  23783974.098    -8421270.579 8  -6548409.93345  23783974.337    23783981.4624
  20500375.436   -20606983.343 9 -16044354.20448  20500374.946    20500380.9984
  21525621.824   -14916443.849 8 -11370126.84247  21525621.102    21525627.0084
  20512752.871    -7474177.509 9  -5813897.42648  20512752.757    20512758.3554
 99  8 18  1 16 30.0000000  0  8 01 18 19 25 04 16 22 14
  21957745.993     7578990.748 8   5903848.42847  21957745.719    21957751.8544
  22228344.682   -17076894.169 8 -13288195.67546  22228344.497    22228350.6364
  23868727.913    -6267184.126 8  -4866867.01545  23868727.942    23868736.7364
  23801943.364    14968471.848 8  11661664.18045  23801943.187    23801949.5114
  23780729.698    -8438321.225 7  -6561696.08145  23780729.555    23780736.6204
  20495571.026   -20632230.512 9 -16064027.32048  20495570.542    20495576.5614
  21523769.219   -14926179.844 8 -11377713.31547  21523768.306    21523774.2534
  20521169.331    -7429948.923 9  -5779433.62348  20521169.210    20521174.8154
 99  8 18  1 17  0.0000000  0  8 01 18 19 25 04 16 22 14
  21969337.823     7639905.076 8   5951314.10347  21969337.445    21969343.5334
  22213387.570   -17155494.532 8 -13349442.68646  22213387.372    22213393.5824
  23850759.219    -6361610.785 7  -4940446.14445  23850758.984    23850768.0304
  23819479.173    15060621.348 8  11733468.86945  23819478.769    23819484.9064
  23777583.177    -8454853.054 8  -6574578.08545  23777583.391    23777590.6114
  20490850.927   -20657035.425 9 -16083355.82548  20490850.419    20490856.3484
  21522032.656   -14935304.654 8 -11384823.56047  21522031.927    21522037.8504
  20529681.160    -7385219.280 9  -5744579.37948  20529681.008    20529686.6174
 99  8 18  1 17 30.0000000  0  8 01 18 19 25 04 16 22 14
  21980960.632     7700983.819 8   5998907.89747  21980960.347    21980966.3694
  22198448.855   -17233996.819 8 -13410613.25246  22198448.684    22198455.1284
  23832815.226    -6455907.029 7  -5013923.61545  23832814.935    23832823.5774
  23837022.164    15152812.385 8  11805305.94345  23837022.033    23837028.2814
  23774536.683    -8470864.613 8  -6587054.60745  23774536.831    23774543.6864
  20486216.592   -20681388.749 9 -16102332.43448  20486216.098    20486222.1114
  21520412.997   -14943817.289 8 -11391456.77747  21520412.089    21520417.9984
  20538290.539    -7339976.812 9  -5709325.52848  20538290.387    20538295.9844
 99  8 18  1 18  0.0000000  0  8 01 18 19 25 04 16 22 14
  21992612.324     7762214.066 8   6046619.76447  21992612.021    21992618.0874
  22183532.439   -17312381.953 8 -13471692.53846  22183532.300    22183538.9814
  23814897.019    -6550065.464 7  -5087293.75345  23814897.020    23814905.9334
  23854576.455    15245059.536 8  11877186.83045  23854576.260    23854582.6724
  23771591.646    -8486339.622 8  -6599113.05545  23771591.870    23771599.0034
  20481674.981   -20705255.304 9 -16120929.75948  20481674.482    20481680.4414
  21518911.491   -14951706.300 8 -11397604.03747  21518910.778    21518916.7504
  20546997.516    -7294221.262 9  -5673671.87348  20546997.380    20547002.9684
 99  8 18  1 18 30.0000000  0  8 01 18 19 25 04 16 22 14
  22004295.992     7823610.787 8   6094461.32147  22004295.533    22004301.5344
  22168642.959   -17390626.944 8 -13532662.62246  22168642.778    22168649.4334
  23797006.128    -6644082.089 7  -5160553.35845  23797006.067    23797015.0414
  23872142.616    15337369.817 8  11949116.99145  23872142.370    23872148.8194
  23768753.688    -8501253.286 8  -6610734.08745  23768753.984    23768760.9524
  20477234.335   -20728590.877 9 -16139113.31448  20477233.856    20477239.8564
  21517527.884   -14958977.030 8 -11403269.54347  21517527.146    21517533.2164
  20555804.078    -7247942.525 9  -5637610.54448  20555803.973    20555809.5744
 99  8 18  1 19  0.0000000  0  8 01 18 19 25 04 16 22 14
  22016016.706     7885203.431 8   6142455.56747  22016016.269    22016022.2334
  22153785.294   -17468704.698 8 -13593502.39846  22153785.133    22153791.6404
  23779146.677    -6737933.751 7  -5233684.44045  23779146.669    23779155.5644
  23889723.236    15429758.526 7  12021108.17345  23889723.209    23889729.6534
  23766024.761    -8515594.504 8  -6621909.01445  23766024.944    23766031.8134
  20472900.616   -20751364.788 9 -16156859.21848  20472900.156    20472906.1244
  21516264.682   -14965615.296 8 -11408442.18647  21516263.901    21516269.9524
  20564712.525    -7201128.318 9  -5601131.95748  20564712.426    20564718.0224
 99  8 18  1 19 30.0000000  0  8 01 18 19 25 04 16 22 14
  22027776.518     7947000.657 8   6190609.20847  22027775.968    22027781.9324
  22138964.794   -17546587.494 8 -13654190.27946  22138964.574    22138970.8204
  23761321.285    -6831606.612 7  -5306676.22545  23761321.409    23761329.9414
  23907323.735    15522251.444 8  12093180.57845  23907323.804    23907330.5084
  23763406.297    -8529354.243 8  -6632630.92745  23763406.566    23763413.6894
  20468677.305   -20773558.149 9 -16174152.75648  20468676.820    20468682.8864
  21515122.799   -14971616.564 8 -11413118.50347  21515122.040    21515127.8914
  20573722.660    -7153779.637 9  -5564236.91748  20573722.578    20573728.1974
 99  8 18  1 20  0.0000000  0  8 01 18 19 25 04 16 22 14
  22039577.959     8009017.444 8   6238933.94647  22039577.428    22039583.3764
  22124183.542   -17624263.203 8 -13714716.75646  22124183.317    22124189.5094
  23743532.370    -6925088.631 8  -5379519.27245  23743532.355    23743540.8124
  23924947.366    15614863.091 8  12165345.50145  23924947.323    23924953.9224
  23760898.846    -8542532.285 8  -6642899.49645  23760899.071    23760905.8094
  20464565.570   -20795165.210 9 -16190989.42748  20464565.156    20464571.1974
  21514102.228   -14976979.109 8 -11417297.07947  21514101.398    21514107.5444
  20582833.511    -7105901.850 9  -5526929.56348  20582833.441    20582839.0564
 99  8 18  1 20 30.0000000  0  8 01 18 19 25 04 16 22 14
  22051422.767     8071262.241 8   6287436.34347  22051422.248    22051428.2574
  22109437.963   -17701751.458 8 -13775097.16446  22109437.705    22109443.9614
  23725781.558    -7018368.964 8  -5452205.18945  23725781.563    23725790.3584
  23942591.525    15707581.939 7  12237593.88445  23942591.199    23942597.9794
  23758500.293    -8555136.307 8  -6652720.82245  23758500.543    23758507.3984
  20460562.356   -20816201.816 9 -16207381.58448  20460561.928    20460568.0604
  21513204.097   -14981698.843 8 -11420974.78847  21513203.309    21513209.4364
  20592044.173    -7057499.802 9  -5489213.70748  20592044.065    20592049.6834
 99  8 18  1 21  0.0000000  0  8 01 18 19 25 04 16 22 14
  22063308.232     8133721.198 8   6336105.62646  22063307.809    22063313.9064
  22094723.390   -17779076.396 8 -13835350.32146  22094723.161    22094729.4334
  23708069.058    -7111448.628 8  -5524734.74345  23708069.105    23708077.6684
  23960256.501    15800411.696 8  12309928.73945  23960256.210    23960263.0484
  23756208.607    -8567179.651 8  -6662105.26745  23756208.839    23756215.7594
  20456662.179   -20836697.451 9 -16223352.21348  20456661.728    20456667.8814
  21512429.753   -14985767.184 8 -11424144.91447  21512429.035    21512435.2174
  20601351.989    -7008587.088 9  -5451099.92448  20601351.861    20601357.4784
 99  8 18  1 21 30.0000000  0  8 01 18 19 25 04 16 22 14
  22075232.651     8196383.361 8   6384933.25146  22075232.095    22075238.2414
  22080035.197   -17856262.928 8 -13895495.64646  22080034.980    22080041.3074
  23690390.456    -7204351.168 8  -5597126.29145  23690390.274    23690399.0384
  23977937.397    15893325.609 7  12382329.16045  23977937.030    23977943.7344
  23754020.365    -8578679.092 8  -6671065.82845  23754020.564    23754027.4244
  20452860.344   -20856675.568 9 -16238919.58448  20452859.960    20452866.1604
  21511779.164   -14989186.173 8 -11426809.04747  21511778.386    21511784.6354
  20610753.677    -6959181.098 9  -5412601.78548  20610753.562    20610759.1744
 99  8 18  1 22  0.0000000  0  8 01 18 19 25 04 16 22 14
  22087193.434     8259237.685 8   6433910.61346  22087192.875    22087199.1444
  22065371.492   -17933320.916 8 -13955540.77946  22065371.291    22065377.5734
  23672745.167    -7297077.521 8  -5669380.52546  23672745.109    23672753.8084
  23995629.440    15986299.691 8  12454776.45145  23995629.301    23995635.9094
  23751933.849    -8589643.030 8  -6679609.15645  23751934.078    23751941.1754
  20449153.944   -20876153.033 9 -16254096.82548  20449153.555    20449159.7224
  21511253.824   -14991947.456 8 -11428960.67647  21511253.049    21511259.1614
  20620247.724    -6909289.979 9  -5373725.61348  20620247.570    20620253.2184
 99  8 18  1 22 30.0000000  0  8 01 18 19 25 04 16 22 14
  22099186.858     8322263.060 8   6483021.25346  22099186.232    22099192.4814
  22050731.005   -18010257.663 8 -14015491.43446  22050730.806    22050737.0484
  23655129.935    -7389646.731 8  -5741512.30746  23655129.754    23655138.3574
  24013331.921    16079325.625 8  12527264.15845  24013331.706    24013338.2444
  23749951.351    -8600062.140 8  -6687727.93245  23749951.550    23749958.3584
  20445541.028   -20895139.267 9 -16268891.29648  20445540.627    20445546.7934
  21510851.853   -14994058.753 8 -11430605.83047  21510851.167    21510857.3334
  20629833.051    -6858919.082 9  -5334475.59648  20629832.894    20629838.5814
 99  8 18  1 23  0.0000000  0  8 01 18 19 25 04 16 22 14
  22111212.108     8385456.169 8   6532262.58946  22111211.507    22111217.8224
  22036115.153   -18087065.616 8 -14075341.76047  22036114.905    22036121.1694
  23637540.901    -7482076.690 8  -5813535.57146  23637540.891    23637549.4434
  24031044.435    16172404.929 8  12599793.47945  24031044.284    24031050.7534
  23748072.808    -8609933.189 8  -6695419.69845  23748073.052    23748080.0154
  20442022.035   -20913631.692 9 -16283300.97948  20442021.633    20442027.8004
  21510572.008   -14995530.706 8 -11431752.79447  21510571.181    21510577.3364
  20639510.272    -6808065.084 9  -5294849.13748  20639510.084    20639515.7644
 99  8 18  1 23 30.0000000  0  8 01 18 19 25 04 16 22 14
  22123270.489     8448823.698 8   6581639.84546  22123269.889    22123276.2544
  22021527.433   -18163724.270 8 -14135075.75446  22021527.184    22021533.5094
  23619978.167    -7574369.766 8  -5885452.16846  23619978.089    23619986.6144
  24048765.652    16265532.010 8  12672360.00045  24048765.676    24048772.4694
  23746299.501    -8619251.884 8  -6702680.94445  23746299.609    23746306.6664
  20438601.555   -20931606.477 9 -16297307.30048  20438601.161    20438607.3534
  21510414.192   -14996359.409 8 -11432398.53647  21510413.480    21510419.5824
  20649280.766    -6756720.742 9  -5254840.58348  20649280.571    20649286.2794
 99  8 18  1 24  0.0000000  0  8 01 18 19 25 04 16 22 14
  22135363.305     8512371.193 8   6631157.32746  22135362.627    22135369.0264
  22006970.100   -18240223.486 8 -14194685.47046  22006969.892    22006976.0134
  23602443.120    -7666516.279 8  -5957254.58246  23602443.128    23602451.4794
  24066499.707    16358724.586 7  12744977.51945  24066499.630    24066506.6094
  23744635.891    -8627993.496 8  -6709492.61245  23744636.170    23744643.3784
  20435284.257   -20949039.277 9 -16310891.30548  20435283.877    20435289.9694
  21510378.527   -14996546.972 8 -11432544.67847  21510377.745    21510383.9224
  20659148.285    -6704866.474 9  -5214434.69048  20659148.129    20659153.8554
 99  8 18  1 24 30.0000000  0  8 01 18 19 25 04 16 22 14
  22147493.836     8576117.349 8   6680829.62546  22147493.209    22147499.5834
  21992444.806   -18316553.960 8 -14254163.69046  21992444.548    21992450.6734
  23584938.410    -7758504.646 8  -6028933.76046  23584938.387    23584946.6934
  24084248.997    16451997.263 8  12817657.48145  24084248.950    24084255.6604
  23743084.354    -8636147.910 8  -6715846.66645  23743084.525    23743091.4324
  20432074.934   -20965904.594 9 -16324033.10548  20432074.519    20432080.6294
  21510464.236   -14996096.552 8 -11432193.68047  21510463.496    21510469.5594
  20669114.865    -6652491.635 9  -5173623.15648  20669114.730    20669120.4824
 99  8 18  1 25  0.0000000  0  8 01 18 19 25 04 16 22 14
  22159664.180     8640072.727 8   6730664.94746  22159663.514    22159669.8664
  21977952.509   -18392710.528 8 -14313506.44146  21977952.241    21977958.6174
  23567470.017    -7850300.621 8  -6100463.02746  23567470.080    23567478.2814
  24102012.695    16545345.353 7  12890396.24645  24102012.714    24102019.1444
  23741642.557    -8643723.255 8  -6721749.53745  23741642.782    23741649.7394
  20428977.176   -20982183.198 9 -16336717.72948  20428976.754    20428982.8934
  21510674.815   -14994989.696 8 -11431331.20047  21510674.090    21510680.1924
  20679180.777    -6599595.046 9  -5132405.06548  20679180.611    20679186.4034
 99  8 18  1 25 30.0000000  0  8 01 18 19 25 04 16 22 14
  22171873.747     8704234.683 8   6780661.24546  22171873.112    22171879.5084
  21963495.155   -18468683.082 8 -14372705.78246  21963494.979    21963501.6084
  23550042.053    -7941885.919 8  -6171828.09246  23550041.965    23550050.1384
  24119791.122    16638774.261 7  12963198.03645  24119791.177    24119798.3234
  23740311.264    -8650718.940 8  -6727200.74245  23740311.564    23740318.6514
  20425992.413   -20997868.429 9 -16348939.98748  20425991.990    20425998.1564
  21511011.456   -14993221.594 8 -11429953.42747  21511010.578    21511016.6314
  20689345.643    -6546178.372 9  -5090781.70548  20689345.494    20689351.2984
 99  8 18  1 26  0.0000000  0  8 01 18 19 25 04 16 22 14
  22184120.291     8768591.234 8   6830809.16346  22184119.713    22184126.0844
  21949073.669   -18544469.337 8 -14431759.95446  21949073.472    21949079.8054
  23532656.382    -8033246.697 8  -6243018.23545  23532656.372    23532664.6344
  24137586.334    16732287.725 8  13036065.65945  24137586.246    24137593.3964
  23739091.024    -8657132.264 8  -6732198.14145  23739091.259    23739098.2304
  20423119.928   -21012963.567 9 -16360702.42748  20423119.479    20423125.6764
  21511470.725   -14990807.330 8 -11428072.18447  21511469.969    21511476.0584
  20699610.791    -6492234.841 9  -5048747.81448  20699610.628    20699616.4134
 99  8 18  1 26 30.0000000  0  8 01 18 19 25 04 16 22 14
  22196403.125     8833137.334 8   6881104.79446  22196402.470    22196408.8094
  21934689.603   -18620058.813 8 -14490660.80446  21934689.370    21934695.3334
  23515312.941    -8124386.713 8  -6314036.33645  23515312.799    23515321.3014
  24155395.695    16825876.540 7  13108991.99245  24155395.648    24155402.5964
  23737977.724    -8662982.804 8  -6736756.98245  23737977.900    23737984.8034
  20420357.750   -21027478.911 9 -16372013.08948  20420357.331    20420363.4484
  21512052.647   -14987749.265 8 -11425689.25947  21512051.837    21512057.8614
  20709974.267    -6437774.239 9  -5006311.00948  20709974.183    20709979.9304
 99  8 18  1 27  0.0000000  0  8 01 18 19 25 04 16 22 14
  22208721.565     8897871.348 8   6931546.84946  22208720.942    22208727.2784
  21920343.502   -18695448.565 8 -14549406.02947  21920343.302    21920349.2014
  23498010.016    -8215311.865 8  -6384887.03145  23498009.987    23498018.7384
  24173218.778    16919538.288 7  13181975.08845  24173218.719    24173225.7504
  23736969.894    -8668278.111 8  -6740883.22245  23736970.038    23736977.2644
  20417703.461   -21041427.188 9 -16382881.86248  20417703.008    20417709.2324
  21512756.321   -14984050.868 8 -11422807.37947  21512755.629    21512761.6244
  20720436.572    -6382794.668 9  -4963469.81448  20720436.470    20720442.2264
 99  8 18  1 27 30.0000000  0  8 01 18 19 25 04 16 22 14
  22221076.649     8962798.689 8   6982139.53646  22221076.169    22221082.5614
  21906036.180   -18770635.116 8 -14607992.92447  21906035.957    21906041.7414
  23480743.083    -8306049.911 8  -6455591.93745  23480743.010    23480751.8274
  24191057.937    17013283.429 8  13255023.21445  24191057.809    24191064.6564
  23736069.032    -8673011.924 8  -6744571.93245  23736069.311    23736076.3124
  20415155.063   -21054818.883 9 -16393316.96348  20415154.652    20415160.8734
  21513579.081   -14979726.542 8 -11419437.77047  21513578.440    21513584.5584
  20730999.915    -6327284.153 9  -4920214.89348  20730999.797    20731005.6084
 99  8 18  1 28  0.0000000  0  8 01 18 19 25 04 16 22 14
  22233469.938     9027926.091 8   7032888.13446  22233469.529    22233475.9364
  21891765.953   -18845625.388 8 -14666426.85447  21891765.707    21891771.6394
  23463509.009    -8396615.499 8  -6526162.45945  23463508.941    23463517.6464
  24208910.326    17107096.351 7  13328124.10645  24208910.160    24208916.8734
  23735275.369    -8677182.581 8  -6747821.80245  23735275.601    23735282.4464
  20412712.244   -21067655.948 9 -16403319.86548  20412711.844    20412718.0674
  21514523.976   -14974761.477 8 -11415568.86947  21514523.356    21514529.3654
  20741662.896    -6271249.959 9  -4876551.91448  20741662.776    20741668.6074
 99  8 18  1 28 30.0000000  0  8 01 18 19 25 04 16 22 14
  22245905.365     9093273.578 8   7083808.21946  22245904.860    22245911.1144
  21877530.282   -18920432.766 8 -14724718.27247  21877530.102    21877536.2694
  23446308.634    -8487004.991 8  -6596595.71545  23446308.479    23446317.0514
  24226774.203    17200972.183 7  13401274.04345  24226774.023    24226780.8564
  23734586.376    -8680803.264 8  -6750643.10545  23734586.668    23734593.8324
  20410372.838   -21079949.559 9 -16412899.29948  20410372.453    20410378.6494
  21515597.128   -14969122.082 8 -11411174.53747  21515596.422    21515602.5244
  20752423.051    -6214705.042 9  -4832490.96848  20752422.947    20752428.7804
 99  8 18  1 29  0.0000000  0  8 01 18 19 25 04 16 22 14
  22258380.206     9158828.944 8   7134890.28746  22258379.684    22258385.9174
  21863326.432   -18995073.283 8 -14782879.67847  21863326.274    21863332.5584
  23429142.230    -8577214.491 8  -6666888.74745  23429142.102    23429150.5764
  24244645.808    17294890.859 8  13474457.37045  24244646.051    24244653.0284
  23734000.823    -8683880.113 8  -6753040.67745  23734001.092    23734008.2054
  20408134.170   -21091713.891 9 -16422066.32048  20408133.733    20408139.9814
  21516798.210   -14962811.323 8 -11406257.04847  21516797.391    21516803.3524
  20763277.838    -6157663.197 9  -4788042.80948  20763277.692    20763283.5554
 99  8 18  1 29 30.0000000  0  8 01 18 19 25 04 16 22 14
  22270890.824     9224572.490 8   7186119.00446  22270890.174    22270896.5054
  21849152.771   -19069556.166 8 -14840918.26847  21849152.587    21849158.6824
  23412011.589    -8667237.382 8  -6737036.35646  23412011.372    23412019.9144
  24262525.159    17388846.380 7  13547669.36245  24262525.472    24262532.1614
  23733519.904    -8686408.859 8  -6755011.13845  23733520.027    23733526.6224
  20405994.468   -21102957.562 9 -16430827.61448  20405994.104    20406000.3884
  21518127.103   -14955827.439 8 -11400815.07147  21518126.391    21518132.3554
  20774223.745    -6100142.022 9  -4743221.14548  20774223.644    20774229.4754
 99  8 18  1 30  0.0000000  0  8 01 18 19 25 04 16 22 14
  22283433.151     9290482.623 8   7237477.51746  22283432.511    22283438.8064
  21835008.271   -19143885.362 8 -14898837.10247  21835008.069    21835014.0744
  23394918.806    -8757059.705 8  -6807027.70946  23394918.694    23394927.2044
  24280408.243    17482821.241 7  13620896.59145  24280408.513    24280415.2204
  23733138.652    -8688410.873 8  -6756571.16445  23733138.838    23733145.6744
  20403950.326   -21113700.003 9 -16439198.34748  20403949.910    20403956.1324
  21519582.241   -14948180.862 8 -11394856.68247  21519581.504    21519587.4544
  20785255.949    -6042167.658 9  -4698046.34948  20785255.847    20785261.6634
 99  8 18  1 30 30.0000000  0  8 01 18 19 25 04 16 22 14
  22296003.759     9356541.889 8   7288952.23546  22296003.178    22296009.5304
  21820892.231   -19218066.207 8 -14956640.35847  21820892.021    21820897.6564
  23377864.065    -8846683.274 8  -6876864.17746  23377863.852    23377872.3544
  24298292.605    17576804.361 7  13694130.23645  24298292.671    24298299.6614
  23732855.815    -8689899.896 8  -6757731.42845  23732855.975    23732862.5914
  20401999.753   -21123950.225 9 -16447185.53148  20401999.370    20402005.6134
  21521158.120   -14939898.456 8 -11388402.85847  21521157.573    21521163.6174
  20796373.069    -5983747.249 9  -4652523.98648  20796372.911    20796378.7104
 99  8 18  1 31  0.0000000  0  8 01 18 19 25 04 16 22 14
  22308599.648     9422734.289 8   7340530.70246  22308599.138    22308605.5574
  21806806.808   -19292086.040 8 -15014318.12747  21806806.552    21806812.0824
  23360843.267    -8936127.670 8  -6946561.01346  23360843.135    23360851.5354
  24316180.379    17670805.319 7  13767377.76345  24316180.379    24316187.4004
  23732671.987    -8690864.732 8  -6758483.24645  23732672.163    23732678.8074
  20400144.376   -21133700.602 9 -16454783.22548  20400143.944    20400150.1184
  21522846.695   -14931025.821 8 -11381489.11647  21522845.964    21522851.9614
  20807576.538    -5924873.101 9  -4606648.05448  20807576.344    20807582.1184
 99  8 18  1 31 30.0000000  0  8 01 18 19 25 04 16 22 14
  22321224.344     9489077.405 8   7392226.59246  22321223.828    22321230.2794
  21792753.399   -19365936.981 8 -15071864.29247  21792753.131    21792758.7594
  23343853.607    -9025408.413 8  -7016130.36546  23343853.446    23343861.8274
  24334075.051    17764840.084 7  13840651.56245  24334074.800    24334081.5604
  23732589.722    -8691297.450 8  -6758820.44045  23732590.109    23732596.4344
  20398387.630   -21142932.505 9 -16461976.90448  20398387.161    20398393.2934
  21524647.919   -14921560.416 8 -11374113.46747  21524647.287    21524653.2054
  20818868.798    -5865531.882 9  -4560408.18248  20818868.597    20818874.4164
 99  8 18  1 32  0.0000000  0  8 01 18 19 25 04 16 22 14
  22333882.416     9555595.935 8   7444059.18546  22333881.836    22333888.4364
  21778733.649   -19439610.857 8 -15129272.48947  21778733.407    21778739.2454
  23326894.064    -9114531.458 8  -7085576.78146  23326893.808    23326902.2824
  24351975.982    17858909.501 7  13913952.38445  24351975.628    24351982.4174
  23732608.204    -8691201.467 8  -6758745.64645  23732608.398    23732614.9894
  20396733.721   -21151623.699 9 -16468749.26048  20396733.305    20396739.3884
  21526564.627   -14911488.258 8 -11366265.04647  21526563.820    21526569.9274
  20830253.298    -5805705.986 9  -4513790.65348  20830253.126    20830258.9624
 99  8 18  1 32 30.0000000  0  8 01 18 19 25 04 16 22 14
  22346579.503     9622320.759 8   7496052.53346  22346579.055    22346585.8094
  21764748.776   -19513101.150 8 -15186537.61347  21764748.499    21764754.6734
  23309965.737    -9203488.312 8  -7154893.71346  23309965.587    23309974.3054
  24369886.830    17953032.258 7  13987294.79145  24369886.509    24369893.5214
  23732730.999    -8690554.178 8  -6758241.20945  23732731.362    23732738.1264
  20395190.495   -21159734.003 9 -16475068.96448  20395189.964    20395196.0294
  21528598.584   -14900800.308 8 -11357936.75947  21528597.782    21528603.7674
  20841734.459    -5745371.896 9  -4466777.12648  20841734.308    20841740.2034
 99  8 18  1 33  0.0000000  0  8 01 18 19 25 04 16 22 14
  22359318.040     9689263.687 8   7548215.82046  22359317.787    22359324.6564
  21750799.568   -19586404.836 8 -15243657.34747  21750799.265    21750805.5714
  23293073.123    -9292260.075 8  -7224066.42346  23293073.071    23293081.6214
  24387813.563    18047237.179 7  14060701.26445  24387813.098    24387820.1334
  23732963.107    -8689335.753 8  -6757291.81545  23732963.411    23732970.1694
  20393760.592   -21167247.795 9 -16480923.86148  20393760.134    20393766.1474
  21530752.854   -14889478.588 8 -11349114.66847  21530752.100    21530758.2184
  20853315.881    -5684511.451 9  -4419353.44348  20853315.730    20853321.5984
 99  8 18  1 33 30.0000000  0  8 01 18 19 25 04 16 22 14
  22372096.427     9756415.239 8   7600541.65646  22372096.260    22372103.1894
  21736883.824   -19659531.977 8 -15300639.49747  21736883.569    21736890.0024
  23276219.179    -9380829.813 8  -7293081.70146  23276218.719    23276227.2554
  24405752.838    18141510.641 7  14134161.14745  24405752.739    24405759.7474
  23733302.052    -8687554.892 8  -6755904.14545  23733302.227    23733308.9564
  20392443.546   -21174169.295 9 -16486317.22948  20392443.035    20392448.9744
  21533035.629   -14877484.174 8 -11339768.34147  21533034.631    21533040.6224
  20864995.826    -5623132.849 9  -4371525.98948  20864995.724    20865001.5554
 99  8 18  1 34  0.0000000  0  8 01 18 19 25 04 16 22 14
  22384912.301     9823762.963 8   7653020.37046  22384912.127    22384919.0454
  21723001.992   -19732481.481 8 -15357483.22947  21723001.709    21723008.1204
  23259407.846    -9469173.848 8  -7361921.14046  23259407.557    23259415.7624
  24423705.769    18235851.049 7  14207673.17045  24423705.281    24423711.9284
  23733746.928    -8685215.886 8  -6754081.49645  23733747.239    23733754.1674
  20391237.685   -21180506.024 9 -16491254.92448  20391237.180    20391243.1884
  21535444.150   -14864825.605 8 -11329904.54747  21535443.432    21535449.4904
  20876772.533    -5561245.783 9  -4323302.32248  20876772.481    20876778.2924
 99  8 18  1 34 30.0000000  0  8 01 18 19 25 04 16 22 14
  22397761.464     9891285.366 8   7705635.19046  22397761.283    22397768.1334
  21709153.775   -19805253.979 8 -15414189.03147  21709153.516    21709160.0094
  23242639.017    -9557294.089 8  -7430586.19946  23242638.696    23242647.0904
  24441670.467    18330256.146 7  14281235.58345  24441669.844    24441676.7574
  23734300.226    -8682309.193 8  -6751816.56546  23734300.446    23734307.5414
  20390139.382   -21186277.374 9 -16495752.08248  20390138.951    20390144.9554
  21537976.365   -14851520.076 8 -11319536.59147  21537975.440    21537981.3984
  20888644.538    -5498858.643 9  -4274688.99848  20888644.422    20888650.2004
 99  8 18  1 35  0.0000000  0  8 01 18 19 25 04 16 22 14
  22410638.332     9958953.565 8   7758363.63246  22410638.178    22410644.9604
  21695338.590   -19877853.457 8 -15470760.02447  21695338.350    21695344.6544
  23225909.476    -9645207.609 8  -7499090.14146  23225909.208    23225917.5254
  24459642.943    18424700.459 7  14354828.58445  24459642.232    24459649.0114
  23734959.426    -8678844.574 8  -6749116.83845  23734959.640    23734966.7254
  20389143.868   -21191509.012 9 -16499828.66548  20389143.410    20389149.4104
  21540631.791   -14837564.605 8 -11308662.21147  21540631.121    21540637.1124
  20900608.587    -5435987.664 9  -4225698.66248  20900608.420    20900614.2004
 99  8 18  1 35 30.0000000  0  8 01 18 19 25 04 16 22 14
  22423544.513    10026775.981 8   7811212.22046  22423544.403    22423551.2564
  21681559.960   -19950260.821 8 -15527181.30947  21681559.748    21681565.8474
  23209217.594    -9732923.973 8  -7567440.48046  23209217.254    23209225.6884
  24477617.775    18519162.128 7  14428435.15245  24477617.438    24477624.5104
  23735723.814    -8674827.311 8  -6745986.52345  23735723.950    23735731.0804
  20388250.979   -21196200.704 9 -16503484.52448  20388250.568    20388256.6064
  21543408.348   -14822974.769 8 -11297293.50147  21543407.390    21543413.4604
  20912662.986    -5372641.522 9  -4176338.07248  20912662.825    20912668.6244
 99  8 18  1 36  0.0000000  0  8 01 18 19 25 04 16 22 14
  22436483.463    10094771.292 8   7864195.54346  22436483.456    22436490.4024
  21667820.594   -20022461.941 8 -15583441.87547  21667820.370    21667826.3394
  23192560.239    -9820458.608 8  -7635649.20746  23192559.974    23192568.2234
  24495595.472    18613634.742 7  14502050.18245  24495595.102    24495602.1334
  23736595.343    -8670248.581 8  -6742418.70145  23736595.506    23736602.5674
  20387461.938   -21200347.762 9 -16506715.98748  20387461.464    20387467.4874
  21546300.584   -14807775.730 8 -11285450.10747  21546299.796    21546305.7044
  20924805.781    -5308830.651 9  -4126615.34548  20924805.599    20924811.4944
 99  8 18  1 36 30.0000000  0  8 01 18 19 25 04 16 22 14
  22449457.937    10162952.558 8   7917323.75546  22449457.944    22449464.9174
  21654121.668   -20094450.734 8 -15639537.00147  21654121.374    21654127.2754
  23175936.580    -9907815.728 8  -7703719.63145  23175936.253    23175944.4124
  24513575.064    18708120.176 7  14575675.22345  24513575.115    24513581.9624
  23737574.252    -8665103.802 8  -6738409.76045  23737574.309    23737581.4164
  20386779.121   -21203935.152 9 -16509511.35748  20386778.767    20386784.8694
  21549311.633   -14791952.145 8 -11273120.04347  21549310.793    21549316.8384
  20937037.512    -5244552.155 9  -4076528.24248  20937037.361    20937043.3154
 99  8 18  1 37  0.0000000  0  8 01 18 19 25 04 16 22 14
  22462470.080    10231331.550 8   7970606.03246  22462470.045    22462477.1944
  21640464.697   -20166218.263 8 -15695459.72247  21640464.418    21640470.3604
  23159349.744    -9994979.807 8  -7771639.60945  23159349.377    23159357.5064
  24531557.988    18802623.032 7  14649313.82845  24531558.257    24531565.1844
  23738660.138    -8659396.945 8  -6733962.88445  23738660.357    23738667.2504
  20386205.001   -21206952.702 9 -16511862.68948  20386204.535    20386210.6204
  21552442.460   -14775498.428 8 -11260298.96347  21552441.855    21552447.9124
  20949357.610    -5179809.901 9  -4026079.78947  20949357.452    20949363.4214
 99  8 18  1 37 30.0000000  0  8 01 18 19 25 04 16 22 14
  22475522.683    10299923.589 8   8024054.32846  22475522.669    22475529.9054
  21626851.577   -20237755.788 8 -15751203.19647  21626851.293    21626857.3104
  23142800.064   -10081946.831 8  -7839406.04146  23142799.863    23142808.1274
  24549546.093    18897153.019 7  14722973.58045  24549546.382    24549553.5704
  23739852.159    -8653133.600 8  -6729082.37045  23739852.302    23739859.2864
  20385740.185   -21209395.045 9 -16513765.82248  20385739.766    20385745.8454
  21555694.286   -14758410.338 8 -11246983.59847  21555693.564    21555699.6254
  20961764.791    -5114609.946 9  -3975274.69347  20961764.652    20961770.5864
 99  8 18  1 38  0.0000000  0  8 01 18 19 25 04 16 22 14
  22488613.258    10368714.394 8   8077657.52646  22488613.187    22488620.5754
  21613279.133   -20309079.057 8 -15806779.71747  21613278.878    21613284.8674
  23126289.094   -10168712.759 8  -7907015.75746  23126288.813    23126297.2754
  24567542.899    18991719.151 7  14796661.45545  24567542.512    24567548.8834
  23741147.616    -8646325.514 8  -6723777.33145  23741147.805    23741155.0574
  20385385.051   -21211261.567 9 -16515220.24748  20385384.572    20385390.6374
  21559071.510   -14740663.677 8 -11233155.03247  21559070.726    21559076.7014
  20974259.498    -5048950.206 9  -3924111.29547  20974259.332    20974265.1994
 99  8 18  1 38 30.0000000  0  8 01 18 19 25 04 16 22 14
  22501738.726    10437687.838 8   8131403.00846  22501738.521    22501745.7954
  21599746.234   -20380194.284 8 -15862194.13047  21599745.957    21599752.0594
  23109817.270   -10255272.499 8  -7974464.81246  23109816.877    23109825.3604
  24585546.558    19086330.420 7  14870384.57845  24585546.311    24585552.5934
  23742546.436    -8638974.480 8  -6718049.23745  23742546.697    23742553.8764
  20385139.262   -21212553.102 9 -16516226.63748  20385138.822    20385144.8834
  21562576.093   -14722246.359 8 -11218803.88147  21562575.370    21562581.4374
  20986845.096    -4982811.908 9  -3872574.98847  20986844.970    20986850.8594
 99  8 18  1 39  0.0000000  0  8 01 18 19 25 04 16 22 14
  22514897.433    10506835.787 8   8185284.46746  22514897.081    22514904.3584
  21586252.501   -20451102.725 8 -15917447.40447  21586252.289    21586258.6284
  23093384.262   -10341627.830 8  -8041754.61046  23093383.923    23093392.4044
  24603556.959    19180978.165 7  14944136.06445  24603556.982    24603563.6604
  23744049.577    -8631075.831 8  -6711894.48745  23744049.707    23744056.9694
  20385002.507   -21213271.999 9 -16516786.82548  20385002.027    20385008.1224
  21566208.682   -14703157.363 8 -11203929.32847  21566207.915    21566213.9764
  20999524.417    -4916182.057 9  -3820655.65947  20999524.252    20999530.1474
 99  8 18  1 39 30.0000000  0  8 01 18 19 25 04 16 22 14
  22528090.340    10576164.137 8   8239306.50846  22528089.938    22528097.0084
  21572796.150   -20521815.683 8 -15972548.35847  21572795.904    21572802.4504
  23076990.332   -10427777.265 8  -8108883.98246  23076990.142    23076998.5774
  24621574.080    19275659.749 7  15017913.91745  24621574.389    24621580.8534
  23745656.028    -8622633.680 8  -6705316.17745  23745656.154    23745663.5344
  20384977.374   -21213404.044 9 -16516889.71648  20384976.924    20384983.0104
  21569970.019   -14683391.626 8 -11188527.47547  21569969.211    21569975.3254
  21012299.381    -4849049.722 9  -3768344.78947  21012299.158    21012305.0584
 99  8 18  1 40  0.0000000  0  8 01 18 19 25 04 16 22 14
  22541317.240    10645671.226 8   8293467.82846  22541316.761    22541323.7744
  21559376.561   -20592334.457 8 -16027497.99947  21559376.404    21559383.1914
  23060639.807   -10513700.227 8  -8175836.84646  23060639.382    23060647.9064
  24639599.945    19370383.826 7  15091724.87445  24639599.830    24639606.1664
  23747366.526    -8613644.787 8  -6698311.86045  23747366.680    23747373.9574
  20385064.444   -21212946.295 9 -16516533.03748  20385063.974    20385070.0614
  21573856.629   -14662967.302 8 -11172612.39647  21573855.781    21573861.8384
  21025170.837    -4781409.863 9  -3715638.44747  21025170.637    21025176.6104
 99  8 18  1 40 30.0000000  0  8 01 18 19 25 04 16 22 14
  22554580.275    10715369.398 8   8347778.05246  22554579.919    22554586.9074
  21545993.671   -20662661.531 8 -16082298.27447  21545993.500    21546000.3214
  23044332.884   -10599391.859 8  -8242609.46946  23044332.760    23044341.2354
  24657630.287    19465138.431 7  15165559.68345  24657630.558    24657637.7134
  23749181.238    -8604108.439 8  -6690880.94045  23749181.374    23749188.8714
  20385263.058   -21211902.745 9 -16515719.87348  20385262.606    20385268.6294
  21577862.406   -14641915.920 8 -11156208.73547  21577861.687    21577867.7974
  21038137.132    -4713271.183 9  -3662543.43047  21038136.971    21038143.0764
 99  8 18  1 41  0.0000000  0  8 01 18 19 25 04 16 22 14
  22567882.232    10785271.496 8   8402247.18346  22567881.880    22567888.8244
  21532647.117   -20732797.960 8 -16136949.98847  21532646.979    21532653.7464
  23028073.607   -10684835.507 8  -8309188.81746  23028073.427    23028081.9064
  24675664.887    19559911.461 7  15239408.80645  24675665.511    24675672.7284
  23751097.151    -8594039.864 8  -6683035.33445  23751097.287    23751104.9474
  20385572.275   -21210277.460 9 -16514453.43048  20385571.832    20385577.9744
  21581985.042   -14620252.038 8 -11139327.76047  21581984.213    21581990.2944
  21051193.737    -4644658.012 9  -3609078.66947  21051193.652    21051199.7954
 99  8 18  1 41 30.0000000  0  8 01 18 19 25 04 16 22 14
  22581223.008    10855377.434 8   8456875.13246  22581222.665    22581229.5254
  21519336.353   -20802746.907 8 -16191455.61047  21519336.203    21519342.7904
  23011859.922   -10770038.384 8  -8375580.59546  23011859.621    23011868.2604
  24693704.241    19654706.880 7  15313275.34845  24693704.474    24693711.2404
  23753110.828    -8583458.024 8  -6674789.76245  23753110.973    23753118.4344
  20385988.900   -21208088.027 9 -16512747.37548  20385988.494    20385994.6234
  21586220.637   -14597993.313 8 -11121983.29347  21586219.881    21586225.9604
  21064335.566    -4575597.119 9  -3555265.03247  21064335.454    21064341.6524
 99  8 18  1 42  0.0000000  0  8 01 18 19 25 04 16 22 14
  22594600.237    10925675.573 8   8511652.84346  22594600.014    22594606.7844
  21506062.344   -20872503.198 8 -16245811.12047  21506062.143    21506068.5474
  22995688.379   -10855020.441 8  -8441800.30246  22995688.206    22995696.6084
  24711745.471    19749515.645 7  15387152.34945  24711745.925    24711752.5174
  23755221.894    -8572363.236 8  -6666144.49145  23755222.072    23755229.6494
  20386509.296   -21205353.490 9 -16510616.57848  20386508.854    20386514.9164
  21590566.750   -14575154.353 8 -11104186.69147  21590566.012    21590572.0674
  21077560.497    -4506099.581 9  -3501111.15547  21077560.428    21077566.6214
 99  8 18  1 42 30.0000000  0  8 01 18 19 25 04 16 22 14
  22608012.615    10996157.643 8   8566573.88546  22608012.409    22608019.0644
  21492824.941   -20942066.237 8 -16300016.05247  21492824.747    21492831.1364
  22979554.090   -10939806.093 8  -8507867.00546  22979553.925    22979562.4144
  24729786.527    19844323.280 7  15461028.43545  24729786.935    24729793.7084
  23757432.438    -8560747.660 8  -6657093.46046  23757432.651    23757440.2494
  20387134.831   -21202066.367 9 -16508055.19048  20387134.381    20387140.5004
  21595027.244   -14551712.936 8 -11085920.63947  21595026.724    21595032.6944
  21090868.536    -4436165.810 9  -3446617.33647  21090868.445    21090874.6204
 99  8 18  1 43  0.0000000  0  7 01 18 19 04 16 22 14
  22621457.024    11066807.819 8   8621625.93246  22621456.691    22621463.3914
  21479626.185   -21011425.687 8 -16354062.33047  21479625.994    21479632.3374
  22963455.653   -11024404.731 8  -8573787.90746  22963455.391    22963463.7454
  23759743.799    -8548601.201 7  -6647628.69745  23759743.993    23759751.5424
  20387865.442   -21198226.536 9 -16505063.11248  20387865.065    20387871.1804
  21599609.323   -14527634.725 8 -11067158.37647  21599608.702    21599614.6964
  21104259.608    -4365795.528 9  -3391783.38747  21104259.465    21104265.6344
 99  8 18  1 43 30.0000000  0  7 01 18 19 04 16 22 14
  22634932.997    11137623.516 8   8676806.92246  22634932.552    22634939.1864
  21466469.429   -21080565.836 8 -16407937.72447  21466469.203    21466475.4414
  22947392.601   -11108816.538 8  -8639563.25546  22947392.401    22947400.6714
  23762160.408    -8535899.946 8  -6637731.63045  23762160.808    23762168.4974
  20388704.716   -21193816.424 9 -16501626.66148  20388704.274    20388710.4114
  21604317.083   -14502894.904 8 -11047880.58947  21604316.533    21604322.4794
  21117739.153    -4294959.899 9  -3336586.82147  21117739.044    21117745.2404
 99  8 18  1 44  0.0000000  0  7 01 18 19 04 16 22 14
  22648437.579    11208591.087 8   8732106.27346  22648437.184    22648443.8134
  21453354.128   -21149487.658 9 -16461643.00747  21453353.942    21453359.9414
  22931365.037   -11193041.207 8  -8705192.75046  22931364.747    22931373.1754
  23764683.777    -8522641.761 8  -6627400.62145  23764683.992    23764691.3604
  20389653.827   -21188828.861 9 -16497740.25948  20389653.417    20389659.4764
  21609153.247   -14477481.892 8 -11028078.22547  21609152.505    21609158.3824
  21131307.021    -4223660.487 9  -3281028.87947  21131306.911    21131313.1764
 99  8 18  1 44 30.0000000  0  7 01 18 19 04 16 22 14
  22661972.883    11279718.903 8   8787530.51446  22661972.373    22661979.0624
  21440281.369   -21218185.975 9 -16515174.11847  21440281.142    21440287.0944
  22915377.533   -11277055.150 8  -8770658.07446  22915377.404    22915385.5784
  23767312.365    -8508827.504 8  -6616636.31445  23767312.532    23767320.1614
  20390713.110   -21183262.043 9 -16493402.47748  20390712.694    20390718.8174
  21614120.368   -14451378.760 8 -11007738.13847  21614119.686    21614125.6834
  21144963.268    -4151896.444 9  -3225108.87647  21144963.166    21144969.4314
 99  8 18  1 45  0.0000000  0  7 01 18 19 04 16 22 14
  22675539.702    11351012.234 8   8843083.69546  22675539.171    22675545.6624
  21427250.378   -21286664.075 8 -16568533.63047  21427250.134    21427256.2114
  22899432.222   -11360847.836 8  -8835951.03946  22899432.043    22899440.2264
  23770044.661    -8494469.038 8  -6605447.89445  23770045.019    23770052.5294
  20391878.458   -21177138.008 9 -16488630.50748  20391878.047    20391884.0894
  21619212.517   -14424619.655 8 -10986886.86447  21619211.831    21619217.6554
  21158706.116    -4079677.784 9  -3168834.63247  21158705.992    21158712.2204
 99  8 18  1 45 30.0000000  0  7 01 18 19 04 16 22 14
  22689139.547    11422480.866 8   8898773.49146  22689139.155    22689145.7514
  21414259.452   -21354931.387 8 -16621728.90747  21414259.247    21414265.3844
  22883527.784   -11444426.576 8  -8901077.25346  22883527.584    22883535.6054
  23772877.458    -8479583.950 8  -6593849.20746  23772877.639    23772885.1604
  20393150.219   -21170455.271 9 -16483423.18848  20393149.796    20393155.7744
  21624422.240   -14397241.485 8 -10965553.24047  21624421.704    21624427.6744
  21172532.457    -4007019.905 9  -3112218.15447  21172532.421    21172538.5944
 99  8 18  1 46  0.0000000  0  7 01 18 19 04 16 22 14
  22702776.252    11494141.115 8   8954612.59546  22702775.705    22702782.4234
  21401309.187   -21422985.407 9 -16674757.96947  21401308.982    21401315.0714
  22867663.766   -11527792.493 8  -8966037.63746  22867663.616    22867671.5004
  23775809.734    -8464173.927 8  -6581841.39845  23775809.959    23775817.3914
  20394529.597   -21163206.929 9 -16477775.12748  20394529.111    20394535.1234
  21629748.607   -14369251.829 8 -10943743.10747  21629747.967    21629753.9434
  21186440.372    -3933933.334 9  -3055267.63047  21186440.363    21186446.5684
 99  8 18  1 46 30.0000000  0  7 01 18 19 04 16 22 14
  22716449.898    11565995.992 8   9010603.35646  22716449.349    22716456.0744
  21388397.030   -21490839.142 8 -16727630.96847  21388396.801    21388402.8574
  22851839.792   -11610947.640 8  -9030833.81146  22851839.681    22851847.6124
  23778843.665    -8448231.110 8  -6569418.44645  23778844.008    23778851.3064
  20396015.798   -21155396.724 9 -16471689.25848  20396015.352    20396021.3774
  21635186.833   -14340673.786 8 -10921474.49547  21635186.222    21635192.0514
  21200430.214    -3860416.168 9  -2997981.56947  21200430.208    21200436.4464
 99  8 18  1 47  0.0000000  0  7 01 18 19 04 16 22 14
  22730160.297    11638044.054 8   9066744.63946  22730159.748    22730166.4494
  21375521.894   -21558497.896 8 -16780352.02547  21375521.645    21375527.7094
  22836052.641   -11693909.769 8  -9095479.56946  22836052.480    22836060.2554
  23781979.835    -8431750.455 8  -6556576.42045  23781980.058    23781987.6374
  20397612.354   -21147006.747 9 -16465151.62848  20397611.907    20397617.9634
  21640735.353   -14311516.732 8 -10898754.71447  21640734.661    21640740.6344
  21214502.145    -3786467.824 9  -2940359.52447  21214502.126    21214508.3704
 99  8 18  1 47 30.0000000  0  7 01 18 19 04 16 22 14
  22743908.104    11710289.149 8   9123039.48446  22743907.630    22743914.2554
  21362686.441   -21625948.337 9 -16832910.77147  21362686.240    21362692.2694
  22820304.296   -11776668.031 8  -9159966.43146  22820304.043    22820311.8554
  23785220.031    -8414722.711 8  -6543308.09545  23785220.334    23785227.7594
  20399326.214   -21138000.328 9 -16458133.64148  20399325.810    20399331.8434
  21646399.938   -14281748.632 8 -10875558.78747  21646399.299    21646405.2384
  21228660.466    -3712065.976 9  -2882384.10047  21228660.404    21228666.6084
 99  8 18  1 48  0.0000000  0  7 01 18 19 04 16 22 14
  22757693.881    11782732.110 8   9179488.50746  22757693.267    22757699.6854
  21349893.190   -21693177.543 9 -16885297.12847  21349892.977    21349898.9254
  22804599.395   -11859197.021 8  -9224274.64846  22804599.334    22804606.8804
  23788567.559    -8397132.491 8  -6529601.45045  23788567.788    23788575.0374
  20401158.209   -21128373.804 9 -16450632.45448  20401157.703    20401163.7424
  21652183.628   -14251356.032 8 -10851876.22347  21652182.866    21652188.7784
  21242908.501    -3637192.572 9  -2824041.22547  21242908.430    21242914.5424
 99  8 18  1 48 30.0000000  0  7 01 18 19 04 16 22 14
  22771516.846    11855371.388 8   9236090.49046  22771516.127    22771522.5404
  21337142.174   -21760184.847 9 -16937510.57347  21337141.964    21337147.8684
  22788940.693   -11941483.339 8  -9288393.77646  22788940.575    22788948.4314
  23792020.584    -8378985.575 8  -6515461.01345  23792020.916    23792028.5134
  20403107.417   -21118130.231 9 -16442650.46248  20403106.953    20403113.0334
  21658086.092   -14220337.570 8 -10827706.00347  21658085.419    21658091.5494
  21257246.916    -3561843.725 9  -2765327.88747  21257246.844    21257252.9314
 99  8 18  1 49  0.0000000  0  7 01 18 19 04 16 22 14
  22785375.154    11928197.702 8   9292838.23046  22785374.474    22785380.9024
  21324435.869   -21826957.198 9 -16989540.94047  21324435.640    21324441.4804
  22773328.671   -12023524.896 8  -9352322.16346  22773328.463    22773336.2994
  23795575.109    -8360307.429 8  -6500906.65145  23795575.327    23795582.6914
  20405172.656   -21107277.459 9 -16434193.76848  20405172.193    20405178.2844
  21664109.905   -14188682.870 8 -10803039.99047  21664109.169    21664115.1504
  21271674.840    -3486024.497 9  -2706248.00147  21271674.796    21271680.8774
 99  8 18  1 49 30.0000000  0  7 01 18 19 04 16 22 14
  22799268.663    12001208.754 8   9349729.92246  22799267.995    22799274.4484
  21311774.941   -21893490.290 9 -17041384.86347  21311774.725    21311780.6624
  22757766.607   -12105303.075 8  -9416045.35546  22757766.456    22757774.4404
  23799227.619    -8341113.568 8  -6485950.44545  23799227.857    23799235.1524
  20407350.107   -21095834.519 9 -16425277.19148  20407349.646    20407355.7554
  21670255.123   -14156389.420 8 -10777876.26447  21670254.345    21670260.3824
  21286192.005    -3409736.409 9  -2646802.76847  21286191.936    21286198.0544
 99  8 18  1 50  0.0000000  0  7 01 18 19 04 16 22 14
  22813195.841    12074397.410 8   9406760.01146  22813195.344    22813201.7814
  21299158.986   -21959787.944 9 -17093045.34047  21299158.739    21299164.6594
  22742254.075   -12186821.974 8  -9479566.50046  22742253.865    22742261.8134
  23802975.034    -8321420.828 8  -6470605.42845  23802975.213    23802982.6924
  20409633.573   -21083835.135 9 -16415927.02748  20409633.095    20409639.1574
  21676519.880   -14123467.926 8 -10752223.14747  21676519.158    21676525.3414
  21300794.383    -3333000.370 9  -2587008.49947  21300794.317    21300800.5554
 99  8 18  1 50 30.0000000  0  7 01 18 19 04 16 22 14
  22827153.007    12147742.587 8   9463912.05846  22827152.491    22827158.8994
  21286586.311   -22025857.652 9 -17144528.17947  21286586.083    21286592.0584
  22726786.113   -12268105.979 8  -9542904.59046  22726785.934    22726793.7974
  23806812.864    -8301252.777 8  -6454890.10545  23806813.106    23806820.5864
  20412018.513   -21071302.285 9 -16406161.17548  20412018.024    20412024.0964
  21682902.424   -14089926.874 8 -10726087.25847  21682901.730    21682907.8374
  21315479.631    -3255829.007 9  -2526875.01247  21315479.540    21315485.8614
 99  8 18  1 51  0.0000000  0  7 01 18 19 04 16 22 14
  22841137.989    12221234.789 8   9521178.66646  22841137.590    22841144.0104
  21274059.534   -22091685.954 9 -17195822.92747  21274059.335    21274065.2914
  22711361.457   -12349162.752 8  -9606065.62646  22711361.243    22711369.0024
  23810740.248    -8280614.769 8  -6438808.54645  23810740.448    23810747.7294
  20414503.227   -21058244.832 9 -16395986.54348  20414502.764    20414508.8214
  21689402.131   -14055770.922 8 -10699472.23547  21689401.419    21689407.4724
  21330244.251    -3178240.907 9  -2466416.80147  21330244.109    21330250.4064
 99  8 18  1 51 30.0000000  0  7 01 18 19 04 16 22 14
  22855152.100    12294881.336 8   9578565.55546  22855151.917    22855158.4714
  21261577.604   -22157278.655 9 -17246934.08247  21261577.397    21261583.4304
  22695979.121   -12429995.850 8  -9669052.35246  22695979.060    22695986.8494
  23814758.491    -8259498.088 8  -6422354.01545  23814758.765    23814766.2994
  20417088.961   -21044656.946 9 -16385398.57648  20417088.434    20417094.5254
  21696017.017   -14021010.029 8 -10672385.82147  21696016.171    21696022.3764
  21345084.997    -3100252.665 9  -2405646.78847  21345084.805    21345091.1134
 99  8 18  1 52  0.0000000  0  7 01 18 19 04 16 22 14
  22869195.706    12368681.901 8   9636072.46346  22869195.576    22869202.2904
  21249141.954   -22222627.769 9 -17297855.44047  21249141.775    21249147.9024
  22680637.965   -12510614.062 8  -9731871.64946  22680637.801    22680645.6764
  23818871.084    -8237887.075 8  -6405514.29245  23818871.239    23818878.7764
  20419777.852   -21030526.953 9 -16374388.20548  20419777.352    20419783.3724
  21702743.959   -13985659.482 8 -10644839.93847  21702743.094    21702749.1624
  21360000.739    -3021870.130 9  -2344569.53347  21360000.529    21360006.8994
 99  8 18  1 52 30.0000000  0  7 01 18 19 04 16 22 14
  22883271.242    12442650.106 8   9693709.98646  22883271.211    22883277.9964
  21236753.419   -22287729.576 9 -17348584.09047  21236753.222    21236759.3974
  22665336.459   -12591024.714 8  -9794529.20246  22665336.255    22665343.8564
  23823081.693    -8215759.567 8  -6388272.08845  23823081.893    23823089.2484
  20422574.314   -21015831.040 9 -16362936.84648  20422573.846    20422579.9924
  21709582.650   -13949721.972 8 -10616836.67547  21709581.809    21709587.8734
  21374992.304    -2943088.458 9  -2283181.27547  21374992.171    21374998.5834
 99  8 18  1 53  0.0000000  0  7 01 18 19 04 16 22 14
  22897382.239    12516802.974 8   9751491.40046  22897382.142    22897388.9524
  21224411.292   -22352587.570 9 -17399122.74947  21224411.066    21224417.3484
  22650074.947   -12671224.409 8  -9857022.37046  22650074.720    22650082.5194
  23827394.161    -8193098.749 8  -6370614.29245  23827394.238    23827401.4134
  20425482.969   -21000546.319 9 -16351026.67548  20425482.493    20425488.5984
  21716533.486   -13913194.270 8 -10588373.53047  21716532.687    21716538.9864
  21390060.375    -2863905.944 9  -2221480.67547  21390060.169    21390066.5784
 99  8 18  1 53 30.0000000  0  7 01 18 19 04 16 22 14
  22911529.671    12591147.875 8   9809422.44546  22911529.558    22911536.4414
  21212113.963   -22417209.614 9 -17449477.55147  21212113.750    21212120.1334
  22634853.961   -12751210.537 8  -9919349.12046  22634853.717    22634861.5664
  23831810.750    -8169888.447 8  -6352528.38045  23831810.861    23831818.4124
  20428505.981   -20984660.547 9 -16338648.15848  20428505.460    20428511.5994
  21723597.663   -13876071.042 8 -10559446.34647  21723596.997    21723603.1404
  21405211.203    -2784288.257 9  -2159440.96747  21405210.961    21405217.3094
 99  8 18  1 54  0.0000000  0  7 01 18 19 04 16 22 14
  22925713.209    12665681.827 8   9867500.82446  22925712.989    22925719.8764
  21199861.395   -22481596.737 9 -17499649.30447  21199861.202    21199867.6374
  22619672.357   -12830989.629 8  -9981514.54646  22619672.217    22619679.9724
  23836331.985    -8146130.112 8  -6334015.42545  23836332.250    23836339.5074
  20431641.693   -20968182.087 9 -16325807.80348  20431641.209    20431647.2864
  21730775.981   -13838349.344 8 -10530052.79947  21730775.208    21730781.3664
  21420446.877    -2704224.056 9  -2097053.31947  21420446.683    21420453.0174
 99  8 18  1 54 30.0000000  0  7 01 18 19 04 16 22 14
  22939931.700    12740399.080 8   9925722.02046  22939931.306    22939938.1054
  21187651.242   -22545760.458 9 -17549646.97047  21187651.095    21187657.5964
  22604531.268   -12910556.881 8 -10043514.90246  22604531.030    22604538.6704
  23840954.233    -8121840.005 8  -6315088.09945  23840954.431    23840961.6414
  20434886.277   -20951131.416 9 -16312521.56548  20434885.793    20434891.8604
  21738072.246   -13800006.223 8 -10500175.06047  21738071.606    21738077.8404
  21435766.677    -2623718.044 9  -2034321.41547  21435766.488    21435772.8204
 99  8 18  1 55  0.0000000  0  7 01 18 19 04 16 22 14
  22954180.150    12815274.057 8   9984066.12446  22954179.662    22954186.3834
  21175481.712   -22609711.337 9 -17599478.78647  21175481.599    21175488.1114
  22589431.853   -12989904.466 8 -10105344.07546  22589431.732    22589439.4154
  23845673.501    -8097040.110 8  -6295763.52445  23845673.724    23845680.8944
  20438236.284   -20933526.758 9 -16298803.64848  20438235.824    20438241.9394
  21745485.091   -13761052.167 8 -10469821.23447  21745484.355    21745490.4614
  21451167.819    -2542784.283 9  -1971256.19147  21451167.695    21451174.0624
 99  8 18  1 55 30.0000000  0  7 01 18 19 04 16 22 14
  22968457.418    12890300.699 8  10042528.39346  22968456.848    22968463.5774
  21163352.914   -22673449.014 9 -17649144.47547  21163352.736    21163359.2274
  22574375.525   -13069025.220 8 -10166996.53246  22574375.394    22574383.1814
  23850486.305    -8071749.093 8  -6276056.22345  23850486.531    23850493.6804
  20441689.269   -20915381.108 9 -16284664.18848  20441688.833    20441694.9774
  21753012.492   -13721495.208 8 -10438997.64047  21753011.773    21753017.9284
  21466648.084    -2461435.331 9  -1907867.44747  21466647.998    21466654.3414
 99  8 18  1 56  0.0000000  0  7 01 18 19 04 16 22 14
  22982762.562    12965474.057 8  10101105.00046  22982761.954    22982768.7294
  21151264.249   -22736974.850 9 -17698645.08147  21151264.105    21151270.7174
  22559363.835   -13147912.470 8 -10228467.00246  22559363.579    22559371.2874
  23855390.890    -8045975.350 8  -6255972.85145  23855391.136    23855398.4734
  20445243.971   -20896701.094 9 -16270108.33448  20445243.522    20445249.6704
  21760652.990   -13681344.350 8 -10407711.25947  21760652.194    21760658.4304
  21482203.065    -2379694.334 9  -1844173.21447  21482202.920    21482209.2204
 99  8 18  1 56 30.0000000  0  7 01 18 19 04 16 22 14
  22997093.653    13040784.038 8  10159788.04546  22997093.074    22997099.8024
  21139216.176   -22800287.543 9 -17747979.60247  21139216.045    21139222.6404
  22544395.758   -13226569.243 8 -10289757.93046  22544395.659    22544403.3714
  23860385.211    -8019730.003 8  -6235521.97145  23860385.359    23860392.8544
  20448901.483   -20877480.940 9 -16255131.58948  20448901.020    20448907.1204
  21768403.870   -13640613.572 8 -10375972.98947  21768403.048    21768409.1284
  21497829.974    -2297575.121 9  -1780184.26947  21497829.752    21497836.0104
 99  8 18  1 57  0.0000000  0  7 01 18 19 04 16 22 14
  23011453.698    13116246.539 8  10218589.95446  23011453.152    23011459.9184
  21127212.688   -22863366.837 9 -17797132.25247  21127212.515    21127218.9674
  22529471.790   -13304995.235 8 -10350869.00546  22529471.651    22529479.3104
  23865471.428    -7993001.918 8  -6214694.88845  23865471.678    23865479.0404
  20452667.713   -20857689.196 9 -16239709.44348  20452667.273    20452673.4454
  21776262.499   -13599316.162 8 -10343793.17547  21776261.628    21776267.7864
  21513530.552    -2215067.856 8  -1715892.95047  21513530.353    21513536.6864
 99  8 18  1 57 30.0000000  0  7 01 18 19 04 16 22 14
  23025847.303    13191885.511 8  10277529.35446  23025846.718    23025853.5434
  21115257.318   -22926192.931 9 -17846087.60947  21115257.141    21115263.3994
  22514593.860   -13383179.847 8 -10411791.97746  22514593.741    22514601.2364
  23870651.372    -7965781.055 8  -6193483.84645  23870651.512    23870658.8224
  20456548.168   -20837297.635 9 -16223819.91448  20456547.727    20456553.8104
  21784231.987   -13557435.602 8 -10311158.98447  21784231.270    21784237.4904
  21529308.112    -2132155.916 8  -1651286.29647  21529307.951    21529314.3814
 99  8 18  1 58  0.0000000  0  7 01 18 19 04 16 22 14
  23040276.158    13267710.815 8  10336613.94246  23040275.819    23040282.6334
  21103354.920   -22988741.266 9 -17894826.53347  21103354.701    21103360.7774
  22499762.833   -13461117.131 8 -10472522.19946  22499762.629    22499770.1874
  23875927.874    -7938052.946 8  -6171877.59445  23875928.029    23875935.3804
  20460545.947   -20816289.290 9 -16207449.76948  20460545.499    20460551.5784
  21792316.514   -13514952.345 8 -10278055.13447  21792315.624    21792321.6614
  21545164.165    -2048830.987 8  -1586357.82247  21545164.083    21545170.6374
 99  8 18  1 58 30.0000000  0  7 01 18 19 04 16 22 14
  23054743.497    13343736.921 8  10395855.02246  23054743.084    23054749.8834
  21091508.337   -23050995.941 9 -17943336.62647  21091508.093    21091514.0684
  22484980.828   -13538795.660 8 -10533050.81246  22484980.732    22484988.3744
  23881301.618    -7909814.170 8  -6149873.39345  23881301.759    23881309.2024
  20464664.596   -20794645.456 9 -16190584.43248  20464664.178    20464670.2064
  21800518.657   -13471848.568 8 -10244467.77847  21800517.895    21800523.9644
  21561099.111    -1965092.184 8  -1521106.86247  21561098.972    21561105.6554
 99  8 18  1 59  0.0000000  0  7 01 18 19 04 16 22 14
  23069251.578    13419977.829 8  10455263.46946  23069251.219    23069258.0104
  21079719.622   -23112946.317 9 -17991609.59847  21079719.394    21079725.2614
  22470250.878   -13616202.212 8 -10593367.48946  22470250.700    22470258.3584
  23886772.424    -7881065.215 8  -6127471.63045  23886772.492    23886780.1164
  20468906.354   -20772354.771 9 -16173215.06048  20468905.921    20468911.9484
  21808842.249   -13428109.278 8 -10210385.20647  21808841.353    21808847.4814
  21577114.302    -1880931.235 8  -1455526.94547  21577114.284    21577121.0324
 99  8 18  1 59 30.0000000  0  7 01 18 19 04 16 22 14
  23083800.307    13496432.095 8  10514838.17546  23083800.078    23083806.7364
  21067989.036   -23174591.131 9 -18039644.47947  21067988.815    21067994.5454
  22455574.929   -13693324.334 8 -10653462.55846  22455574.720    22455582.3994
  23892341.092    -7851800.862 8  -6104668.23645  23892341.366    23892348.9994
  20473268.019   -20749434.090 9 -16155354.78548  20473267.582    20473273.6494
  21817288.618   -13383722.991 8 -10175798.49147  21817287.716    21817293.8934
  21593211.986    -1796338.265 8  -1389610.38047  21593211.880    21593218.6484
 99  8 18  2  0  0.0000000  0  7 01 18 19 04 16 22 14
  23098387.552    13573087.594 8  10574569.67446  23098387.249    23098393.7554
  21056313.752   -23235945.276 9 -18087452.85747  21056313.508    21056319.1704
  22440951.031   -13770173.197 8 -10713344.68846  22440950.883    22440958.3324
  23898007.716    -7822024.397 7  -6081465.87145  23898007.844    23898015.2354
  20477742.544   -20725920.069 9 -16137032.17248  20477742.094    20477748.2694
  21825855.535   -13338702.682 8 -10140717.72147  21825854.775    21825860.8484
  21609388.196    -1711332.167 8  -1323371.89647  21609388.092    21609394.8504
 99  8 18  2  0 30.0000000  0  7 01 18 19 04 16 22 14
  23113010.245    13649928.183 8  10634445.40946  23113009.597    23113016.0284
  21044688.179   -23297037.818 9 -18135057.38547  21044687.966    21044693.5564
  22426375.766   -13846766.323 8 -10773027.54846  22426375.583    22426383.0574
  23903768.864    -7791746.111 7  -6057872.42745  23903769.126    23903777.1844
  20482326.997   -20701828.598 9 -16118259.58748  20482326.530    20482332.6704
  21834537.596   -13293078.677 8 -10105166.53347  21834536.785    21834542.8634
  21625641.030    -1625923.218 8  -1256819.50347  21625640.920    21625647.6964
 99  8 18  2  1  0.0000000  0  7 01 18 19 04 16 22 14
  23127664.407    13726936.913 8  10694452.16346  23127663.792    23127670.4054
  21033110.647   -23357878.445 9 -18182465.61947  21033110.361    21033115.9434
  22411844.785   -13923126.893 8 -10832529.19546  22411844.623    22411851.9744
  23909626.752    -7760963.494 8  -6033886.03345  23909627.019    23909634.8034
  20487015.762   -20677189.293 9 -16099060.13048  20487015.245    20487021.3154
  21843330.850   -13246869.899 8 -10069159.69647  21843329.947    21843336.1444
  21641970.633    -1540110.106 8  -1189952.19547  21641970.645    21641977.4174
 99  8 18  2  1 30.0000000  0  7 01 18 19 04 16 22 14
  23142347.268    13804096.790 8  10754576.69546  23142346.786    23142353.5654
  21021575.002   -23418498.514 9 -18229701.99747  21021574.717    21021580.2514
  22397353.821   -13999276.247 8 -10891866.27346  22397353.695    22397361.0684
  23915581.095    -7729674.886 8  -6009505.33745  23915581.267    23915588.9124
  20491801.150   -20652041.054 9 -16079464.10148  20491800.721    20491806.9014
  21852229.510   -13200107.092 8 -10032721.13547  21852228.617    21852234.7944
  21658373.255    -1453913.841 8  -1122786.32647  21658373.300    21658380.0444
 99  8 18  2  2  0.0000000  0  7 01 18 19 04 16 22 14
  23157056.345    13881392.934 8  10814807.43446  23157055.724    23157062.6624
  21010078.028   -23478914.797 9 -18276779.57147  21010077.776    21010083.3404
  22382897.555   -14075243.891 8 -10951061.71746  22382897.353    22382904.8654
  23921628.299    -7697896.284 7  -5984742.81045  23921628.472    23921636.5974
  20496683.081   -20626386.348 9 -16059473.42348  20496682.612    20496688.8724
  21861229.731   -13152811.136 8  -9995867.13847  21861228.776    21861234.9714
  21674843.407    -1367363.070 8  -1055344.22447  21674843.478    21674850.1564
 99  8 18  2  2 30.0000000  0  7 01 18 19 04 16 22 14
  23171790.084    13958819.874 8  10875140.06046  23171789.554    23171796.5034
  20998621.852   -23539117.219 9 -18323690.51147  20998621.597    20998627.2434
  22368474.257   -14151039.039 8 -11010122.73946  22368474.127    22368481.5644
  23927767.340    -7665634.412 7  -5959603.75145  23927767.481    23927775.5164
  20501665.130   -20600205.440 9 -16039072.71648  20501664.663    20501670.8704
  21870329.495   -13104990.279 8  -9958604.12347  21870328.706    21870334.8574
  21691384.208    -1280441.465 8   -987613.16247  21691384.197    21691390.8074
 99  8 18  2  3  0.0000000  0  7 01 18 19 04 16 22 14
  23186549.262    14036380.913 8  10935577.18446  23186548.916    23186555.9294
  20987209.400   -23599089.341 9 -18370421.98547  20987209.148    20987214.8714
  22354086.936   -14226644.664 8 -11069036.13446  22354086.817    22354094.1134
  23933997.147    -7632897.613 8  -5934094.56845  23933997.298    23934005.0444
  20506748.864   -20573490.224 9 -16018255.66448  20506748.433    20506754.6184
  21879530.864   -13056636.620 8  -9920925.93947  21879530.086    21879536.1584
  21707995.706    -1193147.900 8   -919592.24547  21707995.697    21708002.2904
 99  8 18  2  3 30.0000000  0  7 01 18 19 04 16 22 14
  23201337.799    14114095.988 8  10996134.35046  23201337.618    23201344.6974
  20975843.653   -23658816.617 9 -18416962.69247  20975843.426    20975849.0914
  22339740.297   -14302036.367 8 -11127782.81146  22339740.170    22339747.3734
  23940314.522    -7599700.102 8  -5908226.39145  23940314.585    23940322.5274
  20511940.487   -20546208.047 9 -15996996.82648  20511940.029    20511946.2554
  21888836.735   -13007734.291 8  -9882820.21047  21888835.964    21888842.1334
  21724679.663    -1105473.165 8   -851274.31147  21724679.647    21724686.2404
 99  8 18  2  4  0.0000000  0  7 01 18 19 04 16 22 14
  23216157.131    14191972.011 8  11056816.92746  23216156.989    23216164.1434
  20964531.012   -23718265.456 9 -18463286.43147  20964530.787    20964536.3614
  22325439.842   -14377185.103 8 -11186340.19146  22325439.819    22325446.9174
  23946717.132    -7566054.364 8  -5882009.00945  23946717.282    23946725.0574
  20517246.866   -20518322.466 9 -15975267.80648  20517246.476    20517252.7554
  21898252.354   -12958254.024 8  -9844264.16847  21898251.736    21898257.9254
  21741437.961    -1017407.365 8   -782651.63947  21741437.986    21741444.6324
 99  8 18  2  4 30.0000000  0  7 01 18 19 04 16 22 14
  23231014.435    14270045.737 8  11117653.55746  23231014.043    23231021.1054
  20953276.670   -23777407.944 9 -18509371.46647  20953276.448    20953281.8684
  22311192.975   -14452052.828 8 -11244678.57346  22311192.803    22311199.9424
  23953206.473    -7531951.848 8  -5855435.59545  23953206.690    23953214.4394
  20522670.786   -20489819.626 9 -15953057.79548  20522670.391    20522676.6414
  21907783.110   -12908170.511 8  -9805238.01947  21907782.418    21907788.3674
  21758274.410     -928931.213 8   -713709.23147  21758274.420    21758281.1084
 99  8 18  2  5  0.0000000  0  7 01 18 19 04 16 22 14
  23245911.232    14348328.615 8  11178653.14146  23245910.880    23245917.7834
  20942079.936   -23836247.426 9 -18555220.39447  20942079.710    20942085.0064
  22297003.041   -14526620.565 8 -11302783.22746  22297002.996    22297010.1534
  23959782.508    -7497395.187 8  -5828508.37145  23959782.709    23959790.4144
  20528208.782   -20460717.278 9 -15930380.64048  20528208.407    20528214.6194
  21917430.356   -12857473.845 8  -9765734.12047  21917429.630    21917435.5844
  21775184.421     -840068.537 8   -644465.64947  21775184.443    21775191.1974
 99  8 18  2  5 30.0000000  0  7 01 18 19 04 16 22 14
  23260846.940    14426815.757 8  11239811.90946  23260846.551    23260853.4264
  20930939.157   -23894792.670 9 -18600840.04947  20930938.962    20930944.0734
  22282868.112   -14600899.498 8 -11360662.83746  22282868.032    22282875.3274
  23966445.683    -7462380.213 8  -5801224.04345  23966445.894    23966453.4214
  20533856.225   -20431039.966 9 -15907255.46648  20533855.827    20533862.0604
  21927191.864   -12806175.512 8  -9725761.37247  21927191.421    21927197.4664
  21792165.847     -750830.626 8   -574929.66847  21792165.868    21792172.5764
 99  8 18  2  6  0.0000000  0  7 01 18 19 04 16 22 14
  23275818.014    14505488.661 8  11301115.42246  23275817.517    23275824.4704
  20919851.520   -23953058.867 9 -18646242.26747  20919851.348    20919856.3054
  22268785.521   -14674903.861 8 -11418328.51046  22268785.401    22268792.6994
  23973198.084    -7426897.880 8  -5773575.51645  23973198.200    23973205.5774
  20539609.219   -20400807.648 9 -15883697.81648  20539608.825    20539615.0794
  21937062.584   -12754305.969 8  -9685343.53247  21937061.908    21937067.8924
  21809214.008     -661242.740 8   -505120.98047  21809213.985    21809220.5184
 99  8 18  2  6 30.0000000  0  7 01 18 19 04 16 22 14
  23290821.654    14584332.480 8  11362552.11846  23290821.100    23290828.1614
  20908812.511   -24011069.556 9 -18691445.38747  20908812.330    20908817.1344
  22254749.656   -14748662.538 8 -11475802.73046  22254749.607    22254756.5774
  23980040.312    -7390941.885 8  -5745557.83945  23980040.483    23980048.0724
  20545463.296   -20370044.306 9 -15859726.38648  20545462.882    20545469.1454
  21947036.896   -12701890.259 8  -9644500.11247  21947036.183    21947042.1614
  21826327.051     -571313.609 8   -435046.39847  21826326.998    21826333.4734
 99  8 18  2  7  0.0000000  0  8 01 18 19 24 04 16 22 14
  23305851.751    14663316.831 8  11424098.30346  23305851.305    23305858.4744
  20897821.104   -24068830.095 9 -18736453.58447  20897820.890    20897825.5674
  22240759.207   -14822183.181 8 -11533091.48446  22240759.033    22240766.0494
  24725241.973    -3545598.895 7  -2750725.29245  24725241.703    24725251.0934
  23986971.897    -7354514.366 8  -5717172.77245  23986972.055    23986979.7664
  20551418.817   -20338747.979 9 -15835339.64148  20551418.389    20551424.6224
  21957112.834   -12648941.198 8  -9603241.09147  21957112.068    21957117.9744
  21843504.013     -481048.247 8   -364709.81247  21843503.987    21843510.4114
 99  8 18  2  7 30.0000000  0  8 01 18 19 24 04 16 22 14
  23320908.741    14742442.617 8  11485754.67946  23320908.471    23320915.8044
  20886876.028   -24126346.953 9 -18781271.89847  20886875.777    20886880.3944
  22226811.730   -14895478.193 8 -11590204.40047  22226811.559    22226818.3414
  24720790.758    -3568990.007 7  -2768952.10645  24720790.642    24720799.8374
  23993993.523    -7317615.858 8  -5688420.73745  23993993.814    23994001.4854
  20557479.648   -20306898.442 9 -15810521.82548  20557479.183    20557485.3854
  21967289.949   -12595458.994 8  -9561566.63447  21967289.342    21967295.3714
  21860748.628     -390426.622 8   -294095.60647  21860748.679    21860755.1934
 99  8 18  2  8  0.0000000  0  8 01 18 19 24 04 16 22 14
  23335991.989    14821706.186 8  11547518.46645  23335991.710    23335999.2564
  20875978.081   -24183615.968 9 -18825897.09047  20875977.821    20875982.4504
  22212905.006   -14968557.131 8 -11647148.97746  22212904.866    22212911.8014
  24716441.697    -3591845.085 7  -2786761.22145  24716441.424    24716450.6704
  24001101.792    -7280261.881 8  -5659313.80245  24001102.122    24001109.8474
  20563647.552   -20274485.996 9 -15785265.38348  20563647.053    20563653.2394
  21977570.675   -12541433.127 8  -9519468.55747  21977570.115    21977576.1104
  21878061.816     -299445.556 8   -223201.33147  21878061.843    21878068.4504
 99  8 18  2  8 30.0000000  0  8 01 18 19 24 04 16 22 14
  23351102.154    14901111.264 8  11609392.45045  23351102.068    23351109.6434
  20865130.795   -24240618.593 9 -18870314.69847  20865130.501    20865135.2114
  22199040.440   -15041414.642 8 -11703920.98046  22199040.315    22199047.3384
  24712192.824    -3614173.162 7  -2804159.73145  24712192.424    24712201.5164
  24008295.596    -7242459.318 8  -5629857.32145  24008295.883    24008303.0694
  20569923.236   -20241507.049 9 -15759567.50848  20569922.739    20569928.9704
  21987958.670   -12486843.738 8  -9476931.36447  21987958.113    21987964.0394
  21895446.073     -208091.122 8   -152016.11947  21895446.018    21895452.7274
 99  8 18  2  9  0.0000000  0  8 01 18 19 24 04 16 22 14
  23366241.884    14980671.595 8  11671387.47045  23366241.877    23366249.5634
  20854337.104   -24297339.310 9 -18914512.63547  20854336.813    20854341.5414
  22185222.678   -15114027.885 8 -11760502.68246  22185222.590    22185229.5264
  24708041.394    -3635990.099 7  -2821159.90745  24708041.029    24708050.0794
  24015574.150    -7204209.725 8  -5600052.46645  24015574.394    24015582.0994
  20576308.442   -20207952.553 9 -15733421.14848  20576307.929    20576314.1994
  21998453.136   -12431695.325 8  -9433958.56847  21998452.488    21998458.4774
  21912901.873     -116360.420 8    -80537.69847  21912901.824    21912908.5664
 99  8 18  2  9 30.0000000  0  8 01 18 19 24 04 16 22 14
  23381412.245    15060393.091 8  11733508.04145  23381412.435    23381420.0504
  20843597.266   -24353776.878 9 -18958489.93747  20843596.978    20843601.7094
  22171451.834   -15186393.937 8 -11816891.76446  22171451.713    22171458.5294
  24703988.654    -3657287.635 7  -2837755.35445  24703988.344    24703997.1614
  24022940.583    -7165498.332 8  -5569887.75345  24022941.033    24022948.7484
  20582803.494   -20173820.957 9 -15706825.09148  20582803.012    20582809.1584
  22009054.882   -12375981.623 8  -9390545.29947  22009054.369    22009060.5604
  21930429.343      -24253.040 8     -8765.77647  21930429.260    21930436.0474
 99  8 18  2 10  0.0000000  0  8 01 18 19 24 04 16 22 14
  23396611.672    15140264.774 8  11795745.64545  23396611.643    23396619.1364
  20832913.965   -24409916.661 9 -19002235.17947  20832913.734    20832918.6514
  22157730.338   -15258500.869 8 -11873078.90846  22157730.103    22157736.9954
  24700034.020    -3678069.665 7  -2853949.06945  24700033.822    24700042.5544
  24030396.833    -7126317.345 7  -5539357.22245  24030397.153    24030404.5094
  20589407.829   -20139114.594 9 -15679781.15948  20589407.330    20589413.6084
  22019762.991   -12319709.887 8  -9346697.18547  22019762.595    22019768.6834
  21948025.007       68213.247 8     63285.82547  21948025.028    21948031.8724
 99  8 18  2 10 30.0000000  0  8 01 18 19 24 04 16 22 14
  23411840.657    15220293.279 8  11858105.45945  23411840.520    23411848.1074
  20822287.525   -24465758.263 9 -19045748.08247  20822287.291    20822292.3154
  22144061.844   -15330329.174 8 -11929048.94846  22144061.685    22144068.5534
  24696178.090    -3698332.368 7  -2869738.13845  24696177.632    24696186.6144
  24037944.851    -7086649.899 8  -5508447.58645  24037945.276    24037953.1834
  20596122.583   -20103827.827 9 -15652284.97448  20596122.161    20596128.4634
  22030574.891   -12262893.705 8  -9302424.82247  22030574.361    22030580.3434
  21965688.125      161033.176 8    135612.97747  21965688.101    21965694.9754
 99  8 18  2 11  0.0000000  0  8 01 18 19 24 04 16 22 14
  23427100.305    15300481.697 8  11920589.88545  23427100.056    23427107.5714
  20811714.628   -24521318.306 9 -19089041.57147  20811714.380    20811719.5834
  22130445.352   -15401883.686 8 -11984805.63746  22130445.202    22130452.1464
  24692421.239    -3718072.870 7  -2885120.28245  24692420.883    24692430.0524
  24045585.921    -7046497.371 8  -5477160.00345  24045586.257    24045594.0164
  20602947.810   -20067960.960 9 -15624336.75148  20602947.386    20602953.7074
  22041489.644   -12205536.922 8  -9257731.21647  22041489.015    22041494.9214
  21983415.893      254192.457 8    208204.56847  21983415.798    21983422.7064
 99  8 18  2 11 30.0000000  0  8 01 18 19 24 04 16 22 14
  23442388.470    15380821.022 8  11983191.89845  23442388.201    23442395.7774
  20801196.146   -24576592.120 9 -19132112.02647  20801195.972    20801201.3724
  22116877.721   -15473181.644 8 -12040362.43046  22116877.495    22116884.5204
  24688766.010    -3737279.570 7  -2900086.45645  24688766.043    24688775.4164
  24053317.591    -7005866.128 8  -5445499.34145  24053317.904    24053326.0204
  20609881.553   -20031523.753 9 -15595944.10748  20609881.126    20609887.4454
  22052508.132   -12147635.003 8  -9212612.82247  22052507.367    22052513.3584
  22001207.371      347687.518 8    281057.79847  22001207.331    22001214.3294
 99  8 18  2 12  0.0000000  0  8 01 18 19 24 04 16 22 14
  23457707.944    15461325.131 8  12045922.31845  23457707.717    23457715.3004
  20790735.365   -24631563.332 9 -19174946.68547  20790735.224    20790740.7404
  22103357.289   -15544231.111 8 -12095725.60046  22103357.254    22103363.9874
  24685211.974    -3755955.038 7  -2914638.70645  24685211.944    24685221.6074
  24061138.172    -6964771.190 8  -5413477.37646  24061138.370    24061146.1184
  20616922.452   -19994523.420 9 -15567112.66148  20616922.022    20616928.3634
  22063627.838   -12089200.021 8  -9167079.06646  22063627.129    22063633.2914
  22019061.900      441513.683 8    354169.03147  22019061.891    22019068.9474
 99  8 18  2 12 30.0000000  0  8 01 18 19 24 04 16 22 14
  23473060.655    15542003.187 8  12108788.26245  23473060.368    23473067.8964
  20780331.766   -24686234.633 9 -19217547.64547  20780331.616    20780337.1804
  22089883.838   -15615034.985 8 -12150897.38446  22089883.662    22089890.5694
  24681760.703    -3774091.292 7  -2928770.82745  24681760.812    24681770.4034
  24069043.895    -6923225.478 8  -5381104.17545  24069044.078    24069051.8714
  20624068.872   -19956968.852 9 -15537849.34948  20624068.425    20624074.7604
  22074851.444   -12030218.514 8  -9121119.43946  22074850.919    22074857.0684
  22036980.115      535674.402 8    427540.96047  22036980.036    22036987.1004
 99  8 18  2 13  0.0000000  0  8 01 18 19 24 04 16 22 14
  23488446.061    15622853.112 8  12171788.15745  23488445.607    23488453.1464
  20769985.802   -24740602.883 9 -19259912.45347  20769985.588    20769991.2374
  22076454.976   -15685604.086 8 -12205886.20247  22076454.789    22076461.7084
  24678412.468    -3791688.504 7  -2942482.89645  24678412.232    24678421.8114
  24077030.618    -6881256.266 8  -5348400.96145  24077030.878    24077038.6264
  20631319.867   -19918864.490 9 -15508157.63148  20631319.435    20631325.7934
  22086179.081   -11970692.631 8  -9074735.61746  22086178.337    22086184.3124
  22054963.068      630175.417 8    501178.04747  22054962.927    22054970.0734
 99  8 18  2 13 30.0000000  0  8 01 18 19 24 04 16 22 14
  23503864.918    15703879.810 8  12234925.79845  23503864.433    23503872.0124
  20759700.747   -24794651.125 9 -19302027.90447  20759700.518    20759706.2394
  22063072.610   -15755929.247 8 -12260684.98947  22063072.413    22063079.1504
  24675165.663    -3808747.314 7  -2955775.49945  24675165.928    24675175.4934
  24085095.653    -6838874.306 8  -5315376.06545  24085095.894    24085103.7194
  20638674.181   -19880217.475 9 -15478043.07748  20638673.733    20638680.1174
  22097608.007   -11910632.771 8  -9027935.72846  22097607.265    22097613.2374
  22073011.752      725021.277 8    575083.84847  22073011.602    22073018.6524
 99  8 18  2 14  0.0000000  0  8 01 18 19 24 04 16 22 14
  23519318.319    15785089.034 8  12298205.65445  23519317.975    23519325.6304
  20749475.738   -24848383.529 9 -19343897.25647  20749475.567    20749481.3124
  22049739.264   -15825995.348 8 -12315281.86346  22049739.083    22049745.9524
  24672021.118    -3825276.841 7  -2968655.52344  24672020.843    24672029.3834
  24093238.235    -6796085.505 8  -5282034.22145  24093238.508    24093245.9564
  20646131.837   -19841027.249 9 -15447505.23648  20646131.411    20646137.6644
  22109141.097   -11850025.735 8  -8980709.44446  22109140.401    22109146.3144
  22091124.188      820201.988 8    649250.58147  22091123.993    22091130.9904
 99  8 18  2 14 30.0000000  0  8 01 18 19 24 04 16 22 14
  23534805.731    15866475.866 8  12361623.91045  23534805.383    23534812.9374
  20739307.881   -24901816.011 9 -19385532.89747  20739307.676    20739313.4654
  22036457.133   -15895793.480 8 -12369669.92746  22036456.899    22036463.7654
  24668974.395    -3841285.050 7  -2981129.45844  24668974.256    24668983.0314
  24101457.431    -6752894.220 8  -5248378.69445  24101457.648    24101465.1144
  20653692.372   -19801296.902 9 -15416546.52348  20653691.897    20653698.0864
  22120779.262   -11788866.838 8  -8933053.14846  22120778.544    22120784.4614
  22109300.866      915720.910 8    723680.84947  22109300.729    22109307.6584
 99  8 18  2 15  0.0000000  0  8 01 18 19 24 04 16 22 14
  23550326.951    15948040.989 8  12425181.11045  23550326.638    23550334.2544
  20729199.152   -24954937.600 9 -19426926.27947  20729198.934    20729204.7374
  22023226.265   -15965321.080 8 -12423847.22147  22023226.157    22023233.0084
  24666025.348    -3856783.518 7  -2993206.19344  24666025.005    24666033.8714
  24109753.458    -6709296.765 7  -5214406.71945  24109753.715    24109761.4924
  20661355.768   -19761025.093 9 -15385165.89148  20661355.341    20661361.5714
  22132518.257   -11727178.367 8  -8884984.20246  22132517.467    22132523.4244
  22127540.151     1011568.523 8    798367.24347  22127540.023    22127546.9034
 99  8 18  2 15 30.0000000  0  8 01 18 19 24 04 16 22 14
  23565882.152    16029783.285 8  12488876.35045  23565881.769    23565889.3334
  20719148.396   -25007754.516 9 -19468082.26047  20719148.192    20719153.9514
  22010047.787   -16034575.065 8 -12477811.29247  22010047.601    22010054.3774
  24663172.410    -3871777.704 7  -3004889.93344  24663171.852    24663180.5524
  24118131.195    -6665272.987 7  -5180102.57645  24118131.396    24118139.0124
  20669121.298   -19720217.477 9 -15353367.74948  20669120.815    20669127.0014
  22144359.366   -11664952.797 8  -8836496.73646  22144358.530    22144364.5544
  22145839.690     1107732.980 8    873300.51047  22145839.574    22145846.4444
 99  8 18  2 16  0.0000000  0  8 01 18 19 24 04 16 22 14
  23581468.396    16111690.496 8  12552700.12945  23581468.169    23581475.8904
  20709151.688   -25060287.420 9 -19509016.93247  20709151.503    20709157.2704
  21996920.828   -16103557.773 8 -12531563.94147  21996920.599    21996927.4284
  24660414.763    -3886266.717 7  -3016180.00244  24660414.291    24660423.0084
  24126590.157    -6620818.812 7  -5145463.04845  24126590.299    24126598.5274
  20676989.154   -19678871.236 9 -15321149.89548  20676988.679    20676994.9004
  22156300.667   -11602200.445 8  -8787598.80346  22156299.992    22156305.9474
  22164201.383     1204223.160 8    948487.60347  22164201.183    22164208.0024
 99  8 18  2 16 30.0000000  0  8 01 18 19 24 04 16 22 14
  23597084.475    16193753.820 8  12616645.52345  23597084.338    23597092.0234
  20699205.391   -25112555.591 9 -19549745.31547  20699205.169    20699210.9704
  21983842.398   -16172284.436 8 -12585117.09247  21983842.243    21983849.0844
  24657753.498    -3900250.780 7  -3027076.67444  24657752.834    24657762.1754
  24135131.006    -6575937.899 8  -5110490.94545  24135131.225    24135139.0414
  20684959.788   -19636985.496 9 -15288511.65048  20684959.321    20684965.4794
  22168334.906   -11538961.061 8  -8738321.35746  22168334.091    22168340.0884
  22182625.949     1301045.160 8   1023933.24046  22182625.877    22182632.6274
 99  8 18  2 17  0.0000000  0  8 01 18 19 24 04 16 22 14
  23612727.299    16275957.580 7  12680700.35245  23612727.110    23612734.9014
  20689310.268   -25164554.414 9 -19590263.82547  20689310.079    20689315.8244
  21970811.855   -16240759.923 8 -12638474.54247  21970811.634    21970818.5484
  24655189.752    -3913721.936 7  -3037573.68145  24655189.378    24655198.6434
  24143753.972    -6530623.938 8  -5075181.38945  24143754.128    24143762.1194
  20693034.213   -19594554.253 9 -15255448.35748  20693033.741    20693039.8794
  22180460.381   -11475240.832 8  -8688669.22646  22180459.597    22180465.6344
  22201112.434     1398192.335 8   1099632.26946  22201112.440    22201119.1204
 99  8 18  2 17 30.0000000  0  8 01 18 19 24 04 16 22 14
  23628394.118    16358287.160 7  12744853.21945  23628393.913    23628401.8284
  20679464.249   -25216295.721 9 -19630581.67947  20679464.045    20679469.6594
  21957826.459   -16308998.123 8 -12691647.06747  21957826.333    21957833.2224
  24652726.120    -3926667.025 7  -3047660.72644  24652725.783    24652734.8994
  24152458.912    -6484877.918 8  -5039535.20045  24152459.230    24152467.4324
  20701212.475   -19551577.282 9 -15221959.81148  20701212.029    20701218.1464
  22192677.242   -11411040.103 8  -8638642.67446  22192676.510    22192682.4884
  22219663.064     1495675.920 8   1175593.44046  22219663.017    22219669.6574
 99  8 18  2 18  0.0000000  0  8 01 18 19 24 04 16 22 14
  23644082.940    16440731.781 8  12809095.72645  23644082.592    23644090.5454
  20669668.808   -25267771.165 9 -19670692.36747  20669668.586    20669674.1184
  21944884.180   -16377010.475 8 -12744643.62247  21944883.943    21944890.7614
  24650364.732    -3939078.308 7  -3057331.78644  24650364.676    24650373.3134
  24161244.946    -6438707.720 8  -5003558.48045  24161245.168    24161253.2684
  20709495.536   -19508049.705 9 -15188042.22148  20709495.035    20709501.1294
  22204984.516   -11346364.272 8  -8588245.92046  22204983.869    22204989.7934
  22238276.369     1593488.652 8   1251811.08946  22238276.281    22238282.8864
 99  8 18  2 18 30.0000000  0  8 01 18 19 24 04 16 22 14
  23659796.694    16523308.692 7  12873441.32145  23659796.683    23659804.3514
  20659930.922   -25318944.204 9 -19710567.41447  20659930.708    20659936.1054
  21931983.012   -16444806.507 8 -12797471.62247  21931982.734    21931989.4914
  24648104.406    -3950957.530 7  -3066588.25644  24648104.252    24648112.8704
  24170112.586    -6392109.161 8  -4967247.94546  24170112.789    24170120.9354
  20717884.629   -19463964.470 9 -15153690.10248  20717884.157    20717890.2744
  22217385.199   -11281200.360 8  -8537468.83746  22217384.354    22217390.0594
  22256947.547     1691606.199 8   1328266.24146  22256947.456    22256954.0844
 99  8 18  2 19  0.0000000  0  8 01 18 19 24 04 16 22 14
  23675538.229    16606029.186 8  12937898.80045  23675538.055    23675545.6564
  20650258.119   -25369775.182 9 -19750175.92947  20650257.884    20650263.2224
  21919125.346   -16512373.854 8 -12850121.40147  21919125.155    21919131.8104
  24645946.725    -3962295.080 7  -3075422.70144  24645946.785    24645955.1634
  24179062.857    -6345075.744 8  -4930598.60546  24179062.983    24179071.1144
  20726381.732   -19419311.983 9 -15118895.97348  20726381.255    20726387.3924
  22229883.359   -11215521.844 8  -8486290.77046  22229882.483    22229888.3474
  22275676.447     1790027.157 8   1404957.81946  22275676.380    22275683.1024
 99  8 18  2 19 30.0000000  0  8 01 18 19 24 04 16 22 14
  23691311.116    16688913.170 8  13002483.68045  23691310.647    23691318.0194
  20640652.194   -25420254.613 9 -19789510.51247  20640651.944    20640657.1944
  21906314.848   -16579693.136 8 -12902577.90947  21906314.604    21906321.3814
  24643892.191    -3973091.464 7  -3083835.47644  24643892.039    24643901.4604
  24188093.967    -6297616.087 8  -4893617.07646  24188094.200    24188102.3254
  20734986.620   -19374093.115 9 -15083660.49948  20734986.148    20734992.2704
  22242481.628   -11149315.379 8  -8434701.32246  22242481.071    22242487.0614
  22294464.486     1888758.753 8   1481891.42746  22294464.394    22294471.2664
 99  8 18  2 20  0.0000000  0  8 01 18 19 24 04 16 22 14
  23707119.828    16771987.204 8  13067216.61445  23707119.292    23707126.6494
  20631115.621   -25470369.246 9 -19828560.83547  20631115.386    20631120.6404
  21893555.379   -16646743.752 8 -12954825.04747  21893555.197    21893561.8894
  24641937.772    -3983359.549 7  -3091836.61344  24641937.890    24641947.1144
  24197204.130    -6249743.245 8  -4856313.60846  24197204.324    24197212.3404
  20743698.055   -19328314.266 9 -15047988.68248  20743697.577    20743703.6944
  22255183.704   -11082566.885 8  -8382689.51146  22255183.057    22255188.9334
  22313310.216     1987794.320 8   1559061.91246  22313310.206    22313317.1824
 99  8 18  2 20 30.0000000  0  8 01 18 19 24 04 16 22 14
  23722966.138    16855257.791 8  13132102.73445  23722965.402    23722972.6074
  20621648.605   -25520118.613 9 -19867326.54947  20621648.360    20621653.5294
  21880849.928   -16713510.291 8 -13006850.85147  21880849.813    21880856.6534
  24640082.723    -3993107.505 7  -3099432.37144  24640082.595    24640091.9824
  24206390.830    -6201466.697 8  -4818695.53845  24206391.044    24206399.1854
  20752514.510   -19281983.007 9 -15011886.42448  20752514.093    20752520.1984
  22267988.644   -11015276.706 8  -8330255.60846  22267987.883    22267993.8924
  22332214.203     2087135.170 8   1636470.27846  22332214.170    22332221.2154
 99  8 18  2 21  0.0000000  0  8 01 18 19 24 04 16 22 14
  23738845.707    16938707.552 8  13197128.47545  23738845.240    23738852.5324
  20612245.667   -25569531.236 9 -19905829.85847  20612245.439    20612250.4934
  21868202.667   -16779973.014 8 -13058639.89347  21868202.429    21868209.1344
  24638329.830    -4002322.498 7  -3106612.81244  24638329.600    24638338.4584
  24215653.195    -6152793.256 8  -4780768.22945  24215653.361    24215661.2804
  20761434.263   -19235109.367 9 -14975361.53648  20761433.868    20761440.0004
  22280895.879   -10947447.720 8  -8277401.85946  22280895.108    22280901.4604
  22351178.024     2186791.312 8   1714124.32746  22351178.111    22351185.1734
 99  8 18  2 21 30.0000000  0  8 01 18 19 24 04 16 22 14
  23754758.211    17022330.457 7  13262289.11345  23754757.954    23754765.4214
  20602902.359   -25618630.567 9 -19944089.05047  20602902.128    20602907.1334
  21855611.472   -16846139.282 8 -13110197.95747  21855611.345    21855618.0724
  24636676.631    -4011009.906 6  -3113382.19544  24636676.335    24636684.9534
  24224989.547    -6103730.584 8  -4742537.53945  24224989.799    24224997.6154
  20770453.852   -19187711.839 9 -14938428.42348  20770453.394    20770459.4154
  22293903.134   -10879092.745 8  -8224138.26546  22293902.533    22293908.9724
  22370198.431     2286744.791 8   1792010.08346  22370198.614    22370205.6484
 99  8 18  2 22  0.0000000  0  8 01 18 19 24 04 16 22 14
  23770701.764    17106116.548 7  13327576.88545  23770701.746    23770709.4094
  20593617.323   -25667424.052 9 -19982109.92648  20593617.096    20593622.0534
  21843073.347   -16912027.407 8 -13161539.29947  21843073.205    21843079.6574
  24635122.436    -4019174.084 7  -3119743.90444  24635122.308    24635131.6414
  24234400.804    -6054274.241 7  -4704000.19045  24234400.954    24234408.8814
  20779574.937   -19139780.261 9 -14901079.17848  20779574.480    20779580.5314
  22307006.714   -10810233.674 8  -8170481.86846  22307006.081    22307012.3334
  22389271.902     2386975.103 8   1870111.55446  22389271.899    22389278.9054
 99  8 18  2 22 30.0000000  0  8 01 18 19 24 04 16 22 14
  23786672.202    17190042.832 7  13392973.93245  23786672.349    23786680.0904
  20584388.155   -25715923.531 9 -20019901.69148  20584387.945    20584392.9424
  21830587.798   -16977639.492 8 -13212665.53047  21830587.649    21830593.9764
  24633671.448    -4026800.766 7  -3125686.75544  24633671.364    24633680.3194
  24243889.087    -6004411.128 7  -4665145.83245  24243889.395    24243897.6454
  20788799.104   -19091306.753 9 -14863307.63348  20788798.674    20788804.7894
  22320203.530   -10740884.761 8  -8116443.75946  22320202.865    22320208.8704
  22408396.096     2487473.845 8   1948422.19046  22408396.170    22408403.2654
 99  8 18  2 23  0.0000000  0  8 01 18 19 24 04 16 22 14
  23802669.076    17274107.073 7  13458478.47745  23802669.225    23802676.8674
  20575214.764   -25764130.489 9 -20057465.52848  20575214.485    20575219.4354
  21818153.092   -17042983.558 8 -13263582.90947  21818153.037    21818159.4854
  24632321.416    -4033894.180 7  -3131214.12044  24632321.647    24632330.8264
  24253455.868    -5954137.694 7  -4625971.72445  24253456.152    24253464.1264
  20798126.431   -19042291.620 9 -14825114.05448  20798125.937    20798132.0904
  22333492.425   -10671052.366 8  -8062028.92446  22333491.576    22333497.4924
  22427571.332     2588240.016 8   2026941.19746  22427571.365    22427578.5834
 99  8 18  2 23 30.0000000  0  8 01 18 19 24 04 16 22 14
  23818692.559    17358310.283 7  13524091.31645  23818692.622    23818700.2364
  20566099.119   -25812033.415 9 -20094792.45048  20566098.866    20566103.8424
  21805766.785   -17108073.306 8 -13314302.11347  21805766.663    21805773.1694
  24631069.372    -4040474.760 7  -3136341.83644  24631069.485    24631078.2784
  24263098.957    -5903463.711 7  -4586485.55445  24263099.175    24263107.3094
  20807556.763   -18992735.141 9 -14786498.63648  20807556.249    20807562.4274
  22346871.633   -10600743.883 8  -8007243.09446  22346870.763    22346876.7564
  22446797.976     2689275.693 8   2105670.22746  22446797.925    22446805.1204
 99  8 18  2 24  0.0000000  0  8 01 18 19 24 04 16 22 14
  23834743.365    17442655.346 7  13589814.68845  23834743.090    23834750.7004
  20557042.977   -25859623.499 9 -20131875.61748  20557042.746    20557047.7024
  21793429.362   -17172906.591 9 -13364821.50947  21793429.363    21793435.6384
  24629917.634    -4046528.041 7  -3141058.69245  24629917.533    24629926.5684
  24272817.645    -5852392.579 7  -4546689.92245  24272817.679    24272825.7904
  20817091.180   -18942631.249 9 -14747456.67447  20817090.688    20817096.8884
  22360341.090   -10529960.662 8  -7952087.34946  22360340.369    22360346.4904
  22466078.150     2790592.737 8   2184618.48246  22466078.028    22466085.2664
 99  8 18  2 24 30.0000000  0  8 01 18 19 24 04 16 22 14
  23850821.227    17527144.288 8  13655650.18045  23850820.771    23850828.6244
  20548048.546   -25906889.076 9 -20168705.91548  20548048.352    20548053.3464
  21781141.917   -17237477.784 8 -13415136.68347  21781141.809    21781148.1294
  24628868.707    -4052040.499 7  -3145354.10145  24628868.499    24628877.4724
  24282609.900    -5800933.018 8  -4506591.62845  24282610.019    24282618.3164
  20826724.776   -18892005.992 9 -14708008.44447  20826724.358    20826730.6094
  22373900.895   -10458704.074 8  -7896562.73746  22373900.051    22373906.3184
  22485414.118     2892204.411 8   2263796.31446  22485414.072    22485421.4274
 99  8 18  2 25  0.0000000  0  8 01 18 19 24 04 16 22 14
  23866926.368    17611775.540 7  13721596.53745  23866925.671    23866933.6554
  20539117.657   -25953821.186 9 -20205276.37648  20539117.445    20539122.3874
  21768902.753   -17301794.222 8 -13465253.31147  21768902.663    21768909.1034
  24627922.722    -4057013.521 7  -3149229.15245  24627922.474    24627930.7984
  24292470.834    -5749112.634 7  -4466212.11845  24292471.073    24292479.0244
  20836454.253   -18840877.155 9 -14668167.79447  20836453.833    20836460.1394
  22387548.545   -10386984.864 8  -7840677.64346  22387547.674    22387554.0164
  22504807.242     2994116.075 8   2343207.90446  22504807.266    22504814.6744
 99  8 18  2 25 30.0000000  0  8 01 18 19 24 04 16 22 14
  23883058.657    17696552.650 7  13787656.55345  23883058.134    23883066.5264
  20530250.639   -26000417.497 9 -20241585.16748  20530250.414    20530255.3964
  21756713.130   -17365851.139 8 -13515167.73747  21756713.031    21756719.4544
  24627081.301    -4061433.799 7  -3152673.51845  24627081.177    24627089.9404
  24302399.682    -5696936.935 8  -4425555.74545  24302399.878    24302407.8644
  20846279.614   -18789244.229 9 -14627934.34947  20846279.191    20846285.5924
  22401283.262   -10314807.743 8  -7784435.73346  22401282.524    22401288.6904
  22524257.320     3096327.361 8   2422852.96846  22524257.471    22524264.9204
 99  8 18  2 26  0.0000000  0  8 01 18 19 24 04 16 22 14
  23899217.938    17781471.065 7  13853826.66245  23899217.436    23899226.0274
  20521444.753   -26046692.381 9 -20277643.49248  20521444.560    20521449.6804
  21744573.815   -17429643.266 8 -13564875.84047  21744573.635    21744580.1594
  24626346.302    -4065296.660 7  -3155683.55845  24626346.165    24626355.0104
  24312396.046    -5644406.717 8  -4384623.10345  24312396.158    24312404.2174
  20856199.790   -18737113.250 9 -14587312.80647  20856199.404    20856205.8154
  22415105.317   -10242173.114 8  -7727837.33146  22415104.605    22415110.5564
  22543760.436     3198815.457 8   2502713.72646  22543760.419    22543767.8534
 99  8 18  2 26 30.0000000  0  8 01 18 19 24 04 16 22 14
  23915403.877    17866530.656 7  13920106.81545  23915403.741    23915412.4144
  20512700.186   -26092645.358 9 -20313450.98748  20512699.973    20512705.1294
  21732486.459   -17493161.813 8 -13614370.73447  21732486.383    21732492.9324
  24625713.877    -4068620.696 7  -3158273.68745  24625713.385    24625722.0904
  24322459.020    -5591524.589 8  -4343416.30945  24322459.093    24322467.5034
  20866213.932   -18684488.630 9 -14546306.60447  20866213.541    20866219.9094
  22429015.235   -10169077.556 8  -7670879.74546  22429014.426    22429020.3124
  22563316.013     3301579.896 8   2582789.81246  22563315.951    22563323.4014
 99  8 18  2 27  0.0000000  0  9 01 18 27 19 24 04 16 22 14
  23931615.070    17951720.444 7  13986488.36745  23931614.898    23931623.5864
  20504011.164   -26138306.255 9 -20349030.89648  20504010.958    20504016.1054
  25036354.146    -5934024.247 7  -4610055.29545  25036353.824    25036366.0404
  21720445.001   -17556440.598 8 -13663678.82747  21720444.829    21720451.3524
  24625175.497    -4071448.864 7  -3160477.46945  24625175.235    24625183.7894
  24332585.598    -5538309.020 8  -4301949.68845  24332585.800    24332593.9334
  20876321.632   -18631372.130 9 -14504917.10347  20876321.273    20876327.5874
  22443011.071   -10095530.139 8  -7613570.08846  22443010.048    22443016.1334
  22582918.820     3404592.396 8   2663059.20046  22582918.660    22582926.1104
 99  8 18  2 27 30.0000000  0  9 01 18 27 19 24 04 16 22 14
  23947857.716    18037076.095 7  14052999.22945  23947857.643    23947866.0554
  20495383.191   -26183646.352 9 -20384360.81948  20495382.992    20495388.1984
  25019481.792    -6022688.870 7  -4679144.47345  25019481.483    25019493.6444
  21708454.345   -17619451.188 8 -13712777.91547  21708454.190    21708460.7464
  24624734.410    -4073766.413 8  -3162283.38745  24624734.270    24624743.1064
  24342784.972    -5484711.022 8  -4260184.98645  24342785.139    24342793.8284
  20886531.362   -18577720.022 9 -14463110.27147  20886530.955    20886537.2354
  22457099.809   -10021490.347 8  -7555876.75046  22457099.064    22457105.4974
  22602571.865     3507869.896 8   2743535.09546  22602571.815    22602579.2464
 99  8 18  2 28  0.0000000  0  9 01 18 27 19 24 04 16 22 14
  23964132.172    18122595.927 7  14119637.99345  23964131.706    23964139.9104
  20486817.922   -26228656.896 9 -20419433.95548  20486817.711    20486822.9264
  25002621.615    -6111289.300 7  -4748183.57645  25002621.336    25002633.2914
  21696514.618   -17682195.038 9 -13761669.16647  21696514.515    21696521.0044
  24624387.331    -4075591.308 8  -3163705.33745  24624387.112    24624395.6704
  24353058.592    -5430723.879 7  -4218117.13445  24353058.908    24353067.0114
  20896843.097   -18523531.449 9 -14420885.42247  20896842.677    20896848.9354
  22471282.641    -9946957.023 8  -7497798.85546  22471282.135    22471288.7484
  22622275.022     3611409.885 8   2824215.51046  22622274.935    22622282.3474
 99  8 18  2 28 30.0000000  0  9 01 18 27 19 24 04 16 22 14
  23980437.043    18208278.824 7  14186403.84445  23980436.769    23980444.7724
  20478318.201   -26273323.470 9 -20454239.06948  20478317.955    20478323.0984
  24985777.089    -6199807.253 7  -4817158.43645  24985776.847    24985788.5894
  21684621.773   -17744692.438 8 -13810368.38347  21684621.599    21684628.1044
  24624132.549    -4076929.586 7  -3164748.15445  24624132.388    24624140.9524
  24363407.476    -5376340.338 7  -4175740.36545  24363407.674    24363415.9364
  20907256.294   -18468810.169 9 -14378245.48947  20907255.878    20907262.0264
  22485555.009    -9871956.190 8  -7439356.67446  22485554.444    22485561.0904
  22642030.352     3715225.241 8   2905110.49946  22642030.368    22642037.8654
 99  8 18  2 29  0.0000000  0  9 01 18 27 19 24 04 16 22 14
  23996769.713    18294103.718 7  14253280.32045  23996768.893    23996776.8534
  20469884.043   -26317645.350 9 -20488775.58948  20469883.775    20469888.8544
  24968952.848    -6288220.172 7  -4886051.41445  24968952.604    24968963.8734
  21672774.207   -17806951.847 8 -13858882.13647  21672774.001    21672780.4034
  24623970.600    -4077780.474 8  -3165411.19845  24623970.599    24623978.7404
  24373833.474    -5321550.781 7  -4133047.26745  24373833.666    24373842.3044
  20917771.652   -18413551.887 9 -14335187.12147  20917771.208    20917777.3864
  22499913.325    -9796504.468 8  -7380563.14346  22499912.634    22499919.0814
  22661835.320     3819301.121 8   2986208.50546  22661835.368    22661842.8344
 99  8 18  2 29 30.0000000  0  9 01 18 27 19 24 04 16 22 14
  24013124.996    18380051.734 7  14320252.74445  24013124.251    24013132.2574
  20461518.492   -26361606.405 9 -20523030.95048  20461518.236    20461523.3124
  24952151.451    -6376510.451 7  -4954848.88245  24952151.215    24952162.6154
  21660975.328   -17868954.641 9 -13907195.94647  21660975.209    21660981.6564
  24623903.832    -4078132.473 7  -3165685.49645  24623903.597    24623912.1404
  24384337.419    -5266353.331 8  -4090036.26945  24384337.454    24384346.0294
  20928387.961   -18357762.597 9 -14291714.98647  20928387.539    20928393.7564
  22514355.024    -9720614.262 8  -7321427.93646  22514354.256    22514360.3464
  22681690.552     3923640.835 8   3067512.09746  22681690.572    22681698.1164
 99  8 18  2 30  0.0000000  0  9 01 18 27 19 24 04 16 22 14
  24029503.599    18466125.741 7  14387323.32845  24029503.391    24029511.6524
  20453224.492   -26405191.780 9 -20556993.56248  20453224.218    20453229.2974
  24935373.906    -6464678.300 7  -5023550.87445  24935373.521    24935384.4424
  21649226.219   -17930696.924 8 -13955306.75247  21649226.003    21649232.2604
  24623933.405    -4077975.308 8  -3165563.06045  24623933.356    24623941.8874
  24394917.442    -5210755.695 7  -4046713.47945  24394917.569    24394926.0464
  20939103.925   -18301450.135 9 -14247835.17247  20939103.471    20939109.6544
  22528878.814    -9644292.041 8  -7261956.07146  22528877.912    22528883.6954
  22701597.606     4028252.011 8   3149027.20346  22701597.511    22701605.1004
 99  8 18  2 30 30.0000000  0  9 01 18 27 19 24 04 16 22 14
  24045906.963    18552326.459 7  14454492.63845  24045906.945    24045915.1354
  20445002.610   -26448397.852 9 -20590660.61948  20445002.339    20445007.4294
  24918618.043    -6552730.416 7  -5092162.73145  24918617.740    24918628.5114
  21637527.139   -17992174.709 8 -14003211.45547  21637527.042    21637533.3344
  24624064.911    -4077286.161 7  -3165026.07245  24624064.764    24624073.0314
  24405571.836    -5154765.753 7  -4003085.04245  24405572.123    24405580.4594
  20949920.073   -18244610.902 9 -14203544.88547  20949919.663    20949925.8394
  22543485.651    -9567530.079 8  -7202141.56046  22543485.020    22543490.7254
  22721555.708     4133132.440 8   3230752.11846  22721555.684    22721563.3284
 99  8 18  2 31  0.0000000  0  9 01 18 27 19 24 04 16 22 14
  24062335.137    18638657.275 7  14521763.32745  24062335.271    24062343.3784
  20436852.424   -26491227.503 9 -20624034.34948  20436852.142    20436857.1904
  24901883.362    -6640669.912 7  -5160686.84345  24901883.145    24901893.7974
  21625883.098   -18053364.137 9 -14050891.46347  21625883.033    21625889.3574
  24624296.520    -4076068.365 7  -3164077.17845  24624296.464    24624304.9364
  24416296.641    -5098407.264 7  -3959169.46245  24416296.910    24416305.0994
  20960836.216   -18187245.951 9 -14158844.93947  20960835.825    20960842.0054
  22558181.276    -9490304.552 8  -7141965.85946  22558180.477    22558186.1734
  22741562.451     4238268.895 8   3312676.53946  22741562.524    22741570.2264
 99  8 18  2 31 30.0000000  0  9 01 18 27 19 24 04 16 22 14
  24078790.464    18725128.933 7  14589143.80145  24078790.739    24078798.4134
  20428773.447   -26533683.040 9 -20657116.57448  20428773.145    20428778.2034
  24885165.100    -6728526.007 7  -5229145.95145  24885164.749    24885175.1214
  21614293.491   -18114268.220 8 -14098349.11347  21614293.357    21614299.5724
  24624628.609    -4074324.490 8  -3162718.32545  24624628.494    24624636.8974
  24427084.973    -5041712.956 7  -3914992.11444  24427085.410    24427093.2514
  20971849.902   -18129368.890 9 -14113745.93047  20971849.500    20971855.6924
  22572965.837    -9412609.923 8  -7081424.58746  22572965.241    22572971.0954
  22761616.268     4343650.903 8   3394792.28546  22761616.201    22761623.8094
 99  8 18  2 32  0.0000000  0  9 01 18 27 19 24 04 16 22 14
  24095276.630    18811758.150 7  14656646.98845  24095276.097    24095283.5064
  20420762.672   -26575780.149 9 -20689919.50648  20420762.351    20420767.3674
  24868459.308    -6816315.066 8  -5297552.82645  24868458.885    24868469.3384
  21602758.807   -18174883.110 9 -14145581.43947  21602758.661    21602764.9924
  24625062.159    -4072045.684 7  -3160942.58945  24625061.985    24625070.3404
  24437935.901    -4984692.486 7  -3870560.58544  24437936.308    24437944.0474
  20982960.461   -18070982.337 9 -14068249.91547  20982960.059    20982966.2884
  22587837.533    -9334457.915 8  -7020526.95246  22587836.966    22587843.0624
  22781715.365     4449271.923 8   3477094.27746  22781715.316    22781722.8154
 99  8 18  2 32 30.0000000  0  9 01 18 27 19 24 04 16 22 14
  24111794.576    18898557.879 7  14724283.08645  24111793.613    24111801.0464
  20412819.127   -26617523.045 9 -20722446.42548  20412818.850    20412823.8974
  24851767.507    -6904030.412 8  -5365902.26845  24851767.209    24851777.4654
  21591281.912   -18235195.369 9 -14192577.94647  21591281.677    21591287.9624
  24625599.286    -4069222.496 8  -3158742.70445  24625599.212    24625607.7294
  24448849.366    -4927343.435 7  -3825873.14944  24448849.124    24448856.9654
  20994169.859   -18012076.968 9 -14022349.64647  20994169.369    20994175.6314
  22602796.678    -9255847.995 8  -6959272.47946  22602796.060    22602802.1384
  22801859.792     4555130.895 8   3559581.71246  22801859.741    22801867.0374
 99  8 18  2 33  0.0000000  0  9 01 18 27 19 24 04 16 22 14
  24128344.620    18985528.892 7  14792052.65445  24128343.735    24128351.2124
  20404942.690   -26658913.981 9 -20754699.09148  20404942.432    20404947.4954
  24835091.196    -6991665.669 8  -5434189.32945  24835090.795    24835100.7014
  21579861.610   -18295208.201 8 -14239341.12847  21579861.473    21579867.8184
  24626237.624    -4065869.544 8  -3156130.02945  24626237.490    24626245.9654
  24459822.494    -4869679.164 7  -3780940.02444  24459822.454    24459830.2884
  21005476.747   -17952658.712 9 -13976049.74547  21005476.301    21005482.5594
  22617839.829    -9176796.872 8  -6897674.17346  22617839.145    22617845.0714
  22822049.779     4661229.560 8   3642255.91346  22822049.744    22822056.8974
 99  8 18  2 33 30.0000000  0  9 01 18 27 19 24 04 16 22 14
  24144927.997    19072673.813 7  14859957.71545  24144926.945    24144934.3874
  20397132.571   -26699956.049 9 -20786679.90048  20397132.309    20397137.4554
  24818429.377    -7079222.125 8  -5502415.01245  24818429.050    24818439.1524
  21568495.665   -18354936.995 9 -14285882.97847  21568495.451    21568501.7154
  24626978.888    -4061974.723 7  -3153095.10045  24626978.697    24626986.8724
  24470857.564    -4811689.216 7  -3735753.21244  24470857.220    24470865.8594
  21016883.445   -17892716.003 9 -13929341.16147  21016883.054    21016889.3254
  22632964.984    -9097314.800 8  -6835740.08846  22632964.195    22632970.0244
  22842286.719     4767575.711 8   3725122.95746  22842286.734    22842293.8704
 99  8 18  2 34  0.0000000  0  9 01 18 27 19 24 04 16 22 14
  24161543.701    19159989.328 7  14927995.68945  24161542.353    24161550.0994
  20389385.843   -26740664.645 9 -20818400.86048  20389385.672    20389390.8664
  24801784.384    -7166690.185 8  -5570571.73445  24801784.112    24801794.2224
  21557182.796   -18414386.041 8 -14332206.85447  21557182.573    21557188.8894
  24627820.914    -4057548.392 8  -3149646.01345  24627820.854    24627828.9674
  24481955.573    -4753367.245 7  -3690307.63344  24481955.624    24481964.0444
  21028388.217   -17832258.198 9 -13882231.21447  21028387.820    21028394.0564
  22648170.490    -9017409.817 8  -6773476.46746  22648169.559    22648175.4224
  22862570.932     4874169.160 8   3808182.68446  22862570.842    22862577.9854
 99  8 18  2 34 30.0000000  0  9 01 18 27 19 24 04 16 22 14
  24178186.891    19247455.874 7  14996151.39945  24178186.341    24178194.4604
  20381703.782   -26781034.753 9 -20849858.07748  20381703.540    20381708.6614
  24785157.616    -7254064.449 8  -5638655.37145  24785157.353    24785167.4864
  21545919.849   -18473572.277 9 -14378325.95547  21545919.730    21545926.0684
  24628761.192    -4052607.448 8  -3145795.93245  24628761.084    24628769.5724
  24493114.569    -4694725.428 7  -3644612.85444  24493114.650    24493122.8944
  21039988.172   -17771300.084 9 -13834731.41147  21039987.759    21039994.0374
  22663458.392    -8937069.071 8  -6710873.28546  22663457.635    22663463.7064
  22882899.708     4980997.274 8   3891425.27146  22882899.638    22882906.8424
 99  8 18  2 35  0.0000000  0  9 01 18 27 19 24 04 16 22 14
  24194856.597    19335057.084 7  15064411.98745  24194856.149    24194864.3354
  20374084.933   -26821071.823 9 -20881055.76448  20374084.675    20374089.8244
  24768547.514    -7341349.247 7  -5706669.27045  24768547.322    24768557.7304
  21534704.765   -18532507.740 8 -14424249.62547  21534704.635    21534710.9664
  24629800.222    -4047148.564 7  -3141542.22545  24629799.955    24629808.4284
  24504335.147    -4635761.239 7  -3598666.81944  24504335.161    24504343.6444
  21051680.988   -17709854.205 9 -13786851.52347  21051680.535    21051686.8084
  22678828.256    -8856297.995 8  -6647934.80446  22678827.644    22678834.0154
  22903272.268     5088055.916 8   3974847.47846  22903272.294    22903279.6404
 99  8 18  2 35 30.0000000  0  9 01 18 27 19 24 04 16 22 14
  24211551.713    19422789.898 7  15132775.11945  24211551.432    24211559.4544
  20366529.671   -26860775.042 9 -20911993.31548  20366529.435    20366534.5354
  24751951.735    -7428561.750 7  -5774626.87045  24751951.383    24751961.8524
  21523537.347   -18591192.396 9 -14469977.89247  21523537.255    21523543.6254
  24630938.587    -4041165.858 7  -3136880.37445  24630938.386    24630947.0094
  24515619.026    -4576466.008 7  -3552462.80545  24515619.029    24515627.2654
  21063464.267   -17647932.819 9 -13738601.12247  21063463.838    21063470.1154
  22694281.273    -8775092.284 8  -6584657.65146  22694280.686    22694287.1414
  22923685.214     5195326.374 8   4058434.74646  22923685.253    22923692.6884
 99  8 18  2 36  0.0000000  0  9 01 18 27 19 24 04 16 22 14
  24228270.648    19510645.738 7  15201234.14745  24228270.048    24228277.8594
  20359039.156   -26900138.442 9 -20942666.06948  20359038.881    20359043.9594
  24735369.413    -7515698.560 7  -5842525.45945  24735369.210    24735379.6854
  21512418.243   -18649624.124 8 -14515509.03947  21512418.073    21512424.4024
  24632175.657    -4034664.029 7  -3131813.93445  24632175.520    24632184.1554
  24526964.502    -4516846.309 7  -3506006.03845  24526964.476    24526972.7164
  21075332.803   -17585563.238 9 -13690001.47547  21075332.381    21075338.6594
  22709815.387    -8693460.889 8  -6521048.77046  22709814.752    22709821.2314
  22944134.640     5302787.596 8   4142170.65846  22944134.546    22944142.0794
 99  8 18  2 36 30.0000000  0  9 01 18 27 19 24 04 16 22 14
  24245011.332    19598618.563 7  15269784.36545  24245010.708    24245018.5524
  20351614.953   -26939152.545 9 -20973066.64548  20351614.670    20351619.7264
  24718801.439    -7602763.817 7  -5910368.26445  24718801.200    24718811.8174
  21501344.313   -18707817.543 8 -14560854.52447  21501344.149    21501350.5934
  24633511.905    -4027640.982 7  -3126341.45045  24633511.864    24633520.8254
  24538371.828    -4456901.498 7  -3459295.94545  24538371.998    24538380.0314
  21087288.331   -17522736.275 9 -13641045.42947  21087287.915    21087294.2714
  22725427.510    -8611420.617 8  -6457121.27646  22725426.594    22725433.0754
  22964620.460     5410441.876 8   4226057.02946  22964620.474    22964628.1444
 99  8 18  2 37  0.0000000  0  9 01 18 27 19 24 04 16 22 14
  24261775.625    19686715.421 7  15338431.20045  24261774.923    24261782.9194
  20344257.380   -26977816.479 9 -21003194.35748  20344257.104    20344262.1404
  24702247.148    -7689757.318 7  -5978155.25645  24702246.980    24702257.3284
  21490317.367   -18765764.752 8 -14606008.13647  21490317.173    21490323.4964
  24634947.730    -4020095.772 7  -3120462.06945  24634947.770    24634956.3634
  24549840.836    -4396631.980 7  -3412332.75145  24549841.019    24549849.1704
  21099333.359   -17459439.473 9 -13591723.27847  21099332.956    21099339.2894
  22741114.614    -8528982.870 8  -6392884.02946  22741113.855    22741120.5394
  22985145.352     5518299.837 8   4310102.08446  22985145.225    22985153.0274
 99  8 18  2 37 30.0000000  0  9 01 18 27 19 24 04 16 22 14
  24278565.361    19774944.026 7  15407180.71945  24278564.340    24278572.1184
  20336967.081   -27016126.878 9 -21033046.59348  20336966.831    20336971.9134
  24685708.248    -7776670.142 7  -6045879.34845  24685708.040    24685717.7714
  21479340.020   -18823450.473 8 -14650957.98947  21479339.813    21479346.1344
  24636478.253    -4012054.067 7  -3114195.75845  24636478.222    24636486.7604
  24561369.242    -4336050.529 7  -3365126.60145  24561369.378    24561377.7334
  21111468.454   -17395669.397 9 -13542032.32847  21111468.025    21111474.2574
  22756877.303    -8446148.853 8  -6328338.05746  22756876.602    22756883.2554
  23005708.656     5626360.757 8   4394305.31046  23005708.599    23005716.4104
 99  8 18  2 38  0.0000000  0  9 01 18 27 19 24 04 16 22 14
  24295379.461    19863304.056 7  15476032.65245  24295378.430    24295386.4674
  20329744.627   -27054080.776 9 -21062621.03048  20329744.401    20329749.4724
  24669187.437    -7863487.239 7  -6113528.88045  24669187.158    24669196.8794
  21468414.790   -18880862.870 9 -14695694.87947  21468414.626    21468420.8784
  24638101.074    -4003524.167 7  -3107549.02044  24638100.720    24638109.8044
  24572957.194    -4275155.360 7  -3317675.93845  24572957.425    24572965.5754
  21123695.962   -17331413.720 9 -13491962.98747  21123695.520    21123701.7554
  22772713.251    -8362930.863 8  -6263492.86246  22772712.479    22772718.9004
  23026313.828     5734639.866 8   4478678.53646  23026313.615    23026321.2344
 99  8 18  2 38 30.0000000  0  9 01 18 27 19 24 04 16 22 14
  24312217.855    19951792.212 7  15544984.42445  24312217.272    24312225.2224
  20322590.605   -27091675.332 9 -21091915.46148  20322590.384    20322595.4434
  24652684.143    -7950211.974 7  -6181106.40745  24652683.842    24652693.6204
  21457543.907   -18937990.135 9 -14740209.56347  21457543.672    21457549.8884
  24639816.144    -3994510.038 7  -3100525.01944  24639816.299    24639825.2074
  24584603.376    -4213954.702 7  -3269987.22645  24584603.703    24584611.7504
  21136019.132   -17266654.972 9 -13441501.64047  21136018.719    21136024.9294
  22788622.825    -8279326.797 8  -6198346.82746  22788621.915    22788628.0224
  23046963.632     5843156.128 8   4563236.56246  23046963.679    23046971.1774
 99  8 18  2 39  0.0000000  0  9 01 18 27 19 24 04 16 22 14
  24329080.624    20040407.730 7  15614035.42245  24329080.208    24329088.2544
  20315506.211   -27128903.878 9 -21120924.69048  20315506.018    20315511.0674
  24636199.739    -8036838.535 7  -6248607.42245  24636199.355    24636208.9414
  21446730.336   -18994815.743 9 -14784489.17747  21446730.098    21446736.2744
  24641624.930    -3985009.441 7  -3093121.97344  24641624.461    24641632.5904
  24596307.300    -4152449.697 7  -3222061.29745  24596307.532    24596316.1144
  21148436.579   -17201401.073 9 -13390654.47147  21148436.162    21148442.3794
  22804607.592    -8195327.072 8  -6132892.45146  22804606.589    22804612.5854
  23067657.340     5951901.031 8   4647972.72346  23067657.302    23067664.6574
 99  8 18  2 39 30.0000000  0  9 01 18 27 19 24 04 16 22 14
  24345968.455    20129151.477 7  15683186.31745  24345967.527    24345975.9704
  20308494.202   -27165752.161 9 -21149637.60748  20308493.982    20308499.0284
  24619734.971    -8123358.764 7  -6316025.55345  24619734.683    24619744.4624
  21435974.800   -19051335.627 9 -14828530.59347  21435974.624    21435980.8764
  24643526.199    -3975014.760 6  -3085333.97044  24643526.261    24643534.7634
  24608071.882    -4090624.987 7  -3173886.32245  24608072.256    24608080.8184
  21160947.598   -17135655.544 9 -13339424.20547  21160947.151    21160953.3884
  22820668.504    -8110925.691 8  -6067125.14746  22820667.581    22820673.7134
  23088393.656     6060870.885 8   4732884.18346  23088393.707    23088400.9724
 99  8 18  2 40  0.0000000  0  9 01 18 27 19 24 04 16 22 14
  24362879.286    20218017.304 7  15752432.38345  24362878.438    24362886.7594
  20301554.709   -27202219.041 9 -21178053.32348  20301554.516    20301559.5554
  24603287.974    -8209786.427 7  -6383371.64545  24603287.638    24603297.9244
  21425274.768   -19107564.431 9 -14872345.18147  21425274.621    21425280.7174
  24645525.642    -3964504.914 6  -3077144.43944  24645525.698    24645534.7654
  24619896.658    -4028485.624 7  -3125466.13045  24619897.080    24619905.5934
  21173551.472   -17069422.028 9 -13287813.68447  21173550.976    21173557.2114
  22836806.540    -8026118.889 8  -6001041.93946  22836805.728    22836812.1704
  23109172.319     6170062.494 8   4817968.44546  23109172.233    23109179.4564
 99  8 18  2 40 30.0000000  0  9 01 18 27 19 24 04 16 22 14
  24379814.936    20307015.972 7  15821781.96644  24379814.785    24379822.7054
  20294687.270   -27238308.025 9 -21206174.58448  20294687.031    20294692.0444
  24586859.995    -8296117.332 7  -6450642.24645  24586859.562    24586868.6434
  21414627.330   -19163516.185 9 -14915943.89947  21414627.222    21414633.3554
  24647623.853    -3953480.683 7  -3068554.07344  24647623.655    24647632.6664
  24631780.517    -3966036.868 7  -3076804.84345  24631780.843    24631789.5064
  21186246.904   -17002707.562 9 -13235828.41447  21186246.417    21186252.6434
  22853025.220    -7940888.752 8  -5934628.81546  22853024.451    22853031.0174
  23129991.405     6279466.604 8   4903218.27746  23129991.210    23129998.4944
 99  8 18  2 41  0.0000000  0  9 01 18 27 19 24 04 16 22 14
  24396775.916    20396146.970 6  15891234.61544  24396775.914    24396783.5684
  20287890.717   -27274023.850 9 -21234005.06948  20287890.486    20287895.4904
  24570449.493    -8382353.303 7  -6517838.99145  24570449.141    24570458.5304
  21404030.561   -19219202.617 9 -14959335.86347  21404030.428    21404036.5734
  24649817.698    -3941950.033 6  -3059569.23344  24649817.418    24649826.8744
  24643721.737    -3903286.086 8  -3027908.23745  24643722.115    24643730.7484
  21199029.549   -16935534.071 9 -13183485.45147  21199029.098    21199035.3464
  22869323.466    -7855241.770 8  -5867890.92646  22869322.478    22869329.0314
  23150845.566     6389056.382 8   4988612.81546  23150845.503    23150852.9634
 99  8 18  2 41 30.0000000  0  9 01 18 27 19 24 04 16 22 14
  24413761.441    20485409.609 7  15960789.83644  24413761.805    24413770.1284
  20281165.867   -27309363.296 9 -21261542.27548  20281165.641    20281170.5824
  24554055.677    -8468501.969 7  -6584967.71045  24554055.321    24554065.0544
  21393485.367   -19274617.627 9 -15002516.33547  21393485.218    21393491.3564
  24652107.496    -3929918.033 6  -3050193.65044  24652107.479    24652115.8574
  24655717.153    -3840250.441 7  -2978789.69245  24655717.472    24655726.4324
  21211898.301   -16867908.854 9 -13130790.50647  21211897.808    21211903.9924
  22885699.236    -7769183.339 8  -5800832.38546  22885698.651    22885705.2884
  23171734.123     6498824.828 8   5074146.53046  23171733.912    23171741.5154
 99  8 18  2 42  0.0000000  0  9 01 18 27 19 24 04 16 22 14
  24430773.809    20574804.880 7  16030448.40044  24430772.707    24430781.5784
  20274514.313   -27344317.560 9 -21288779.33348  20274514.116    20274519.0284
  24537678.027    -8554566.236 7  -6652030.69645  24537677.938    24537686.9394
  21382990.174   -19329770.139 9 -15045492.24847  21382990.044    21382996.0914
  24654491.279    -3917394.908 7  -3040435.30044  24654491.532    24654498.4634
  24667765.263    -3776934.871 7  -2929452.98245  24667765.681    24667774.7224
  21224854.157   -16799825.328 9 -13077738.42447  21224853.650    21224859.9024
  22902153.166    -7682716.891 8  -5733455.96346  22902152.650    22902159.1734
  23192654.376     6608760.956 8   5159810.92546  23192654.189    23192661.9574
 99  8 18  2 42 30.0000000  0  9 01 18 27 19 24 04 16 22 14
  24447808.169    20664324.854 6  16100204.11844  24447807.336    24447816.7234
  20267938.193   -27378875.557 9 -21315707.61948  20267937.978    20267942.8154
  24521318.263    -8640539.970 7  -6719023.07745  24521317.905    24521326.1594
  21372547.287   -19384647.703 9 -15088253.93947  21372547.154    21372553.1274
  24656965.345    -3904390.180 6  -3030301.80844  24656965.399    24656973.5734
  24679868.171    -3713336.408 8  -2879895.84445  24679868.632    24679876.9194
  21237897.932   -16731279.796 9 -13024326.36147  21237897.440    21237903.7794
  22918681.860    -7595859.123 8  -5665774.59446  22918681.107    22918687.5264
  23213606.908     6718865.800 8   5245606.77946  23213606.535    23213614.4694
 99  8 18  2 43  0.0000000  0  9 01 18 27 19 24 04 16 22 14
  24464865.706    20753963.854 7  16170052.65244  24464865.085    24464874.5854
  20261441.420   -27413016.483 9 -21342310.91348  20261441.186    20261446.0224
  24504974.744    -8726425.065 7  -6785946.44145  24504974.340    24504982.7864
  21362159.914   -19439233.365 9 -15130788.17147  21362159.785    21362165.7884
  24659536.558    -3890881.712 6  -3019775.72344  24659536.569    24659543.8324
  24692026.034    -3649446.374 7  -2830111.49645  24692026.346    24692034.8204
  21251031.280   -16662263.446 9 -12970547.41047  21251030.817    21251037.1574
  22935283.091    -7508616.650 8  -5597793.45946  22935282.754    22935289.1894
  23234595.042     6829159.230 8   5331549.59846  23234594.724    23234602.8124
 99  8 18  2 43 30.0000000  0 10 01 18 27 19 24 13 04 16 22 14
  24481947.308    20843724.306 6  16239995.76744  24481946.130    24481955.4464
  20255023.451   -27446743.020 9 -21368591.30848  20255023.209    20255028.0724
  24488646.546    -8812231.584 7  -6852808.53744  24488646.094    24488653.8534
  21351825.973   -19493538.591 9 -15173103.89047  21351825.848    21351831.6984
  24662202.369    -3876872.911 7  -3008859.64944  24662201.933    24662209.8784
  24723438.203    -3850786.305 8  -2988772.23545  24723438.300    24723445.2274
  24704240.391    -3585260.537 7  -2780096.69545  24704240.780    24704249.6114
  21264255.549   -16592769.656 9 -12916396.42647  21264255.052    21264261.4684
  22951957.189    -7420994.039 8  -5529516.12246  22951956.851    22951963.2354
  23255619.847     6939647.191 8   5417644.01446  23255619.779    23255628.0274
 99  8 18  2 44  0.0000000  0 10 01 18 27 19 24 13 04 16 22 14
  24499054.255    20933624.514 7  16310047.78544  24499054.057    24499062.4784
  20248683.602   -27480058.571 9 -21394551.45348  20248683.378    20248688.3314
  24472336.318    -8897940.998 7  -6919594.95544  24472335.855    24472343.1264
  21341544.472   -19547568.244 9 -15215204.87047  21341544.277    21341550.1544
  24664965.296    -3862351.601 7  -2997544.38244  24664964.809    24664973.1754
  24705351.610    -3945832.956 7  -3062834.41845  24705351.650    24705358.5734
  24716513.764    -3520762.526 7  -2729838.66645  24716514.064    24716523.0344
  21277572.035   -16522791.180 9 -12861867.76947  21277571.534    21277577.9924
  22968706.479    -7332976.498 8  -5460931.04246  22968706.105    22968712.4804
  23276684.454     7050342.450 8   5503899.93546  23276684.397    23276692.6374
 99  8 18  2 44 30.0000000  0 10 01 18 27 19 24 13 04 16 22 14
  24516189.003    21023660.379 7  16380205.60744  24516187.937    24516195.9474
  20242417.553   -27512986.282 9 -21420209.38348  20242417.376    20242422.3744
  24456045.208    -8983548.135 7                  24456045.103    24456052.5764
  21331317.047   -19601313.488 9 -15257084.23547  21331316.857    21331322.7504
  24667828.085    -3847307.709 7  -2985821.86444  24667827.878    24667835.6874
  24687269.126    -4040854.959 7  -3136877.36245  24687269.281    24687276.8274
  24728843.610    -3455969.450 7  -2679350.58245  24728843.669    24728853.0944
  21290976.975   -16452347.759 9 -12806976.80647  21290976.424    21290982.9414
  22985528.359    -7244578.625 8  -5392049.59646  22985527.750    22985534.0614
  23297790.248     7161254.268 8   5590324.60346  23297790.265    23297798.5064
 99  8 18  2 45  0.0000000  0 10 01 18 27 19 24 13 04 16 22 14
  24533349.370    21113835.194 6  16450471.64644  24533347.966    24533355.4484
  20236221.702   -27545545.151 9 -21445579.90148  20236221.555    20236226.6254
  24439773.112    -9069057.432 7                  24439773.407    24439779.1994
  21321139.987   -19654793.905 9 -15298757.25447  21321139.802    21321145.7134
  24670788.155    -3831753.600 7  -2973701.77445  24670787.749    24670796.0954
  24669187.676    -4135871.062 7  -3210915.76245  24669188.077    24669195.9094
  24741227.573    -3390892.057 7  -2628640.99745  24741227.614    24741236.6634
  21304468.224   -16381450.722 9 -12751732.39047  21304467.684    21304474.2374
  23002421.386    -7155805.861 8  -5322876.03146  23002420.835    23002426.9594
  23318932.507     7272357.060 8   5676898.08145  23318932.479    23318940.6974
 99  8 18  2 45 30.0000000  0 10 01 18 27 19 24 13 04 16 22 14
  24550536.655    21204157.550 7  16520852.58844  24550535.855    24550543.1674
  20230094.097   -27577745.766 9 -21470671.26848  20230093.957    20230099.0054
  24423519.566                                    24423518.187    24423526.3054
  21311012.254   -19708015.668 9 -15340228.72647  21311012.054    21311018.0204
  24673840.967    -3815709.461 7  -2961199.83144  24673840.845    24673849.0844
  24651106.275    -4230890.492 8  -3284956.76545  24651106.463    24651113.8834
  24753661.873    -3325549.547 7  -2577724.86745  24753661.896    24753671.0004
  21318046.091   -16310098.080 9 -12696132.95747  21318045.624    21318052.2014
  23019383.772    -7066669.882 8  -5253419.40846  23019382.992    23019389.0354
  23340106.085     7383623.440 8   5763599.05345  23340105.821    23340114.0454
 99  8 18  2 46  0.0000000  0 10 01 18 27 19 13 04 16 22 03 14
  24567749.836    21294611.089 7  16591335.83344  24567749.003    24567755.4774
  20224033.136   -27609596.452 9 -21495489.96248  20224032.983    20224037.9834
  24407283.316                                    24407289.857    24407239.0954
  21300935.717   -19760967.734 9 -15381490.06547  21300935.529    21300941.4324
  24633021.527    -4325928.532 7  -3359012.25345  24633021.535    24633028.3934
  24766144.211    -3259953.630 7  -2526611.30345  24766144.315    24766153.3714
  21331709.116   -16238298.596 9 -12640185.33047  21331708.625    21331715.2244
  23036411.810    -6977187.083 8  -5183692.53346  23036411.154    23036417.0664
  24485562.646     -855083.90444                  24485562.918    24485569.9974
  23361308.786     7495044.162 8   5850420.26645  23361308.542    23361316.8634
 99  8 18  2 46 30.0000000  0 10 01 18 27 19 13 04 16 22 03 14
  24584986.611    21385189.866 6  16661916.62944  24584984.801    24584992.3934
  20218040.039   -27641090.471 9 -21520030.72748  20218039.852    20218044.8414
  24391063.826                                    24391069.946    24391059.4884
  21290911.873   -19813642.876 9 -15422535.60547  21290911.768    21290917.5904
  24614929.057    -4421003.354 7  -3433096.40545  24614929.070    24614935.9834
  24778675.372    -3194103.438 7  -2475299.60045  24778675.479    24778684.5594
  21345458.174   -16166046.469 9 -12583885.00747  21345457.727    21345464.3764
  23053502.542    -6887375.007 8  -5113709.09646  23053501.873    23053507.7454
  24472444.232    -1205418.93817   -908804.79345  24472442.890    24472450.0304
  23382541.721     7606623.918 8   5937365.43045  23382541.433    23382549.9744
 99  8 18  2 47  0.0000000  0 10 01 18 27 19 13 04 16 22 03 14
  24602251.113    21475915.918 6  16732612.28044  24602248.470    24602256.6504
  20212121.486   -27672192.727 9 -21544266.22348  20212121.260    20212126.1904
  24374861.186                                    24374867.153    24374852.9964
  21280943.057   -19866029.457 9 -15463356.29647  21280942.920    21280948.7524
  24596832.475    -4516099.257 7  -3507196.91645  24596832.608    24596839.7734
  24791258.949    -3127976.845 7  -2423772.55845  24791259.058    24791268.1604
  21359298.359   -16093314.904 9 -12527211.09147  21359298.046    21359304.7684
  23070660.306    -6797210.657 8  -5043451.13946  23070659.535    23070665.4354
  24459370.091    -1274119.063 7   -962337.24545  24459371.160    24459377.7324
  23403804.828     7718360.272 8   6024432.58245  23403804.343    23403812.9594
 99  8 18  2 47 30.0000000  0 10 01 18 27 19 13 04 16 22 03 14
  24619545.283    21566789.411 6                  24619540.978    24619548.8144
  20206280.921   -27702884.873 9 -21568182.15448  20206280.713    20206285.6684
  24358675.770                                    24358681.298    24358703.8074
  21271029.604   -19918124.587 9 -15503949.88947  21271029.493    21271035.4044
  24578737.080    -4611189.311 7  -3581292.94245  24578737.115    24578744.7264
  24803895.956    -3061570.757 7  -2372027.69445  24803896.029    24803904.9644
  21373227.394   -16020117.695 9 -12470174.34147  21373227.023    21373233.7864
  23087886.290    -6706688.109 8  -4972914.09346  23087885.480    23087891.1234
  24446345.285    -1342565.488 7  -1015672.00545  24446345.307    24446352.5414
  23425101.371     7830273.811 8   6111637.80845  23425100.920    23425109.6234
 99  8 18  2 48  0.0000000  0  8 18 27 19 13 16 22 03 14
  20200519.845   -27733159.446 9 -21591772.71148  20200519.631    20200524.5484
  24342509.885                                    24342515.080    24342560.8524
  21261169.605   -19969939.745 9 -15544325.30347  21261169.439    21261175.2174
  24560646.815    -4706253.879 8  -3655369.10545  24560646.948    24560654.5024
  21387240.673   -15946478.299 9 -12412793.02647  21387240.251    21387246.9424
  23105178.945    -6615813.995 8  -4902103.09446  23105178.268    23105183.6734
  24433369.388    -1410755.352 7  -1068806.83745  24433368.941    24433376.3134
  23446431.789     7942366.326 8   6198982.49745  23446431.403    23446440.2454
 99  8 18  2 48 30.0000000  0  8 18 27 19 13 16 22 03 14
  20194839.931   -27763007.245 9 -21615030.71148  20194839.753    20194844.7384
  24326363.590                                    24326369.337    24326436.3214
  21251359.869   -20021489.977 9 -15584494.29347  21251359.700    21251365.5784
  24542563.340    -4801283.520 7  -3729418.03045  24542563.428    24542570.4694
  21401338.091   -15872396.214 9 -12355066.74847  21401337.652    21401344.3314
  23122538.882    -6524586.624 8  -4831016.82646  23122538.150    23122543.4694
  24420446.192    -1478668.487 7  -1121726.05845  24420445.338    24420453.0264
  23467794.177     8054626.845 8   6286458.09445  23467793.804    23467802.7514
 99  8 18  2 49  0.0000000  0  8 18 27 19 13 16 22 03 14
  20189241.871   -27792425.365 9 -21637953.90548  20189241.649    20189246.6554
  24310238.456                                    24310248.297    24310256.1614
  21241600.114   -20072778.006 9 -15624458.97447  21241599.996    21241605.7784
  24524489.136    -4896261.741 7  -3803426.94545  24524489.190    24524496.5914
  21415518.119   -15797880.228 9 -12297002.37347  21415517.656    21415524.2434
  23139968.071    -6432996.370 8  -4759647.78346  23139967.184    23139972.3714
  24407578.169    -1546290.957 7  -1174418.76945  24407577.215    24407585.0214
  23489186.061     8167042.049 8   6374054.22745  23489185.625    23489194.7484
 99  8 18  2 49 30.0000000  0  8 18 27 19 13 16 22 03 14
  20183720.732   -27821438.725 9 -21660561.69548  20183720.521    20183725.5844
  24294131.275                                    24294141.588    24294160.9494
  21231889.889   -20123805.642 9 -15664220.74047  21231889.719    21231895.4394
  24506421.984    -4991203.906 7  -3877407.72545  24506422.116    24506429.6964
  21429777.710   -15722945.582 9 -12238611.76947  21429777.294    21429783.7964
  23157464.484    -6341051.694 8  -4688002.55646  23157463.752    23157468.7614
  24394766.034    -1613616.651 7  -1226880.24245  24394765.496    24394773.2934
  23510608.359     8279617.431 8   6461775.15845  23510608.025    23510617.2434
 99  8 18  2 50  0.0000000  0  8 18 27 19 13 16 22 03 14
  20178272.704   -27850068.174 9 -21682870.33048  20178272.513    20178277.5764
  24278040.315                                    24278051.427    24278064.3184
  21222232.512   -20174554.738 9 -15703765.45047  21222232.384    21222238.2374
  24488355.881    -5086141.441 7  -3951384.93945  24488356.154    24488363.2564
  21444119.095   -15647580.976 9 -12179886.13947  21444118.715    21444125.2114
  23175025.994    -6248764.954 8  -4616090.80246  23175025.235    23175030.3314
  24382009.823    -1680646.827 7  -1279111.42145  24382009.746    24382017.8884
  23532056.869     8392329.884 8   6549602.89045  23532056.586    23532065.9054
 99  8 18  2 50 30.0000000  0  8 18 27 19 13 16 22 03 14
  20172893.138   -27878338.042 9 -21704898.78148  20172892.947    20172897.9594
                       -22.599
  21212630.304   -20225015.332 9 -15743085.34647  21212630.132    21212635.9584
  24470287.886    -5181090.204 7  -4025370.90445  24470288.062    24470295.2684
  21458543.647   -15571779.887 9 -12120820.38447  21458543.199    21458549.6764
  23192651.611    -6156141.227 8  -4543916.47446  23192650.812    23192655.9974
  24369309.201    -1747390.344 7  -1331119.22445  24369308.808    24369316.9714
  23553529.672     8505170.926 7   6637530.85445  23553529.541    23553539.0444
 99  8 18  2 51  0.0000000  0  8 18 27 19 13 16 22 03 14
  20167583.346   -27906241.343 9 -21726641.59148  20167583.123    20167588.0234
  24245904.689    24245911.847                    24245904.0084
  21203085.355   -20275173.543 9 -15782169.62347  21203085.170    21203091.1154
  24452217.442    -5276051.067 7  -4099366.27145  24452217.623    24452224.6724
  21473049.414   -15495551.591 8 -12061421.73747  21473048.968    21473055.4674
  23210341.545    -6063178.111 8  -4471477.68646  23210340.847    23210346.2654
  24356660.019    -1813863.578 7  -1382916.45045  24356659.435    24356667.4334
  23575027.382     8618140.719 7   6725559.11545  23575027.098    23575036.7064
 99  8 18  2 51 30.0000000  0  8 18 27 19 13 16 22 03 14
  20162346.066   -27933763.628 9 -21748087.50648  20162345.838    20162350.6534
  24229862.813    24229869.982                    24229865.1094
  21193598.483   -20325027.654 9 -15821016.94647  21193598.307    21193604.2014
  24434143.263    -5371032.112 7  -4173377.35945  24434143.284    24434150.1454
  21487636.128   -15418897.781 8 -12001691.52647  21487635.699    21487642.2014
  23228094.853    -5969882.142 8  -4398779.53545  23228094.215    23228099.9874
  24344059.222    -1880080.775 7  -1434514.15445  24344058.849    24344066.4174
  23596548.450     8731235.157 7   6813684.55645  23596548.349    23596558.1344
 99  8 18  2 52  0.0000000  0  8 18 27 19 13 16 22 03 14
  20157186.273   -27960877.992 9 -21769215.55648  20157186.041    20157190.8364
  24213842.413    24213849.463                    24213843.3734
  21184169.241   -20374578.596 9 -15859628.05047  21184169.045    21184174.8074
  24416069.890    -5466010.982 7  -4247386.85545  24416069.886    24416075.8994
  21502303.742   -15341818.219 8 -11941629.56647  21502303.375    21502309.9494
  23245911.093    -5876257.956 8  -4325825.63945  23245910.191    23245916.2294
  24331504.599    -1946053.524 7  -1485921.39445  24331504.540    24331512.0814
  23618093.244     8844455.247 8   6901907.89945  23618093.404    23618103.3354
 99  8 18  2 52 30.0000000  0  7 18 19 13 16 22 03 14
  20152105.296   -27987578.630 9 -21790021.22348  20152105.048    20152109.8274
  21174789.828   -20423867.020 9 -15898034.55747  21174789.698    21174795.5484
  24397995.493    -5560990.883 7  -4321397.08545  24397995.521    24398001.7414
  21517046.780   -15264343.201 9 -11881259.46647  21517046.438    21517053.0564
  23263786.646    -5782320.272 8  -4252627.46545  23263785.936    23263792.1364
  24318993.408    -2011799.889 7  -1537152.19745  24318993.372    24319001.0404
  23639661.581     8957795.355 7   6990224.71745  23639661.433    23639671.3414
 99  8 18  2 53  0.0000000  0  7 18 19 13 16 22 03 14
  20147108.337   -28013837.567 9 -21810482.70948  20147108.117    20147112.8854
  21165461.096   -20472889.698 9 -15936234.00147  21165460.976    21165466.8594
  24379921.871    -5655964.788 7  -4395402.63645  24379922.042    24379928.8634
  21531863.756   -15186480.384 8 -11820587.17047  21531863.321    21531869.8834
  23281721.311    -5688071.726 8  -4179187.03545  23281720.780    23281727.2454
  24306526.411    -2077313.387 8  -1588201.58245  24306526.522    24306534.2214
  23661253.859     9071265.084 8   7078642.57045  23661254.084    23661263.9794
 99  8 18  2 53 30.0000000  0  7 18 19 13 16 22 03 14
  20142202.278   -28039618.966 9 -21830572.08148  20142202.064    20142206.8554
  21156190.092   -20521608.737 9 -15974196.84647  21156189.955    21156195.9024
  24361861.768    -5750872.699 7  -4469356.81245  24361861.902    24361868.4464
  21546763.641   -15108181.036 8 -11759574.72847  21546763.226    21546769.7214
  23299722.689    -5593475.569 8  -4105475.73345  23299721.998    23299728.3294
  24294116.046    -2142530.111 7  -1639019.71145  24294116.174    24294123.7044
  23682882.785     9184925.016 7   7167208.63245  23682883.090    23682892.6844
 99  8 18  2 54  0.0000000  0  7 18 19 13 16 22 03 14
  20137382.302   -28064948.269 9 -21850309.17448  20137382.090    20137386.8424
  21146974.738   -20570035.911 9 -16011932.26547  21146974.614    21146980.5464
  24343813.499    -5845719.002 7  -4543262.94045  24343813.559    24343819.9524
  21561746.116   -15029447.975 8 -11698224.32447  21561745.664    21561752.2434
  23317787.032    -5498547.842 8  -4031506.06445  23317786.213    23317792.5614
  24281762.368    -2207447.936 8  -1689604.93045  24281762.536    24281770.0314
  23704545.174     9298760.141 8   7255911.19145  23704545.484    23704554.7894
 99  8 18  2 54 30.0000000  0  7 18 19 13 16 22 03 14
  20132644.667   -28089844.705 9 -21869708.97048  20132644.430    20132649.1784
  21137813.987   -20618176.024 9 -16049444.00347  21137813.826    21137819.6674
  24325772.595    -5940523.641 8  -4617136.57645  24325772.798    24325779.3744
  21576810.763   -14950282.962 8 -11636537.32147  21576810.275    21576816.8824
  23335912.702    -5403296.367 8  -3957284.13045  23335911.924    23335918.4874
  24269467.217    -2272061.765 7  -1739953.25945  24269466.758    24269474.3724
  23726237.268     9412750.932 8   7344735.05545  23726237.627    23726246.5574
 99  8 18  2 55  0.0000000  0  7 18 19 13 16 22 03 14
  20127985.313   -28114329.348 9 -21888787.88148  20127985.136    20127989.8624
  21128707.836   -20666029.253 9 -16086732.20747  21128707.680    21128713.4384
  24307739.759    -6035285.687 8  -4690977.07645  24307739.962    24307746.7194
  21591957.956   -14870683.621 9 -11574511.87747  21591957.479    21591964.1444
  23354098.125    -5307730.689 8  -3882817.34545  23354097.415    23354104.0004
  24257232.332    -2336356.695 8  -1790053.13745  24257231.957    24257239.3504
  23747953.995     9526870.204 8   7433659.01745  23747954.083    23747962.7904
 99  8 18  2 55 30.0000000  0  7 18 19 13 16 22 03 14
  20123400.112   -28138424.886 9 -21907563.60448  20123399.900    20123404.5964
  21119653.383   -20713610.410 9 -16123808.39547  21119653.219    21119658.9804
  24289710.939    -6130028.838 8  -4764802.84645  24289711.162    24289717.3384
  21607187.457   -14790651.654 8 -11512149.32747  21607187.006    21607193.7304
  23372343.922    -5211848.474 8  -3808103.92845  23372343.093    23372349.4984
  24245057.679    -2400336.099 8  -1839907.12645  24245057.046    24245064.2424
  23769691.289     9641100.854 7   7522669.79145  23769691.565    23769700.1364
 99  8 18  2 56  0.0000000  0  7 18 19 13 16 22 03 14
  20118889.734   -28162126.747 9 -21926032.56748  20118889.572    20118894.2734
  21110652.690   -20760909.073 9 -16160664.45447  21110652.529    21110658.2594
  24271680.587    -6224779.732 8  -4838634.63545  24271680.765    24271686.7284
  21622497.837   -14710195.149 9 -11449455.97847  21622497.426    21622504.0964
  23390649.153    -5115653.423 8  -3733146.74945  23390648.341    23390654.5984
  24232940.292    -2464011.166 7  -1889523.96245  24232939.846    24232946.9674
  23791446.658     9755425.956 7   7611754.15245  23791446.984    23791455.4624
 99  8 18  2 56 30.0000000  0  7 18 19 13 16 22 03 14
  20114455.652   -28185427.922 9 -21944189.30548  20114455.453    20114460.2044
  21101707.666   -20807915.639 9 -16197292.90447  21101707.492    21101713.2104
  24253649.150    -6319535.613 8  -4912470.28345  24253649.269    24253655.2324
  21637887.257   -14629323.624 8 -11386439.24147  21637886.823    21637893.4474
  23409014.199    -5019142.865 8  -3657943.68645  23409013.597    23409019.8584
  24220882.391    -2527372.749 7  -1938896.52845  24220882.243    24220889.5304
  23813223.269     9869862.294 8   7700925.18545  23813223.568    23813232.0184
 99  8 18  2 57  0.0000000  0  8 18 27 19 13 16 22 03 14
  20110097.767   -28208328.522 9 -21962033.91548  20110097.589    20110102.3824
  24054910.862                                    24054912.041    24054948.1114
  21092816.621   -20854637.920 9 -16233699.83947  21092816.477    21092822.1804
  24235619.384    -6414281.633 8  -4986298.28345  24235619.430    24235625.6384
  21653352.892   -14548051.670 9 -11323110.49647  21653352.436    21653359.0604
  23427438.872    -4922322.458 8  -3582499.21645  23427438.062    23427444.1324
  24208884.883    -2590419.311 8  -1988023.63745  24208884.708    24208892.0484
  23835020.314     9984406.021 7   7790179.90145  23835020.548    23835028.9414
 99  8 18  2 57 30.0000000  0  8 18 27 19 13 16 22 03 14
  20105818.559   -28230815.923 9 -21979556.55248  20105818.382    20105823.1824
  24039108.387                                    24039111.719    24039228.1444
  21083980.116   -20901073.869 9 -16269883.65947  21083980.034    21083985.7114
  24217591.428    -6509019.043 8  -5060119.58445  24217591.590    24217597.7454
  21668893.661   -14466384.823 9 -11259474.03547  21668893.147    21668899.8314
  23445920.651    -4825199.531 8  -3506819.02045  23445919.887    23445926.0714
  24196944.816    -2653164.793 7  -2036916.14445  24196944.624    24196951.9454
  23856840.572    10099072.075 7   7879529.94845  23856840.953    23856849.2594
 99  8 18  2 58  0.0000000  0  8 18 27 19 13 16 22 03 14
  20101618.927   -28252885.443 9 -21996753.56748  20101618.719    20101623.5154
  24023325.117                                    24023327.886    24023398.6164
  21075197.064   -20947229.371 9 -16305848.96747  21075196.895    21075202.5304
  24199568.999    -6603726.649 8  -5133917.62345  24199569.157    24199575.4134
  21684508.876   -14384326.792 8 -11195532.72647  21684508.317    21684514.9804
  23464456.803    -4727791.037 8  -3430916.32945  23464456.195    23464462.4174
  24185063.412    -2715599.323 7  -2085566.32945  24185063.599    24185071.1274
  23878682.749    10213854.068 7   7968970.31445  23878683.172    23878691.6474
 99  8 18  2 58 30.0000000  0  8 18 27 19 13 16 22 03 14
  20097498.268   -28274539.841 9 -22013627.11348  20097498.052    20097502.7804
  24007557.735                                    24007562.370    24007562.5614
  21066463.163   -20993125.735 9 -16341612.34147  21066463.041    21066468.7484
  24181556.564    -6698381.740 8  -5207674.78945  24181556.767    24181562.7304
  21700198.975   -14301874.377 8 -11131284.11247  21700198.446    21700205.1454
  23483048.950    -4630089.806 8  -3354785.53245  23483048.213    23483054.5194
  24173243.083    -2777715.675 8  -2133968.58645  24173243.242    24173250.8184
  23900544.591    10328737.384 7   8058489.62845  23900544.757    23900553.3114
 99  8 18  2 59  0.0000000  0  8 18 27 19 13 16 22 03 14
  20093456.066   -28295781.438 9 -22030178.98948  20093455.870    20093460.6104
  23991814.091     -522159.86854                  23991812.983    23991821.4494
  21057776.539   -21038774.878 9 -16377183.06647  21057776.365    21057782.0244
  24163553.434    -6792989.368 8  -5281394.96745  24163553.590    24163559.1584
  21715963.894   -14219029.031 8 -11066729.32347  21715963.371    21715970.1124
  23501695.743    -4532100.252 8  -3278430.06145  23501695.055    23501701.5454
  24161482.318    -2839519.099 8  -2182127.06045  24161482.523    24161490.1124
  23922421.134    10443701.900 7   8148072.24845  23922421.542    23922430.4864
 99  8 18  2 59 30.0000000  0  8 18 27 19 13 16 22 03 14
  20089492.980   -28316607.521 9 -22046407.10048  20089492.814    20089497.5504
  23976091.424     -780338.86818   -586543.63345  23976089.619    23976097.3144
  21049138.023   -21084170.295 9 -16412556.08747  21049137.805    21049143.6334
  24145556.331    -6887565.353 8  -5355090.48445  24145556.469    24145562.0154
  21731805.068   -14135782.543 8 -11001861.96747  21731804.645    21731811.3094
  23520396.599    -4433825.154 8  -3201852.08745  23520396.238    23520402.7754
  24149781.185    -2901010.925 7  -2230042.66145  24149781.055    24149788.4644
  23944314.608    10558751.890 7   8237721.47345  23944314.906    23944323.9994
 99  8 18  3  0  0.0000000  0  8 18 27 19 13 16 22 03 14
  20085609.797   -28337013.881 9 -22062308.15348  20085609.612    20085614.3314
  23960390.775     -862844.118 8   -650833.31845  23960389.907    23960397.2714
  21040547.837   -21129311.264 9 -16447730.84447  21040547.702    21040553.5464
  24127567.854    -6982095.622 8  -5428750.35445  24127568.042    24127573.7234
  21747724.065   -14052127.817 8 -10936676.50247  21747723.624    21747730.3244
  23539152.889    -4335259.110 8  -3125047.42845  23539152.684    23539159.2524
  24138141.225    -2962176.694 8  -2277704.22545  24138141.463    24138148.9944
  23966223.440    10673882.307 8   8327433.36145  23966223.628    23966232.8494
 99  8 18  3  0 30.0000000  0  8 18 27 19 13 16 22 03 14
  20081806.313   -28357001.471 9 -22077882.89848  20081806.095    20081810.8384
  23944711.358     -945238.504 8   -715036.63545  23944710.991    23944718.7904
  21032007.223   -21174192.480 9 -16482703.20647  21032007.084    21032012.7944
  24109585.905    -7076590.612 8  -5502382.70645  24109586.012    24109592.1994
  21763719.256   -13968072.269 8 -10871178.72547  21763718.861    21763725.6134
  23557963.794    -4236409.251 8  -3048021.62945  23557963.232    23557969.7274
  24126562.895    -3023021.053 8  -2325115.34245  24126563.008    24126570.6214
  23988147.166    10789090.366 7   8417205.75445  23988147.301    23988156.5274
 99  8 18  3  1  0.0000000  0  8 18 27 19 13 16 22 03 14
  20078085.071   -28376556.977 9 -22093120.95348  20078084.831    20078089.5204
  23929051.979    -1027529.194 8   -779159.09046  23929051.583    23929059.1054
  21023518.983   -21218798.448 9 -16517461.09147  21023518.841    21023524.4524
  24091607.212    -7171067.873 8  -5576001.24245  24091607.417    24091614.1854
  21779789.084   -13883625.148 8 -10805375.82047  21779788.676    21779795.4124
  23576824.413    -4137295.672 7  -2970790.30845  23576823.865    23576830.2924
  24115046.148    -3083544.084 8  -2372276.08145  24115045.941    24115053.3614
  24010087.918    10904388.480 8   8507048.31745  24010088.001    24010097.4404
 99  8 18  3  1 30.0000000  0  8 18 27 19 13 16 22 03 14
  20074449.910   -28395659.570 9 -22108006.08448  20074449.687    20074454.3574
  23913412.278    -1109715.325 8   -843200.10046  23913411.949    23913419.5974
  21015084.305   -21263122.574 9 -16551999.33547  21015084.140    21015089.8914
  24073633.201    -7265523.644 8  -5649603.07145  24073633.180    24073639.8754
  21795932.702   -13798789.842 8 -10739270.43547  21795932.300    21795939.0824
  23595735.244    -4037917.550 7  -2893352.82845  23595734.733    23595741.3094
  24103592.135    -3143737.087 7  -2419179.62445  24103591.631    24103598.9294
  24032047.786    11019786.722 8   8596968.89345  24032047.819    24032057.2024
 99  8 18  3  2  0.0000000  0  8 18 27 19 13 16 22 03 14
  20070902.730   -28414300.312 9 -22122531.33448  20070902.503    20070907.1374
  23897793.084    -1191794.032 8   -907157.40946  23897792.803    23897800.5354
  21006704.634   -21307158.178 9 -16586312.75647  21006704.491    21006710.2154
  24055664.803    -7359946.882 8  -5723179.61145  24055664.910    24055671.2894
  21812147.967   -13713578.869 9 -10672872.31647  21812147.524    21812154.3134
  23614698.956    -3938262.427 7  -2815699.49445  23614698.505    23614705.0584
  24092202.783    -3203585.845 7  -2465814.93345  24092202.665    24092209.8894
  24054027.759    11135291.463 8   8686972.44445  24054027.833    24054037.1654
 99  8 18  3  2 30.0000000  0  8 18 27 19 13 16 22 03 14
  20067443.247   -28432480.114 9 -22136697.40648  20067442.978    20067447.5814
  23882196.019    -1273755.982 7   -971023.69946  23882195.711    23882203.4414
  20998382.902   -21350889.124 9 -16620388.78947  20998382.742    20998388.3384
  24037700.640    -7454347.526 8  -5796738.49245  24037700.856    24037706.7354
  21828431.943   -13628006.537 9 -10606192.60047  21828431.481    21828438.2394
  23633717.695    -3838319.854 8  -2737822.15845  23633717.018    23633723.4584
  24080880.061    -3263087.419 8  -2512179.70845  24080879.844    24080887.0744
  24076029.509    11250909.843 8   8777064.54445  24076029.611    24076038.6764
 99  8 18  3  3  0.0000000  0  8 18 27 19 13 16 22 03 14
  20064071.483   -28450198.964 9 -22150504.30648  20064071.223    20064075.8174
  23866621.792    -1355597.047 8  -1034795.80245  23866621.522    23866629.5984
  20990119.260   -21394314.630 9 -16654226.82747  20990119.123    20990124.7494
  24019743.632    -7548711.396 8  -5870268.71445  24019743.867    24019749.8344
  21844783.976   -13542076.730 9 -10539234.31847  21844783.461    21844790.1964
  23652792.653    -3738080.858 7  -2659713.80645  23652791.823    23652798.1234
  24069622.814    -3322246.407 8  -2558277.54045  24069622.297    24069629.5014
  24098052.031    11366638.320 8   8867242.42945  24098052.195    24098061.3134
 99  8 18  3  3 30.0000000  0  8 18 27 19 13 16 22 03 14
  20060783.388   -28467477.921 9 -22163968.42948  20060783.119    20060787.7144
  23851071.247    -1437314.807 8  -1098471.84346  23851070.997    23851078.9544
  20981913.377   -21437436.674 9 -16687828.40147  20981913.283    20981918.8294
  24001796.190    -7643025.657 8  -5943760.25445  24001796.443    24001802.6534
  21861203.384   -13455792.430 8 -10471999.82347  21861202.874    21861209.6184
  23671922.933    -3637549.786 8  -2581377.82845  23671922.309    23671928.6524
  24058429.842    -3381065.721 7  -2604110.69245  24058429.286    24058436.4524
  24120092.902    11482462.082 8   8957494.58345  24120092.947    24120102.1954
 99  8 18  3  4  0.0000000  0  8 18 27 19 13 16 22 03 14
  20057574.550   -28484340.529 9 -22177108.12348  20057574.290    20057578.8944
  23835544.284    -1518910.843 8  -1162053.03946  23835544.006    23835551.6804
  20973765.767   -21480253.083 9 -16721191.80447  20973765.604    20973771.0844
  23983858.284    -7737289.217 8  -6017212.31045  23983858.491    23983864.9834
  21877688.219   -13369163.821 8 -10404497.05547  21877687.772    21877694.5504
  23691107.238    -3536740.448 8  -2502825.07045  23691106.038    23691112.2064
  24047299.215    -3439555.417 7  -2649686.96245  24047298.813    24047306.1694
  24142147.830    11598361.029 7   9047805.32945  24142147.789    24142157.2364
 99  8 18  3  4 30.0000000  0  8 18 27 19 13 16 22 03 14
  20054444.703   -28500787.859 9 -22189924.22248  20054444.467    20054449.1044
  23820039.358    -1600389.362 8  -1225542.72446  23820039.130    23820046.6384
  20965675.672   -21522766.521 9 -16754319.13247  20965675.545    20965681.0984
  23965931.060    -7831496.421 8  -6090620.45745  23965931.261    23965937.9544
  21894240.847   -13282178.811 8 -10336716.58047  21894240.423    21894247.2404
  23710340.803    -3435667.856 7  -2424067.13545  23710339.713    23710345.8044
  24036230.347    -3497720.891 7  -2695010.63445  24036230.094    24036237.4544
  24164212.650    11714313.595 7   9138157.86445  24164212.764    24164222.3944
 99  8 18  3  5  0.0000000  0  8 18 27 19 13 16 22 03 14
  20051395.413   -28516811.798 9 -22202410.40748  20051395.188    20051399.8074
  23804553.620    -1681767.241 8  -1288953.93046  23804553.381    23804560.7934
  20957641.996   -21564983.806 9 -16787215.69247  20957641.857    20957647.3934
  23948015.601    -7925643.219 8  -6163981.56245  23948015.794    23948022.0864
  21910862.872   -13194829.376 8 -10268652.12647  21910862.476    21910869.3594
  23729620.366    -3334348.964 8  -2345117.26045  23729619.886    23729625.9934
  24025223.897    -3555560.917 7  -2740080.68445  24025223.644    24025230.5824
  24186286.464    11830311.414 7   9228545.65545  24186286.273    24186296.1024
 99  8 18  3  5 30.0000000  0  8 18 27 19 13 16 22 03 14
  20048429.253   -28532399.080 9 -22214556.33648  20048429.051    20048433.7224
  23789088.114    -1763037.445 8  -1352281.25246  23789087.927    23789095.5454
  20949664.729   -21606904.565 9 -16819881.19847  20949664.589    20949670.0804
  23930110.900    -8019732.912 8  -6237298.16845  23930111.079    23930117.0374
  21927555.324   -13107110.109 8 -10200299.51747  21927554.909    21927561.8394
  23748946.938    -3232788.604 7  -2265979.26945  23748946.226    23748952.2544
  24014282.384    -3613059.078 7  -2784884.36845  24014282.108    24014288.9264
  24208369.888    11946360.379 7   9318973.30845  24208369.753    24208379.5414
 99  8 18  3  6  0.0000000  0  8 18 27 19 13 16 22 03 14
  20045549.059   -28547534.504 9 -22226350.17048  20045548.855    20045553.5324
  23773643.544    -1844199.162 8  -1415524.01146  23773643.260    23773650.8014
  20941742.259   -21648536.863 9 -16852321.91247  20941742.154    20941747.7374
  23912217.582    -8113762.077 8  -6310567.61245  23912217.846    23912223.4494
  21944316.946   -13019027.140 8 -10131663.49547  21944316.546    21944323.4974
  23768320.917    -3130976.678 7  -2186645.25445  23768320.215    23768326.1674
  24003407.839    -3670203.253 7  -2829412.21945  24003407.757    24003414.7534
  24230464.747    12062465.888 7   9409444.95945  24230464.177    24230473.8164
 99  8 18  3  6 30.0000000  0  8 18 27 19 13 16 22 03 14
  20042755.720   -28562213.470 9 -22237788.32448  20042755.529    20042760.2194
  23758217.071    -1925263.907 8  -1478691.25546  23758216.839    23758224.5354
  20933873.461   -21689887.986 9 -16884543.55047  20933873.301    20933878.8614
  23894336.073    -8207728.515 8  -6383788.16345  23894336.326    23894341.8764
  21961149.038   -12930574.171 8 -10062739.15947  21961148.613    21961155.5554
  23787742.529    -3028912.713 7  -2107114.84645  23787742.029    23787748.2994
  23992602.861    -3726985.696 7  -2873658.17545  23992602.327    23992609.4514
  24252571.671    12178638.786 7   9499969.17945  24252571.334    24252580.8384
 99  8 18  3  7  0.0000000  0  8 18 27 19 13 16 22 03 14
  20040050.317   -28576430.286 9 -22248866.35648  20040050.162    20040054.9004
  23742811.686    -2006218.677 8  -1541772.81946  23742811.584    23742819.3514
  20926058.336   -21730955.947 9 -16916544.54547  20926058.231    20926063.8334
  23876466.884    -8301630.780 8  -6456958.70345  23876467.116    23876472.6274
  21978049.412   -12841762.180 8  -9993535.06447  21978049.003    21978055.9464
  23807211.363    -2926602.512 7  -2027392.56945  23807210.741    23807217.0914
  23981868.616    -3783394.596 7  -2917613.10645  23981868.318    23981875.2124
  24274694.699    12294897.392 7   9590560.16445  24274694.449    24274704.2494
 99  8 18  3  7 30.0000000  0  8 18 27 19 13 16 22 03 14
  20037430.971   -28590195.397 9 -22259592.41348  20037430.765    20037435.4514
  23727429.616    -2087050.810 8  -1604758.79846  23727429.483    23727437.4634
  20918295.079   -21771752.378 9 -16948333.95247  20918294.956    20918300.5404
  23858610.273    -8395467.993 8  -6530078.50445  23858610.448    23858615.9414
  21995014.738   -12752608.407 8  -9924064.64847  21995014.408    21995021.3104
  23826726.269    -2824050.706 7  -1947482.07345  23826725.640    23826732.0114
  23971206.071    -3839425.337 7  -2961273.33745  23971205.940    23971212.9524
  24296831.748    12411230.103 7   9681208.92245  24296831.614    24296841.7134
 99  8 18  3  8  0.0000000  0  8 18 27 19 13 16 22 03 14
  20034895.834   -28603517.562 9 -22269973.30848  20034895.650    20034900.3104
  23712069.336    -2167768.652 8  -1667655.71346  23712069.336    23712077.3074
  20910584.908   -21812269.775 9 -16979905.92247  20910584.763    20910590.4154
  23840764.516    -8489247.154 8  -6603153.10945  23840764.772    23840770.3924
  22012044.384   -12663116.457 8  -9854330.70047  22012044.159    22012051.0974
  23846285.896    -2721265.257 7  -1867389.48445  23846285.309    23846291.1504
  23960616.182    -3895073.359 7  -3004635.32545  23960616.121    23960623.4654
  24318981.134    12527624.065 7   9771905.40445  24318980.530    24318990.7654
 99  8 18  3  8 30.0000000  0  8 18 27 19 13 16 22 03 14
  20032443.863   -28616402.690 9 -22280013.65948  20032443.638    20032448.3134
  23696731.259    -2248371.735 7  -1730463.18945  23696731.025    23696738.7924
  20902928.693   -21852503.352 9 -17011256.74747  20902928.534    20902934.1694
  23822928.818    -8582975.095 8  -6676187.78245  23822929.010    23822934.5874
  22029140.150   -12573278.432 8  -9784327.09147  22029139.874    22029146.6964
  23865886.044    -2618264.743 7  -1787129.25545  23865885.702    23865891.4894
  23950098.893    -3950341.936 7  -3047701.66645  23950098.692    23950106.0324
  24341138.790    12644063.788 7   9862637.54545  24341138.440    24341148.8074
 99  8 18  3  9  0.0000000  0  8 18 27 19 13 16 22 03 14
  20030075.527   -28628847.954 9 -22289711.26248  20030075.357    20030080.0504
  23681417.289    -2328846.260 7  -1793170.53445  23681417.135    23681424.6644
  20895326.492   -21892453.244 9 -17042386.51647  20895326.346    20895331.9014
  23805101.460    -8676658.654 8  -6749187.87745  23805101.731    23805107.3354
  22046301.878   -12483093.628 8  -9714053.28047  22046301.513    22046308.3304
  23885527.017    -2515050.176 7  -1706702.24545  23885526.494    23885532.7484
  23939655.600    -4005225.641 7  -3090468.13245  23939654.792    23939661.9284
  24363301.871    12760530.433 7   9953390.64045  24363301.557    24363311.7894
 99  8 18  3  9 30.0000000  0  8 18 27 19 13 16 22 03 14
  20027790.154   -28640857.777 9 -22299069.54748  20027789.950    20027794.6534
  23666127.408    -2409193.910 7  -1855778.97845  23666127.152    23666134.7034
  20887779.342   -21932113.690 9 -17073290.75547  20887779.181    20887784.6404
  23787282.950    -8770295.493 8  -6822151.57845  23787283.157    23787289.0094
  22063531.760   -12392550.626 8  -9643500.34947  22063531.335    22063538.2044
  23905210.766    -2411612.709 7  -1626101.52345  23905210.037    23905216.3954
  23929284.348    -4059725.326 7  -3132935.33145  23929283.712    23929290.6584
  24385468.860    12877016.759 7  10044159.09045  24385468.441    24385478.6504
 99  8 18  3 10  0.0000000  0  8 18 27 19 13 16 22 03 14
  20025587.955   -28652430.451 9 -22308087.20148  20025587.724    20025592.3984
  23650860.830    -2489419.121 8  -1918292.02145  23650860.720    23650868.2454
  20880287.202   -21971484.937 9 -17103969.63847  20880287.068    20880292.5074
  23769471.986    -8863891.674 8  -6895083.58845  23769472.177    23769478.2524
  22080831.298   -12301641.566 8  -9572662.17147  22080830.829    22080837.6724
  23924937.235    -2307949.832 7  -1545325.14745  23924936.481    23924942.7474
  23918984.284    -4113849.735 7  -3175110.10945  23918984.051    23918991.1204
  24407639.327    12993521.371 7  10134941.77245  24407638.773    24407648.9514
 99  8 18  3 10 30.0000000  0  8 18 27 19 13 16 22 03 14
  20023470.707   -28663556.705 9 -22316756.99248  20023470.500    20023475.1754
  23635619.385    -2569514.155 8  -1980703.67145  23635619.132    23635626.8084
  20872847.596   -22010580.543 9 -17134433.71847  20872847.438    20872852.9724
  23751669.822    -8957442.215 8  -6967980.03745  23751669.941    23751676.1704
  22098197.682   -12210380.684 8  -9501549.85047  22098197.246    22098204.1524
  23944708.269    -2204053.203 7  -1464366.56945  23944707.354    23944713.4004
  23908754.026    -4167613.751 7  -3217004.07245  23908753.314    23908760.1704
  24429814.929    13110056.511 7  10225748.26245  24429814.651    24429825.0014
 99  8 18  3 11  0.0000000  0  8 18 27 19 13 16 22 03 14
  20021440.554   -28674225.031 9 -22325069.95848  20021440.345    20021445.0384
  23620400.977    -2649487.858 8  -2043020.76245  23620400.667    23620408.0694
  20865459.225   -22049406.264 9 -17164687.50647  20865459.064    20865464.7884
  23733877.539    -9050942.325 8  -7040837.18545  23733877.698    23733883.7674
  22115629.178   -12118778.236 8  -9430171.38247  22115628.689    22115635.6264
  23964525.242    -2099915.904 7  -1383220.45145  23964524.125    23964529.6044
  23898591.714    -4221017.093 7  -3258617.01645  23898591.080    23898597.7894
  24451999.441    13226637.741 7  10316590.65445  24451999.133    24452009.7744
 99  8 18  3 11 30.0000000  0  9 18 27 19 13 16 22 03 31 14
  20019497.464   -28684436.153 9 -22333026.66748  20019497.251    20019501.9454
  23605199.260    -2729372.925 8  -2105268.79245  23605198.931    23605206.5784
  20858119.181   -22087977.786 9 -17194743.22147  20858119.094    20858124.8174
  23716093.709    -9144396.886 8  -7113658.83145  23716093.880    23716099.8334
  22133118.897   -12026869.207 8  -9358554.00147  22133118.421    22133125.4214
  23984383.926    -1995557.478 7  -1301902.05545  23984382.767    23984388.0464
  23888493.219    -4274080.077 7  -3299964.70145  23888493.131    23888500.2924
  24553946.978    -3467932.144 7  -2683534.03645  24553946.185    24553953.9134
  24474192.586    13343262.863 7  10407467.21945  24474192.328    24474202.7994
 99  8 18  3 12  0.0000000  0  9 18 27 19 13 16 22 03 31 14
  20017648.010   -28694154.669 9 -22340599.52548  20017647.841    20017652.5374
  23590016.490    -2809156.911 8  -2167438.06645  23590016.292    23590024.0914
  20850831.708   -22126274.336 9 -17224584.68347  20850831.570    20850837.1084
  23698322.827    -9237782.933 8  -7186427.10345  23698322.993    23698328.7984
  22150669.884   -11934638.920 8  -9286686.28447  22150669.321    22150676.3274
  24004289.942    -1890950.214 7  -1220389.80045  24004288.897    24004294.1304
  23878467.204    -4326767.831 7  -3341020.01045  23878466.902    23878474.1154
  24535992.231    -3562290.189 7  -2757059.62745  24535990.836    24535997.9044
  24496399.660    13459958.775 7  10498398.93345  24496399.106    24496409.2314
 99  8 18  3 12 30.0000000  0  9 18 27 19 13 16 22 03 31 14
  20015893.819   -28703372.904 9 -22347782.55248  20015893.655    20015898.3724
  23574854.683    -2888833.882 8  -2229523.94145  23574854.358    23574861.8584
  20843598.566   -22164284.133 9 -17254202.69747  20843598.477    20843604.0404
  23680569.294    -9331077.378 8  -7259123.98645  23680569.563    23680575.4494
  22168281.146   -11842091.384 8  -9214571.37347  22168280.629    22168287.5934
  24024242.994    -1786093.946 7  -1138683.45945  24024242.064    24024247.4404
  23868516.375    -4379061.351 7  -3381768.14345  23868515.940    23868522.8684
  24518049.321    -3656580.718 7  -2830532.63245  24518048.059    24518054.5214
  24518622.879    13576741.721 7  10589398.46545  24518622.350    24518632.1874
 99  8 18  3 13  0.0000000  0  9 18 27 19 13 16 22 03 31 14
  20014230.941   -28712111.028 9 -22354591.46448  20014230.816    20014235.5314
  23559711.961    -2968409.171 8  -2291530.59246  23559711.721    23559719.0664
  20836421.041   -22202002.409 9 -17283593.54647  20836420.906    20836426.4714
  23662834.025    -9424276.500 8  -7331746.60345  23662834.271    23662840.2884
  22185952.344   -11749228.832 8  -9142210.99347  22185951.855    22185958.7644
  24044239.425    -1681008.529 7  -1056798.59745  24044238.850    24044244.2874
  23858643.202    -4430944.538 7  -3422196.52945  23858642.766    23858649.6874
  24500119.987    -3750795.317 7  -2903946.44144  24500119.452    24500125.6984
  24540859.382    13693596.807 7  10680454.26045  24540859.088    24540868.7744
 99  8 18  3 13 30.0000000  0  9 18 27 19 13 16 22 03 31 14
  20012656.412   -28720385.433 9 -22361039.04048  20012656.226    20012660.9564
  23544590.578    -3047873.712 8  -2353450.90446  23544590.200    23544597.2324
  20829300.096   -22239422.946 9 -17312752.37847  20829300.006    20829305.6244
  23645114.209    -9517392.134 8  -7404304.13945  23645114.689    23645121.0164
  22203681.618   -11656060.706 8  -9069612.51146  22203681.112    22203688.0294
  24064279.029    -1575699.450 7   -974739.51545  24064278.337    24064283.6914
  23848848.805    -4482412.064 7  -3462301.00745  23848848.526    23848855.4744
  24482206.389    -3844928.886 7  -2977297.10045  24482205.582    24482212.7154
  24563106.624    13810509.700 7  10771555.11545  24563106.775    24563116.6864
 99  8 18  3 14  0.0000000  0  9 18 27 19 13 16 22 03 31 14
  20011163.711   -28728229.330 9 -22367151.15648  20011163.600    20011168.3324
  23529491.937    -3127216.839 8  -2415276.66646  23529491.652    23529498.7214
  20822234.993   -22276550.418 9 -17341682.85447  20822234.857    20822240.5364
  23627408.744    -9610432.310 8  -7476802.89145  23627409.345    23627416.0044
  22221469.980   -11562581.700 8  -8996771.79546  22221469.537    22221476.4314
  24084358.735    -1470177.859 7   -892514.74545  24084358.406    24084363.6594
  23839134.071    -4533464.786 7  -3502082.28645  23839133.631    23839140.4194
  24464308.267    -3938981.282 7  -3050584.51345  24464307.773    24464315.7124
  24585362.426    13927463.451 7  10862687.79245  24585362.497    24585372.4414
 99  8 18  3 14 30.0000000  0  9 18 27 19 13 16 22 03 31 14
  20009748.694   -28735665.446 9 -22372945.52348  20009748.519    20009753.2664
  23514417.360    -3206433.441 8  -2477003.84246  23514417.117    23514424.3544
  20815223.841   -22313394.227 9 -17370392.29147  20815223.710    20815229.3074
  23609717.053    -9703401.887 8  -7549246.67345  23609717.573    23609724.1844
  22239316.308   -11468799.203 8  -8923694.59146  22239315.822    22239322.6814
  24104473.418    -1364473.737 7   -810147.79745  24104473.141    24104478.7984
  23829494.416    -4584121.962 7  -3541555.37545  23829493.994    23829500.6184
  24446421.915    -4032970.428 7  -3123822.62445  24446421.876    24446430.4034
  24607622.626    14044438.455 7  10953837.03745  24607622.546    24607632.4244
 99  8 18  3 15  0.0000000  0  9 18 27 19 13 16 22 03 31 14
  20008410.588   -28742697.320 9 -22378424.89948  20008410.406    20008415.1324
  23499366.323    -3285527.277 8  -2538635.34846  23499365.919    23499373.2044
  20808267.450   -22349950.225 9 -17398877.45347  20808267.346    20808272.8954
  23592033.532    -9796328.867 8  -7621657.21745  23592034.055    23592040.6694
  22257221.111   -11374709.414 8  -8850377.91346  22257220.627    22257227.3054
  24124621.414    -1258596.278 7   -727645.82445  24124620.842    24124626.5334
  23819929.480    -4634384.758 7  -3580721.07945  23819928.978    23819935.9154
  24428546.529    -4126907.023 7  -3197019.78245  24428546.110    24428554.8684
  24629881.314    14161408.100 7  11044982.16345  24629881.328    24629891.4154
 99  8 18  3 15 30.0000000  0  9 18 27 19 13 16 22 03 31 14
  20007152.618   -28749307.723 9 -22383575.85248  20007152.457    20007157.1754
  23484337.513    -3364502.567 8  -2600174.48746  23484337.421    23484344.7474
  20801365.762   -22386218.942 9 -17427138.76747  20801365.614    20801371.1244
  23574356.232    -9889223.717 8  -7694042.75145  23574356.732    23574363.2644
  22275186.089   -11280303.363 8  -8776814.81446  22275185.520    22275192.2344
  24144803.948    -1152538.476 7   -645003.35045  24144803.190    24144808.3464
  23810439.302    -4684255.458 7  -3619581.31445  23810438.906    23810445.7034
  24410679.877    -4220797.379 7  -3270180.93845  24410679.328    24410687.7994
  24652137.785    14278365.329 8  11136117.59145  24652137.809    24652148.1144
 99  8 18  3 16  0.0000000  0  9 18 27 19 13 16 22 03 31 14
  20005979.387   -28755472.929 9 -22388379.90548  20005979.239    20005983.9454
  23469331.590    -3443360.490 8  -2661622.13546  23469331.240    23469338.5284
  20794517.863   -22422204.839 9 -17455179.70747  20794517.725    20794523.1884
  23556688.308    -9982069.268 8  -7766389.87445  23556688.794    23556695.2104
  22293212.170   -11185575.214 8  -8703000.73646  22293211.671    22293218.5914
  24165018.800    -1046308.669 7   -562226.76545  24165017.866    24165022.8874
  23801024.293    -4733730.867 7  -3658133.55645  23801024.114    23801030.7204
  24392821.369    -4314638.718 7  -3343303.90345  24392821.752    24392829.9424
  24674392.223    14395311.876 8  11227244.70045  24674392.073    24674402.5514
 99  8 18  3 16 30.0000000  0  8 18 27 19 13 16 22 03 31
  20004898.465   -28761153.453 9 -22392806.28248  20004898.307    20004902.9594
  23454349.059    -3522093.848 8  -2722972.68746  23454348.892    23454355.8054
  20787728.009   -22457886.031 9 -17482983.21247  20787727.825    20787733.2934
  23539032.225   -10074853.701 8  -7838689.36945  23539032.657    23539038.6984
  22311298.433   -11090531.308 8  -8628940.60246  22311297.990    22311305.0024
  24185268.376     -939895.346 7   -479307.18845  24185267.548    24185272.5524
  23791687.848    -4782796.148 7  -3696366.16345  23791687.308    23791693.9094
  24374976.076    -4408415.787 7  -3416376.79445  24374976.137    24374984.3694
 99  8 18  3 17  0.0000000  0  8 18 27 19 13 16 22 03 31
  20003913.878   -28766327.653 9 -22396838.11548  20003913.649    20003918.3064
  23439390.111    -3600703.938 8  -2784227.22646  23439389.839    23439397.0274
  20780998.404   -22493250.172 9 -17510539.66147  20780998.274    20781003.7644
  23521390.119   -10167563.974 8  -7910931.09445  23521390.500    23521396.3124
  22329445.546   -10995167.776 8  -8554631.41746  22329445.027    22329452.1914
  24205557.538     -833271.583 7   -396223.65345  24205557.322    24205562.2804
  23782433.076    -4831427.865 7  -3734260.94945  23782432.925    23782439.7254
  24357148.233    -4502100.382 7  -3489377.59945  24357148.098    24357156.3844
 99  8 18  3 17 30.0000000  0  9 10 18 27 19 13 16 22 03 31
  24678458.175    -4589896.612 7  -3552815.20745  24678457.460    24678464.8464
  20003024.759   -28770999.733 9 -22400478.69048  20003024.554    20003029.2074
  23424451.450    -3679205.345 8  -2845397.08846  23424451.320    23424458.3694
  20774326.350   -22528312.829 9 -17537861.19047  20774326.113    20774331.5154
  23503767.155   -10260174.550 8  -7983095.12845  23503767.450    23503773.1004
  22347650.514   -10899500.490 8  -8480085.55946  22347649.874    22347657.1434
  24225887.694     -726435.814 7   -312974.88545  24225887.756    24225892.5504
  23773257.902    -4879643.005 7  -3771831.13645  23773257.587    23773264.6394
  24339340.693    -4595677.768 7  -3562294.85145  24339340.436    24339349.0244
 99  8 18  3 18  0.0000000  0  9 10 18 27 19 13 16 22 03 31
  24661458.804    -4679227.055 7  -3622423.29445  24661457.978    24661465.8434
  20002230.044   -28775175.611 9 -22403732.61948  20002229.874    20002234.5584
  23409533.961    -3757597.411 8  -2906481.72946  23409533.737    23409540.7574
  20767711.685   -22563072.293 9 -17564946.46447  20767711.532    20767716.9794
  23486166.441   -10352667.606 8  -8055167.58845  23486166.695    23486172.1174
  22365910.242   -10803544.048 8  -8405314.39446  22365909.603    22365916.9794
  24246258.896     -619387.501 7   -229560.51945  24246258.574    24246263.2044
  23764163.472    -4927433.561 7  -3809070.46445  23764163.212    23764170.3634
  24321555.874    -4689137.082 7  -3635120.12645  24321555.368    24321564.0414
 99  8 18  3 18 30.0000000  0  9 10 18 27 19 13 16 22 03 31
  24644523.390    -4768221.777 7  -3691769.80445  24644522.693    24644531.3234
  20001525.596   -28778877.648 9 -22406617.31348  20001525.412    20001530.0724
  23394636.322    -3835882.698 8  -2967483.18146  23394636.191    23394643.6644
  20761154.115   -22597532.979 9 -17591798.91747  20761153.902    20761159.3404
  23468587.959   -10445043.577 8  -8127148.82045  23468588.254    23468593.5134
  22384225.828   -10707295.455 8  -8330315.55046  22384225.034    22384232.5264
  24266671.509     -512119.844 7   -145975.21645  24266670.744    24266675.7954
  23755149.757    -4974801.135 7  -3845980.20945  23755149.462    23755156.4934
  24303793.463    -4782478.684 7  -3707853.69345  24303792.964    24303801.5494
 99  8 18  3 19  0.0000000  0  9 10 18 27 19 13 16 22 03 31
  24627650.429    -4856889.995 7  -3760861.86845  24627649.723    24627658.6254
  20000907.898   -28782123.771 9 -22409146.75648  20000907.720    20000912.3734
  23379758.742    -3914065.710 8  -3028404.89946  23379758.520    23379765.7184
  20754648.034   -22631722.227 9 -17618439.86347  20754647.896    20754653.2454
  23451030.885   -10537306.774 8  -8199042.15545  23451031.179    23451036.3614
  22402598.449   -10610746.171 8  -8255082.42546  22402597.784    22402605.3514
  24287122.974     -404644.337 7    -62227.93045  24287122.445    24287127.7494
  23746215.353    -5021751.749 7  -3882565.04545  23746214.958    23746221.8814
  24286052.923    -4875707.431 7  -3780499.32245  24286052.156    24286060.3794
 99  8 18  3 19 30.0000000  0  9 10 18 27 19 13 16 22 03 31
  24610838.201    -4945239.674 7  -3829705.65245  24610837.363    24610845.5144
  20000377.095   -28784913.215 9 -22411320.34348  20000376.927    20000381.5834
  23364900.716    -3992143.734 8  -3089244.89646  23364900.566    23364908.0484
  20748190.704   -22665655.970 9 -17644881.71547  20748190.517    20748195.8374
  23433494.419   -10629462.603 8  -8270851.87845  23433494.729    23433499.5164
  22421024.839   -10513914.848 8  -8179629.54946  22421024.247    22421031.9214
  24307610.183     -296980.150 7     21666.40445  24307610.181    24307615.5014
  23737358.823    -5068293.262 7  -3918831.10245  23737358.299    23737365.2804
  24268330.762    -4968837.838 7  -3853068.33645  24268330.125    24268338.1084
 99  8 18  3 20  0.0000000  0  9 10 18 27 19 13 16 22 03 31
  24594083.662    -5033282.595 7  -3898310.42545  24594082.881    24594090.5094
  19999933.873   -28787242.332 9 -22413135.23348  19999933.684    19999938.3584
  23350066.484    -4070098.768 8  -3149988.98445  23350066.336    23350073.3584
  20741780.924   -22699338.975 9 -17671128.18447  20741780.774    20741786.1284
  23415974.225   -10721531.982 8  -8342594.21945  23415974.488    23415979.0024
  22439503.609   -10416809.083 8  -8103962.79946  22439503.055    22439510.5674
  24328132.689     -189135.720 7    105701.10945  24328132.584    24328137.7144
  23728581.342    -5114419.355 7  -3954773.44845  23728580.796    23728587.8674
  24250623.535    -5061889.969 7  -3925576.36945  24250623.063    24250630.8084
 99  8 18  3 20 30.0000000  0  9 10 18 27 19 13 16 22 03 31
  24577389.172    -5121013.060 7  -3966671.71445  24577388.458    24577396.1204
  19999577.949   -28789112.572 9 -22414592.55848  19999577.770    19999582.5164
  23335258.036    -4147916.696 8  -3210626.27446  23335257.867    23335265.0584
  20735419.278   -22732769.562 9 -17697177.96847  20735419.088    20735424.4994
  23398469.730   -10813518.737 8  -8414272.18245  23398469.896    23398474.1124
  22458035.001   -10319427.197 8  -8028080.87846  22458034.426    22458041.7224
  24348688.083      -81120.717 7    189868.73145  24348687.285    24348692.4184
  23719880.603    -5160140.452 8  -3990400.23745  23719880.129    23719887.3814
  24232932.832    -5154854.831 7  -3998016.37745  24232932.220    24232940.0014
 99  8 18  3 21  0.0000000  0  9 10 18 27 19 13 16 22 03 31
  24560755.167    -5208427.050 7  -4034786.40645  24560754.463    24560762.2404
  19999311.543   -28790512.443 9 -22415683.36348  19999311.365    19999316.1404
  23320476.399    -4225596.505 8  -3271155.90346  23320476.180    23320483.0304
  20729107.829   -22765936.003 9 -17723021.92947  20729107.687    20729113.0964
  23380979.022   -10905431.579 8  -8485892.52945  23380979.166    23380983.3664
  22476615.637   -10221785.402 8  -7951996.43846  22476615.163    22476622.3014
  24369273.325       27056.162 7    274162.47445  24369272.285    24369277.5694
  23711260.069    -5205442.950 7  -4025700.81145  23711259.307    23711266.1454
  24215259.852    -5247722.093 7  -4070380.33845  24215259.756    24215267.8684
 99  8 18  3 21 30.0000000  0  9 10 18 27 19 13 16 22 03 31
  24544182.077    -5295518.085 7  -4102649.42845  24544181.248    24544189.7904
  19999135.299   -28791438.615 9 -22416405.04948  19999135.137    19999139.9014
  23305721.201    -4303135.402 8  -3331575.80146  23305720.955    23305727.6964
  20722851.316   -22798814.560 9 -17748641.57647  20722851.149    20722856.4134
  23363502.605   -10997268.955 8  -8557454.07645  23363502.824    23363507.4024
  22495242.663   -10123899.841 8  -7875722.04146  22495242.208    22495249.3634
  24389888.125      135389.533 7    358578.19645  24389887.053    24389892.3374
  23702721.522    -5250314.985 8  -4060665.99545  23702720.817    23702727.2464
  24197607.594    -5340485.958 7  -4142663.75845  24197607.234    24197615.4684
 99  8 18  3 22  0.0000000  0  9 10 18 27 19 13 16 22 03 31
  24527670.062    -5382284.994 7  -4170259.91645  24527669.699    24527678.2814
  19999047.663   -28791899.263 9 -22416763.99548  19999047.468    19999052.1744
  23290993.636    -4380531.003 8  -3391884.00146  23290993.341    23290999.6754
  20716653.279   -22831385.564 9 -17774021.55847  20716653.070    20716658.3724
  23346041.192   -11089027.762 8  -8628954.40545  23346041.462    23346046.5614
  22513920.630   -10025745.934 8  -7799238.54946  22513920.287    22513927.4564
  24410532.150      243875.755 7    443113.00245  24410531.260    24410536.4284
  23694266.956    -5294743.117 8  -4095285.28045  23694266.550    23694272.8154
  24179978.849    -5433128.010 7  -4214852.25545  24179978.379    24179986.3074
 99  8 18  3 22 30.0000000  0  9 10 18 27 19 13 16 22 03 31
  24511221.141    -5468725.760 7  -4237616.19745  24511220.445    24511228.6334
  19999048.234   -28791896.091 9 -22416761.52548  19999048.057    19999052.7694
  23276288.511    -4457806.663 8  -3452098.72546  23276288.112    23276294.6434
  20710513.873   -22863647.900 9 -17799161.01747  20710513.680    20710519.0854
  23328594.919   -11180708.178 8  -8700393.64345  23328595.239    23328600.6674
  22532650.053    -9927322.201 8  -7722544.80846  22532649.791    22532656.9674
  24431202.927      352502.144 7    527757.03245  24431202.171    24431207.4004
  23685898.369    -5338720.576 7  -4129553.35745  23685897.785    23685904.2144
  24162375.982    -5525632.492 7  -4286933.57245  24162375.476    24162383.2124
 99  8 18  3 23  0.0000000  0  9 10 18 27 19 13 16 22 03 31
  24494835.121    -5554836.269 7  -4304715.16245  24494834.299    24494842.3384
  19999140.279   -28791412.391 9 -22416384.61548  19999140.104    19999144.8484
  23261603.885    -4534974.267 8  -3512229.22746  23261603.548    23261610.1574
  20704433.370   -22895601.347 9 -17824059.79047  20704433.189    20704438.5154
  23311164.051   -11272308.468 8  -8771770.43246  23311164.327    23311170.0314
  22551430.229    -9828631.024 8  -7645642.66846  22551430.071    22551437.3174
  24451902.019      461277.923 7    612517.45145  24451901.151    24451906.6574
  23677618.213    -5382233.145 8  -4163459.21445  23677617.637    23677623.9064
  24144799.093    -5617997.634 7  -4358906.26645  24144798.475    24144806.4234
 99  8 18  3 23 30.0000000  0  9 10 18 27 19 13 16 22 03 31
  24478513.733    -5640606.035 7  -4371548.67945  24478513.049    24478521.2544
  19999326.759   -28790432.470 9 -22415621.04648  19999326.594    19999331.3254
  23246940.079    -4612031.203 8  -3572273.51646  23246939.898    23246946.6604
  20698410.445   -22927252.275 9 -17848722.82347  20698410.219    20698415.5144
  23293750.554   -11363817.397 8  -8843076.04246  23293750.772    23293756.6084
  22570265.092    -9729654.102 8  -7568517.88446  22570264.821    22570272.0954
  24472631.120      570210.838 7    697400.35845  24472630.181    24472635.7894
  23669422.574    -5425299.312 8  -4197017.23045  23669422.170    23669428.6704
  24127249.679    -5710217.419 7  -4430765.72445  24127249.263    24127257.3324
 99  8 18  3 24  0.0000000  0  9 10 18 27 19 13 16 22 03 31
  24462256.860    -5726033.609 7  -4438115.54645  24462256.004    24462264.9264
  19999608.315   -28788952.574 9 -22414467.87648  19999608.139    19999612.8804
  23232297.697    -4688978.259 8  -3632232.20046  23232297.465    23232303.9324
  20692442.462   -22958614.131 9 -17873160.61547  20692442.240    20692447.4794
  23276355.553   -11455228.466 8  -8914305.38646  23276355.824    23276361.7134
  22589156.740    -9630378.431 8  -7491160.29846  22589156.452    22589163.7004
  24493390.486      679302.051 7    782406.62645  24493389.459    24493395.1324
  23661311.107    -5467923.577 8  -4230230.86145  23661310.886    23661317.4794
  24109728.847    -5802290.109 7  -4502510.58645  24109728.433    24109736.1994
 99  8 18  3 24 30.0000000  0  9 10 18 27 19 13 16 22 03 31
  24446068.519    -5811102.060 7  -4504402.56745  24446067.819    24446076.3434
  19999986.386   -28786966.069 9 -22412919.95548  19999986.218    19999990.9284
  23217677.367    -4765808.054 8  -3692099.50146  23217677.048    23217683.8544
  20686529.384   -22989687.221 9 -17897373.38947  20686529.184    20686534.3654
  23258981.764   -11546528.100 8  -8985447.88946  23258982.003    23258988.1124
  22608101.966    -9530822.508 8  -7413584.34246  22608101.427    22608108.6484
  24514180.734      788554.486 7    867538.46945  24514179.556    24514185.2804
  23653283.852    -5510107.680 8  -4263101.56045  23653283.552    23653290.0554
  24092234.721    -5894223.251 7  -4574146.69045  24092234.093    24092241.8244
 99  8 18  3 25  0.0000000  0  9 10 18 27 19 13 16 22 03 31
  24429949.004    -5895811.623 7  -4570409.93645  24429948.278    24429956.6644
  20000459.768   -28784478.599 9 -22410981.67248  20000459.580    20000464.2974
  23203082.543    -4842503.082 8  -3751861.79946  23203082.400    23203089.0604
  20680672.685   -23020463.922 9 -17921355.22247  20680672.499    20680677.6824
  23241630.369   -11637709.398 8  -9056498.18046  23241630.664    23241636.8054
  22627099.299    -9430990.529 8  -7335793.26446  22627098.855    22627106.1644
  24535000.282      897963.693 7    952792.58845  24534999.224    24535005.0464
  23645338.409    -5551862.088 8  -4295637.40445  23645338.024    23645344.2374
  24074765.844    -5986023.474 7  -4645679.22645  24074765.257    24074772.7994
 99  8 18  3 25 30.0000000  0  9 10 18 27 19 13 16 22 03 31
  24413895.757    -5980172.149 7  -4636145.35945  24413895.152    24413903.8224
  20001026.981   -28781497.669 9 -22408658.86648  20001026.817    20001031.5654
  23188515.925    -4919052.253 8  -3811510.43946  23188515.675    23188522.4014
  20674873.123   -23050940.326 9 -17945103.06047  20674872.963    20674878.1564
  23224303.162   -11728764.262 8  -9127449.94846  23224303.429    23224309.5754
  22646149.535    -9330881.820 8  -7257786.53746  22646149.057    22646156.3844
  24555847.938     1007519.154 7   1038160.62045  24555846.741    24555852.8034
  23637476.844    -5593172.519 8  -4327827.30545  23637476.885    23637483.0384
  24057322.498    -6077686.647 7  -4717104.99145  24057322.352    24057329.6294
 99  8 18  3 26  0.0000000  0  9 10 18 27 19 13 16 22 03 31
  24397907.900    -6064188.031 7  -4701612.22445  24397907.381    24397916.0534
  20001684.398   -28778043.129 9 -22405967.02048  20001684.192    20001688.9324
  23173977.287    -4995452.114 8  -3871042.74946  23173977.109    23173984.0744
  20669130.870   -23081116.207 9 -17968616.72347  20669130.718    20669135.9144
  23207000.595   -11819689.029 8  -9198300.37646  23207000.928    23207007.0844
  22665248.137    -9230518.388 8  -7179581.32746  22665247.626    22665255.0104
  24576721.346     1117211.116 7   1123635.06645  24576720.421    24576726.4014
  23629703.954    -5634019.306 8  -4359655.89645  23629703.916    23629710.2244
  24039906.193    -6169211.463 7  -4788422.91545  24039905.501    24039912.6874
 99  8 18  3 26 30.0000000  0  9 10 18 27 19 13 16 22 03 31
  24381985.837    -6147856.658 7  -4766808.50945  24381985.642    24381994.1634
  20002429.877   -28774125.502 9 -22402914.32248  20002429.706    20002434.4244
  23159467.084    -5071704.786 8  -3930460.33146  23159466.815    23159473.4854
  20663444.660   -23110997.754 9 -17991901.02847  20663444.475    20663449.7344
  23189720.971   -11910493.675 8  -9269057.19346  23189721.310    23189727.4354
  22684391.573    -9129919.867 8  -7101192.95046  22684391.013    22684398.3974
  24597620.123     1227038.317 7   1209214.89645  24597619.752    24597625.6884
  23622018.766    -5674406.773 8  -4391126.58345  23622018.437    23622024.6224
  24022517.612    -6260587.808 7  -4859625.16545  24022516.908    24022524.2794
 99  8 18  3 27  0.0000000  0  9 10 18 27 19 13 16 22 03 31
  24366129.265    -6231186.796 7  -4831740.99845  24366128.939    24366136.6714
  20003263.554   -28769744.479 9 -22399500.54148  20003263.379    20003268.0784
  23144983.123    -5147817.772 8  -3989769.11846  23144982.852    23144989.5504
  20657811.595   -23140599.869 9 -18014967.60247  20657811.415    20657816.6684
  23172462.367   -12001187.863 8  -9339727.91846  23172462.797    23172468.9674
  22703578.951    -9029089.986 8  -7022624.27746  22703578.390    22703585.7294
  24618545.656     1336999.293 7   1294898.94145  24618544.716    24618550.4614
  23614422.110    -5714327.321 8  -4422233.47945  23614421.737    23614427.8494
  24005159.193    -6351806.639 7  -4930704.67945  24005158.554    24005165.7384
 99  8 18  3 27 30.0000000  0  8 10 18 27 19 13 16 03 31
  24350339.132    -6314165.240 7  -4896399.45045  24350338.563    24350346.4164
  20004185.966   -28764897.409 9 -22395723.60248  20004185.760    20004190.4774
  23130523.920    -5223801.492 8  -4048977.11346  23130523.682    23130530.2254
  20652228.726   -23169938.151 9 -18037828.59147  20652228.510    20652233.7444
  23155224.744   -12091773.995 8  -9410314.47646  23155225.090    23155231.1584
  22722807.762    -8928041.940 8  -6943885.62146  22722807.268    22722814.5274
  23606915.208    -5753775.586 7  -4452972.30445  23606914.863    23606921.0754
  23987831.288    -6442866.441 7  -5001660.25045  23987830.401    23987837.7004
 99  8 18  3 28  0.0000000  0  8 10 18 27 19 13 16 03 31
  24334623.000    -6396751.890 7  -4960752.68945  24334622.491    24334630.8524
  20005201.501   -28759560.702 9 -22391565.12848  20005201.277    20005206.0104
  23116093.151    -5299635.222 8  -4108068.26646  23116092.912    23116099.4924
  20646698.899   -23198997.078 9 -18060471.89347  20646698.708    20646703.9674
  23138010.812   -12182234.793 8  -9480803.36446  23138011.039    23138017.1084
  22742081.643    -8826756.886 8  -6864962.25546  22742081.215    22742088.4284
  23599498.271    -5792750.245 8  -4483342.10645  23599498.117    23599504.4924
  23970536.104    -6533749.817 7  -5072478.37245  23970535.594    23970542.9494
 99  8 18  3 28 30.0000000  0  8 10 18 27 19 13 16 03 31
  24318975.965    -6478978.003 7  -5024824.93445  24318975.374    24318984.1064
  20006307.120   -28753750.666 9 -22387037.82848  20006306.952    20006311.6304
  23101682.259    -5375365.265 8  -4167078.62746  23101682.009    23101688.6084
  20641216.339   -23227807.931 9 -18082921.88947  20641216.153    20641221.3054
  23120813.722   -12272605.554 8  -9551222.07646  23120813.954    23120820.1284
  22761395.178    -8725263.765 8  -6785876.75746  22761394.775    22761402.1074
  23592164.472    -5831289.071 8  -4513372.32845  23592164.384    23592170.7604
  23953267.518    -6624494.948 7  -5143188.74545  23953267.119    23953274.6264
 99  8 18  3 29  0.0000000  0  8 10 18 27 19 13 16 03 31
  24303398.669    -6560836.925 7  -5088611.10045  24303398.137    24303406.8924
  20007506.997   -28747445.510 9 -22382124.71148  20007506.801    20007511.4404
  23087290.031    -5450996.334 8  -4226011.84846  23087289.842    23087296.3174
  20635783.888   -23256355.545 9 -18105166.75547  20635783.734    20635788.7764
  23103636.809   -12362869.955 8  -9621557.90646  23103637.085    23103643.3054
  22780750.917    -8623550.084 8  -6706619.41546  22780750.365    22780757.6724
  23584916.445    -5869380.129 7  -4543053.60645  23584915.813    23584922.3854
  23936026.011    -6715099.014 7  -5213789.20845  23936025.485    23936033.1054
 99  8 18  3 29 30.0000000  0  8 10 18 27 19 13 16 03 31
  24287894.114    -6642315.073 7  -5152100.48645  24287893.183    24287901.3484
  20008803.974   -28740629.800 9 -22376813.77648  20008803.784    20008808.4324
  23072917.392    -5526524.870 8  -4284865.21146  23072917.202    23072923.8974
  20630405.405   -23284620.234 9 -18127191.18147  20630405.218    20630410.1394
  23086482.966   -12453014.411 8  -9691800.29546  23086483.220    23086489.1464
  22800151.806    -8521597.157 8  -6627175.64046  22800151.363    22800158.7554
  23577753.449    -5907019.583 8  -4572383.00745  23577753.242    23577759.7544
  23918814.936    -6805540.946 7  -5284263.34845  23918814.820    23918822.6224
 99  8 18  3 30  0.0000000  0  8 10 18 27 19 13 16 03 31
  24272459.503    -6723424.047 7  -5215302.23345  24272458.516    24272466.5274
  20010197.453   -28733306.955 9 -22371107.66948  20010197.279    20010201.9294
  23058565.630    -5601944.208 8  -4343633.47146  23058565.328    23058571.9434
  20625082.335   -23312592.706 9 -18148987.88547  20625082.153    20625087.2294
  23069352.727   -12543033.647 8  -9761945.08946  23069353.069    23069358.7864
  22819601.278    -8419391.050 8  -6547534.59046  22819600.659    22819608.0124
  23570679.904    -5944192.400 8  -4601348.79545  23570679.408    23570685.8704
  23901637.723    -6895807.385 8  -5354600.72945  23901637.561    23901645.5794
 99  8 18  3 30 30.0000000  0  8 10 18 27 19 13 16 03 31
  24257092.796    -6804173.724 7  -5278223.98045  24257091.995    24257100.1084
  20011687.930   -28725474.468 9 -22365004.43548  20011687.737    20011692.3584
  23044234.497    -5677254.229 8  -4402316.53446  23044234.189    23044240.9704
  20619817.615   -23340258.365 9 -18170545.53047  20619817.467    20619822.6354
  23052247.575   -12632922.559 8  -9831988.36246  23052247.961    23052253.1824
  22839097.444    -8316937.260 8  -6467700.54846  22839097.022    22839104.4614
  23563698.820    -5980879.194 7  -4629935.87345  23563698.171    23563704.5894
  23884496.460    -6985886.566 7  -5424792.17945  23884496.068    23884504.0774
 99  8 18  3 31  0.0000000  0  8 10 18 27 19 13 16 03 31
  24241795.993    -6884559.965 7  -5340862.52145  24241795.324    24241803.4484
  20013272.951   -28717145.166 9 -22358514.07348  20013272.760    20013277.4014
  23029927.624    -5752436.780 8  -4460900.31546  23029927.313    23029934.0404
  20614612.268   -23367612.368 9 -18191860.33047  20614612.121    20614617.3914
  23035168.493   -12722673.978 8  -9901924.45346  23035168.835    23035173.8234
  22858640.288    -8214239.296 8  -6387676.24046  22858639.852    22858647.3504
  23556810.538    -6017077.572 8  -4658142.36145  23556809.860    23556816.2864
  23867391.347    -7075772.761 8  -5494833.28545  23867391.209    23867399.0964
 99  8 18  3 31 30.0000000  0  8 10 18 27 19 13 16 03 31
  24226566.882    -6964587.423 7  -5403221.51245  24226566.238    24226575.0304
  20014950.642   -28708328.839 9 -22351644.22048  20014950.458    20014955.1044
  23015648.193    -5827475.005 8  -4519371.59846  23015647.988    23015654.6814
  20609467.208   -23394649.625 9 -18212928.31947  20609467.073    20609472.3694
  23018114.959   -12812291.100 8  -9971755.92446  23018115.380    23018120.1484
  22878227.244    -8111309.193 8  -6307471.04446  22878226.853    22878234.4114
  23550014.877    -6052787.688 8  -4685968.40445  23550014.374    23550020.7604
  23850322.914    -7165469.337 7  -5564726.62645  23850322.545    23850330.1404
 99  8 18  3 32  0.0000000  0  8 10 18 27 19 13 16 03 31
  24211407.343    -7044250.645 7  -5465296.72045  24211406.931    24211415.0774
  20016719.729   -28699031.982 9 -22344399.91948  20016719.543    20016724.2464
  23001396.654    -5902367.093 8  -4577729.03246  23001396.435    23001403.1924
  20604382.081   -23421372.326 9 -18233751.18347  20604381.943    20604387.1694
  23001087.936   -12901768.715 8 -10041478.67646  23001088.348    23001093.1664
  22897855.104    -8008164.701 8  -6227098.81446  22897854.655    22897862.2784
  23543312.021    -6088011.108 7  -4713415.19545  23543311.464    23543317.8984
  23833288.530    -7254987.093 8  -5634480.61645  23833287.998    23833295.4494
 99  8 18  3 32 30.0000000  0  8 10 18 27 19 13 16 03 31
  24196322.280    -7123525.293 7  -5527069.06145  24196321.596    24196329.3644
  20018581.813   -28689246.672 9 -22336775.00948  20018581.654    20018586.3404
  22987171.006    -5977123.538 8  -4635980.77546  22987170.772    22987177.4844
  20599357.332   -23447777.670 9 -18254326.75547  20599357.191    20599362.4194
  22984090.081   -12991092.345 8 -10111081.44146  22984090.535    22984095.3714
  22917521.676    -7904816.471 8  -6146567.79146  22917521.190    22917528.7744
  23536700.626    -6122753.608 7  -4740487.21545  23536700.252    23536706.5584
  23816288.846    -7344321.882 8  -5704092.04445  23816288.286    23816295.4844
 99  8 18  3 33  0.0000000  0  8 10 18 27 19 13 16 03 31
  24181313.039    -7202398.131 7  -5588528.34245  24181312.406    24181320.8264
  20020536.949   -28678972.633 9 -22328769.27048  20020536.741    20020541.4124
  22972969.648    -6051752.446 8  -4694133.13446  22972969.325    22972975.9554
  20594390.231   -23473880.665 9 -18274666.73747  20594390.030    20594395.1874
  22967122.806   -13080255.768 8 -10180559.35646  22967123.281    22967127.9884
  22937225.984    -7801269.268 8  -6065881.72346  22937225.550    22937233.0934
  23530180.407    -6157012.442 8  -4767182.39845  23530180.854    23530187.4254
  23799325.145    -7433466.979 7  -5773555.65645  23799324.471    23799331.5714
 99  8 18  3 33 30.0000000  0  8 10 18 27 19 13 16 03 31
  24166380.653    -7280866.946 7  -5649672.82345  24166379.923    24166388.5314
  20022586.487   -28668201.999 9 -22320376.57348  20022586.312    20022590.9974
  22958790.954    -6126261.477 8  -4752192.07246  22958790.749    22958797.1904
  20589478.030   -23499694.291 9 -18294781.23847  20589477.841    20589482.9264
  22950184.747   -13169265.973 8 -10249917.89746  22950185.168    22950189.8794
  22956966.540    -7697532.387 8  -5985047.87046  22956966.033    22956973.5364
  23523756.240    -6190774.165 8  -4793490.20145  23523756.172    23523762.7314
  23782397.970    -7522416.046 7  -5842866.51045  23782397.699    23782405.1684
 99  8 18  3 34  0.0000000  0  8 10 18 27 19 13 16 03 31
  24151524.971    -7358934.596 7  -5710504.68445  24151524.198    24151532.7154
  20024729.327   -28656940.990 9 -22311601.76648  20024729.178    20024733.8744
  22944633.399    -6200659.928 8  -4810164.83346  22944633.101    22944639.7344
  20584618.439   -23525231.462 9 -18314680.31748  20584618.265    20584623.3524
  22933275.075   -13258127.357 8 -10319160.46646  22933275.503    22933280.1844
  22976742.910    -7593606.982 8  -5904067.13546  22976742.372    22976749.8414
  23517426.385    -6224040.297 8  -4819411.83645  23517426.274    23517432.4164
  23765510.275    -7611162.406 8  -5912019.40545  23765509.840    23765517.4664
 99  8 18  3 34 30.0000000  0  8 10 18 27 19 13 16 03 31
  24136743.615    -7436610.204 7  -5771031.08245  24136742.831    24136751.3674
  20026965.226   -28645191.112 9 -22302446.02248  20026965.101    20026969.8094
  22930498.562    -6274938.260 8  -4868043.98146  22930498.287    22930505.1504
  20579812.108   -23550489.093 9 -18334361.58048  20579811.923    20579817.0584
  22916391.323   -13346852.895 8 -10388297.17446  22916391.603    22916396.2454
  22996555.426    -7489490.995 8  -5822937.87746  22996554.976    22996562.4984
  23511190.048    -6256812.925 8  -4844948.95245  23511189.851    23511195.9964
  23748662.760    -7699696.934 8  -5981007.26745  23748662.323    23748670.0794
 99  8 18  3 35  0.0000000  0  8 10 18 27 19 13 16 03 31
  24122033.837    -7513911.162 8  -5831265.53345  24122033.194    24122041.4274
  20029293.204   -28632957.532 9 -22292913.37048  20029293.079    20029297.8174
  22916390.275    -6349077.331 8  -4925814.67146  22916390.043    22916396.9394
  20575059.514   -23575463.870 9 -18353822.42848  20575059.343    20575064.5524
  22899529.496   -13435461.433 8 -10457342.69146  22899529.726    22899534.6404
  23016404.919    -7385181.105 8  -5741657.52446  23016404.465    23016412.0704
  23505047.537    -6289092.884 7  -4870102.10645  23505047.125    23505053.2634
  23731855.280    -7788019.709 8  -6049830.09645  23731854.879    23731862.6584
 99  8 18  3 35 30.0000000  0  8 10 18 27 19 13 16 03 31
  24107395.352    -7590836.425 7  -5891207.24745  24107394.568    24107403.2764
  20031711.979   -28620246.922 9 -22283009.00348  20031711.824    20031716.5714
  22902312.710    -6423056.258 8  -4983460.53146  22902312.370    22902319.0214
  20570362.626   -23600145.573 9 -18373054.91148  20570362.494    20570367.8344
  22882688.964   -13523957.370 8 -10526300.51046  22882689.184    22882694.3454
  23036293.569    -7280665.888 8  -5660217.20446  23036293.106    23036300.7864
  23498996.838    -6320888.270 7  -4894877.71945  23498996.683    23499002.9144
  23715090.344    -7876118.087 7  -6118478.10445  23715090.046    23715097.6934
